<?xml version="1.0" encoding="UTF-8"?>
<gpx version="1.1" creator="2bulu-scraper" xmlns="http://www.topografix.com/GPX/1/1">
  <metadata><name>2026-03-26 12:11:15</name><desc>source: 2bulu.com trackId=81088381; exported 2026-09-01T19:12:25.200Z</desc>
    <bounds minlat="28.508188" minlon="105.135023" maxlat="28.524481" maxlon="105.152677"/>
    <link href="https://www.2bulu.com/track/t-gjFDfuCc4qzp%252FR2KBg5Tzw%253D%253D.htm"><text>2bulu 源页面</text></link>
  </metadata>
  <wpt lat="28.512331" lon="105.152061"><ele>403</ele><name>红军路（长滩子）入口</name></wpt>
  <wpt lat="28.515644" lon="105.151536"><ele>403</ele><name>林间小道的瀑布</name></wpt>
  <wpt lat="28.516546" lon="105.151996"><ele>415</ele><name>长滩细流</name></wpt>
  <wpt lat="28.517111" lon="105.152471"><ele>426</ele><name>红军账</name></wpt>
  <wpt lat="28.51913" lon="105.151538"><ele>433</ele><name>红军岩</name></wpt>
  <wpt lat="28.520245" lon="105.151385"><ele>422</ele><name>红军路（长滩子）出口后继续直行</name></wpt>
  <wpt lat="28.523974" lon="105.149181"><ele>455</ele><name>王家大院古民居</name></wpt>
  <wpt lat="28.523797" lon="105.145146"><ele>547</ele><name>红军洞</name></wpt>
  <wpt lat="28.523098" lon="105.143473"><ele>637</ele><name>钟鼓石</name></wpt>
  <wpt lat="28.52243" lon="105.143103"><ele>631</ele><name>左转进入林间小道</name></wpt>
  <wpt lat="28.520543" lon="105.141224"><ele>636</ele><name>公路边老祖屋</name></wpt>
  <wpt lat="28.519545" lon="105.138225"><ele>637</ele><name>归鹿小筑民宿</name></wpt>
  <wpt lat="28.519299" lon="105.137417"><ele>641</ele><name>沿石梯小路走</name></wpt>
  <wpt lat="28.516337" lon="105.136747"><ele>670</ele><name>山脊看尽万倾竹海</name></wpt>
  <wpt lat="28.515475" lon="105.135906"><ele>639</ele><name>漏仓子摩崖石刻</name></wpt>
  <wpt lat="28.515248" lon="105.135435"><ele>647</ele><name>垂直爬升</name></wpt>
  <wpt lat="28.513114" lon="105.135023"><ele>662</ele><name>左转平路前行</name></wpt>
  <wpt lat="28.510117" lon="105.13679"><ele>666</ele><name>沿右边石梯前行</name></wpt>
  <wpt lat="28.509617" lon="105.137647"><ele>674</ele><name>仁和寨山门遗址</name></wpt>
  <wpt lat="28.508843" lon="105.138579"><ele>662</ele><name>左边下坡路前行</name></wpt>
  <wpt lat="28.509443" lon="105.138483"><ele>648</ele><name>观景平台</name></wpt>
  <wpt lat="28.510717" lon="105.140033"><ele>534</ele><name>仁和寨出口往左</name></wpt>
  <wpt lat="28.511904" lon="105.138362"><ele>536</ele><name>彭氏民居</name></wpt>
  <wpt lat="28.514494" lon="105.137544"><ele>541</ele><name>岔路往右前行</name></wpt>
  <wpt lat="28.516191" lon="105.144499"><ele>532</ele><name>钱园古民居</name></wpt>
  <wpt lat="28.516849" lon="105.145202"><ele>529</ele><name>直路往前</name></wpt>
  <wpt lat="28.511677" lon="105.151907"><ele>395</ele><name>出口往左前行</name></wpt>
  <wpt lat="28.50839" lon="105.151454"><ele>400</ele><name>终点村委会</name></wpt>
  <trk><name>2026-03-26 12:11:15</name>
      <trkseg>
        <trkpt lat="28.51222" lon="105.152059"><ele>402.05872</ele><time>2026-03-25T20:11:18.000Z</time></trkpt>
        <trkpt lat="28.512225" lon="105.15206"><ele>402.07922</ele><time>2026-03-25T20:11:22.000Z</time></trkpt>
        <trkpt lat="28.512284" lon="105.152061"><ele>402.44016</ele><time>2026-03-25T20:11:26.000Z</time></trkpt>
        <trkpt lat="28.512351" lon="105.152036"><ele>402.43112</ele><time>2026-03-25T20:11:30.000Z</time></trkpt>
        <trkpt lat="28.512406" lon="105.152002"><ele>397.8082</ele><time>2026-03-25T20:12:24.000Z</time></trkpt>
        <trkpt lat="28.512357" lon="105.152023"><ele>398.4762</ele><time>2026-03-25T20:12:45.000Z</time></trkpt>
        <trkpt lat="28.51241" lon="105.152002"><ele>397.79712</ele><time>2026-03-25T20:12:56.000Z</time></trkpt>
        <trkpt lat="28.512447" lon="105.151984"><ele>397.27457</ele><time>2026-03-25T20:13:00.000Z</time></trkpt>
        <trkpt lat="28.512491" lon="105.151972"><ele>396.81674</ele><time>2026-03-25T20:13:04.000Z</time></trkpt>
        <trkpt lat="28.512548" lon="105.15196"><ele>396.07202</ele><time>2026-03-25T20:13:09.000Z</time></trkpt>
        <trkpt lat="28.51261" lon="105.151958"><ele>396.56085</ele><time>2026-03-25T20:13:20.000Z</time></trkpt>
        <trkpt lat="28.512647" lon="105.151959"><ele>395.53198</ele><time>2026-03-25T20:13:25.000Z</time></trkpt>
        <trkpt lat="28.512705" lon="105.151952"><ele>397.8004</ele><time>2026-03-25T20:13:41.000Z</time></trkpt>
        <trkpt lat="28.512734" lon="105.151978"><ele>396.36523</ele><time>2026-03-25T20:13:47.000Z</time></trkpt>
        <trkpt lat="28.512762" lon="105.15204"><ele>393.60138</ele><time>2026-03-25T20:13:52.000Z</time></trkpt>
        <trkpt lat="28.512773" lon="105.152104"><ele>391.88135</ele><time>2026-03-25T20:13:56.000Z</time></trkpt>
        <trkpt lat="28.512767" lon="105.152156"><ele>390.711</ele><time>2026-03-25T20:13:59.000Z</time></trkpt>
        <trkpt lat="28.512752" lon="105.152224"><ele>389.19397</ele><time>2026-03-25T20:14:04.000Z</time></trkpt>
        <trkpt lat="28.512724" lon="105.152281"><ele>389.79413</ele><time>2026-03-25T20:14:17.000Z</time></trkpt>
        <trkpt lat="28.512708" lon="105.152326"><ele>391.85757</ele><time>2026-03-25T20:14:23.000Z</time></trkpt>
        <trkpt lat="28.512695" lon="105.152364"><ele>392.57367</ele><time>2026-03-25T20:14:25.000Z</time></trkpt>
        <trkpt lat="28.512706" lon="105.152416"><ele>393.14117</ele><time>2026-03-25T20:14:28.000Z</time></trkpt>
        <trkpt lat="28.512747" lon="105.152468"><ele>393.76273</ele><time>2026-03-25T20:14:31.000Z</time></trkpt>
        <trkpt lat="28.512818" lon="105.152484"><ele>399.53275</ele><time>2026-03-25T20:15:03.000Z</time></trkpt>
        <trkpt lat="28.512856" lon="105.152498"><ele>400.35956</ele><time>2026-03-25T20:15:09.000Z</time></trkpt>
        <trkpt lat="28.512887" lon="105.152534"><ele>401.07907</ele><time>2026-03-25T20:15:12.000Z</time></trkpt>
        <trkpt lat="28.512938" lon="105.15258"><ele>401.52042</ele><time>2026-03-25T20:15:16.000Z</time></trkpt>
        <trkpt lat="28.512989" lon="105.152623"><ele>400.9911</ele><time>2026-03-25T20:15:20.000Z</time></trkpt>
        <trkpt lat="28.513042" lon="105.152657"><ele>400.47882</ele><time>2026-03-25T20:15:24.000Z</time></trkpt>
        <trkpt lat="28.513094" lon="105.152677"><ele>400.90118</ele><time>2026-03-25T20:15:29.000Z</time></trkpt>
        <trkpt lat="28.513146" lon="105.152664"><ele>401.32053</ele><time>2026-03-25T20:15:34.000Z</time></trkpt>
        <trkpt lat="28.51318" lon="105.152621"><ele>401.03323</ele><time>2026-03-25T20:15:39.000Z</time></trkpt>
        <trkpt lat="28.513213" lon="105.152596"><ele>400.96796</ele><time>2026-03-25T20:15:42.000Z</time></trkpt>
        <trkpt lat="28.513267" lon="105.152585"><ele>400.43475</ele><time>2026-03-25T20:15:46.000Z</time></trkpt>
        <trkpt lat="28.513315" lon="105.152576"><ele>399.28674</ele><time>2026-03-25T20:15:49.000Z</time></trkpt>
        <trkpt lat="28.513373" lon="105.152555"><ele>399.44437</ele><time>2026-03-25T20:15:53.000Z</time></trkpt>
        <trkpt lat="28.513413" lon="105.152513"><ele>398.8374</ele><time>2026-03-25T20:15:57.000Z</time></trkpt>
        <trkpt lat="28.513445" lon="105.152471"><ele>399.13718</ele><time>2026-03-25T20:16:01.000Z</time></trkpt>
        <trkpt lat="28.513496" lon="105.152456"><ele>399.97574</ele><time>2026-03-25T20:16:07.000Z</time></trkpt>
        <trkpt lat="28.513536" lon="105.152445"><ele>399.76877</ele><time>2026-03-25T20:16:11.000Z</time></trkpt>
        <trkpt lat="28.51358" lon="105.15241"><ele>399.20337</ele><time>2026-03-25T20:16:16.000Z</time></trkpt>
        <trkpt lat="28.513619" lon="105.152377"><ele>399.5752</ele><time>2026-03-25T20:16:20.000Z</time></trkpt>
        <trkpt lat="28.513663" lon="105.152344"><ele>399.8685</ele><time>2026-03-25T20:16:24.000Z</time></trkpt>
        <trkpt lat="28.513729" lon="105.152338"><ele>403.6702</ele><time>2026-03-25T20:16:51.000Z</time></trkpt>
        <trkpt lat="28.513773" lon="105.152306"><ele>402.541</ele><time>2026-03-25T20:17:25.000Z</time></trkpt>
        <trkpt lat="28.513806" lon="105.152262"><ele>401.6277</ele><time>2026-03-25T20:17:30.000Z</time></trkpt>
        <trkpt lat="28.513846" lon="105.152252"><ele>401.18988</ele><time>2026-03-25T20:17:34.000Z</time></trkpt>
        <trkpt lat="28.513897" lon="105.152266"><ele>401.06467</ele><time>2026-03-25T20:17:38.000Z</time></trkpt>
        <trkpt lat="28.513955" lon="105.152277"><ele>400.2441</ele><time>2026-03-25T20:17:42.000Z</time></trkpt>
        <trkpt lat="28.514011" lon="105.152253"><ele>397.56387</ele><time>2026-03-25T20:17:48.000Z</time></trkpt>
        <trkpt lat="28.514061" lon="105.152229"><ele>396.3462</ele><time>2026-03-25T20:17:53.000Z</time></trkpt>
        <trkpt lat="28.514102" lon="105.152219"><ele>395.47168</ele><time>2026-03-25T20:17:56.000Z</time></trkpt>
        <trkpt lat="28.514158" lon="105.152211"><ele>395.69263</ele><time>2026-03-25T20:18:00.000Z</time></trkpt>
        <trkpt lat="28.514205" lon="105.152206"><ele>396.18512</ele><time>2026-03-25T20:18:03.000Z</time></trkpt>
        <trkpt lat="28.514268" lon="105.152205"><ele>396.72794</ele><time>2026-03-25T20:18:08.000Z</time></trkpt>
        <trkpt lat="28.514316" lon="105.152187"><ele>397.32275</ele><time>2026-03-25T20:18:12.000Z</time></trkpt>
        <trkpt lat="28.514363" lon="105.152159"><ele>398.10968</ele><time>2026-03-25T20:18:16.000Z</time></trkpt>
        <trkpt lat="28.514416" lon="105.152122"><ele>399.073</ele><time>2026-03-25T20:18:23.000Z</time></trkpt>
        <trkpt lat="28.51446" lon="105.152108"><ele>399.48157</ele><time>2026-03-25T20:18:27.000Z</time></trkpt>
        <trkpt lat="28.514512" lon="105.152088"><ele>400.86432</ele><time>2026-03-25T20:18:31.000Z</time></trkpt>
        <trkpt lat="28.514561" lon="105.152069"><ele>401.85916</ele><time>2026-03-25T20:18:35.000Z</time></trkpt>
        <trkpt lat="28.514613" lon="105.152054"><ele>402.6194</ele><time>2026-03-25T20:18:40.000Z</time></trkpt>
        <trkpt lat="28.514638" lon="105.152018"><ele>402.43143</ele><time>2026-03-25T20:18:43.000Z</time></trkpt>
        <trkpt lat="28.514673" lon="105.151972"><ele>403.45502</ele><time>2026-03-25T20:18:47.000Z</time></trkpt>
        <trkpt lat="28.514713" lon="105.151924"><ele>405.9961</ele><time>2026-03-25T20:18:51.000Z</time></trkpt>
        <trkpt lat="28.514754" lon="105.15188"><ele>406.73907</ele><time>2026-03-25T20:18:55.000Z</time></trkpt>
        <trkpt lat="28.514788" lon="105.151832"><ele>407.44067</ele><time>2026-03-25T20:18:59.000Z</time></trkpt>
        <trkpt lat="28.514823" lon="105.151796"><ele>408.33597</ele><time>2026-03-25T20:19:02.000Z</time></trkpt>
        <trkpt lat="28.514854" lon="105.151744"><ele>409.82068</ele><time>2026-03-25T20:19:06.000Z</time></trkpt>
        <trkpt lat="28.514884" lon="105.151683"><ele>409.322</ele><time>2026-03-25T20:19:11.000Z</time></trkpt>
        <trkpt lat="28.514915" lon="105.151637"><ele>410.43695</ele><time>2026-03-25T20:19:15.000Z</time></trkpt>
        <trkpt lat="28.514958" lon="105.151599"><ele>410.4726</ele><time>2026-03-25T20:19:19.000Z</time></trkpt>
        <trkpt lat="28.515006" lon="105.151599"><ele>410.9389</ele><time>2026-03-25T20:19:22.000Z</time></trkpt>
        <trkpt lat="28.515049" lon="105.151565"><ele>409.7938</ele><time>2026-03-25T20:19:27.000Z</time></trkpt>
        <trkpt lat="28.515059" lon="105.151525"><ele>409.27243</ele><time>2026-03-25T20:19:30.000Z</time></trkpt>
        <trkpt lat="28.515097" lon="105.151487"><ele>409.59982</ele><time>2026-03-25T20:19:35.000Z</time></trkpt>
        <trkpt lat="28.515125" lon="105.151437"><ele>409.05533</ele><time>2026-03-25T20:19:42.000Z</time></trkpt>
        <trkpt lat="28.515162" lon="105.151412"><ele>408.36758</ele><time>2026-03-25T20:19:46.000Z</time></trkpt>
        <trkpt lat="28.515214" lon="105.151406"><ele>407.38913</ele><time>2026-03-25T20:19:51.000Z</time></trkpt>
        <trkpt lat="28.51527" lon="105.151414"><ele>402.98294</ele><time>2026-03-25T20:19:57.000Z</time></trkpt>
        <trkpt lat="28.515319" lon="105.151421"><ele>400.88412</ele><time>2026-03-25T20:20:02.000Z</time></trkpt>
        <trkpt lat="28.515357" lon="105.151435"><ele>400.75766</ele><time>2026-03-25T20:20:05.000Z</time></trkpt>
        <trkpt lat="28.515412" lon="105.151445"><ele>400.96475</ele><time>2026-03-25T20:20:10.000Z</time></trkpt>
        <trkpt lat="28.51546" lon="105.151471"><ele>401.2241</ele><time>2026-03-25T20:20:15.000Z</time></trkpt>
        <trkpt lat="28.515506" lon="105.151487"><ele>401.9364</ele><time>2026-03-25T20:20:20.000Z</time></trkpt>
        <trkpt lat="28.515543" lon="105.151518"><ele>401.35788</ele><time>2026-03-25T20:20:25.000Z</time></trkpt>
        <trkpt lat="28.515586" lon="105.151537"><ele>401.70938</ele><time>2026-03-25T20:20:29.000Z</time></trkpt>
        <trkpt lat="28.515638" lon="105.151541"><ele>402.78116</ele><time>2026-03-25T20:20:34.000Z</time></trkpt>
        <trkpt lat="28.515606" lon="105.151505"><ele>402.4141</ele><time>2026-03-25T20:21:02.000Z</time></trkpt>
        <trkpt lat="28.515646" lon="105.151498"><ele>402.8526</ele><time>2026-03-25T20:21:22.000Z</time></trkpt>
        <trkpt lat="28.515633" lon="105.15155"><ele>405.41092</ele><time>2026-03-25T20:21:39.000Z</time></trkpt>
        <trkpt lat="28.515576" lon="105.151543"><ele>412.31427</ele><time>2026-03-25T20:22:34.000Z</time></trkpt>
        <trkpt lat="28.51554" lon="105.151508"><ele>413.56583</ele><time>2026-03-25T20:23:00.000Z</time></trkpt>
        <trkpt lat="28.515575" lon="105.151483"><ele>412.99365</ele><time>2026-03-25T20:23:05.000Z</time></trkpt>
        <trkpt lat="28.515618" lon="105.151481"><ele>412.39423</ele><time>2026-03-25T20:23:07.000Z</time></trkpt>
        <trkpt lat="28.515669" lon="105.151455"><ele>411.72626</ele><time>2026-03-25T20:23:11.000Z</time></trkpt>
        <trkpt lat="28.515722" lon="105.151475"><ele>410.4901</ele><time>2026-03-25T20:23:18.000Z</time></trkpt>
        <trkpt lat="28.515771" lon="105.151488"><ele>410.29208</ele><time>2026-03-25T20:23:24.000Z</time></trkpt>
        <trkpt lat="28.51581" lon="105.151494"><ele>410.3123</ele><time>2026-03-25T20:23:26.000Z</time></trkpt>
        <trkpt lat="28.515874" lon="105.151506"><ele>410.78305</ele><time>2026-03-25T20:23:31.000Z</time></trkpt>
        <trkpt lat="28.51595" lon="105.151523"><ele>410.8072</ele><time>2026-03-25T20:23:38.000Z</time></trkpt>
        <trkpt lat="28.516002" lon="105.15153"><ele>410.4301</ele><time>2026-03-25T20:23:42.000Z</time></trkpt>
        <trkpt lat="28.516061" lon="105.151528"><ele>410.99606</ele><time>2026-03-25T20:23:47.000Z</time></trkpt>
        <trkpt lat="28.516119" lon="105.151534"><ele>409.03323</ele><time>2026-03-25T20:23:51.000Z</time></trkpt>
        <trkpt lat="28.516176" lon="105.151563"><ele>408.41708</ele><time>2026-03-25T20:23:56.000Z</time></trkpt>
        <trkpt lat="28.516217" lon="105.151596"><ele>408.8912</ele><time>2026-03-25T20:24:00.000Z</time></trkpt>
        <trkpt lat="28.516257" lon="105.151636"><ele>409.8543</ele><time>2026-03-25T20:24:04.000Z</time></trkpt>
        <trkpt lat="28.516287" lon="105.151672"><ele>410.84534</ele><time>2026-03-25T20:24:07.000Z</time></trkpt>
        <trkpt lat="28.516308" lon="105.151708"><ele>410.79572</ele><time>2026-03-25T20:24:09.000Z</time></trkpt>
        <trkpt lat="28.516354" lon="105.151766"><ele>411.88928</ele><time>2026-03-25T20:24:16.000Z</time></trkpt>
        <trkpt lat="28.516373" lon="105.151799"><ele>412.3434</ele><time>2026-03-25T20:24:19.000Z</time></trkpt>
        <trkpt lat="28.51641" lon="105.151818"><ele>412.5828</ele><time>2026-03-25T20:24:22.000Z</time></trkpt>
        <trkpt lat="28.516453" lon="105.15185"><ele>411.7835</ele><time>2026-03-25T20:24:25.000Z</time></trkpt>
        <trkpt lat="28.516495" lon="105.151888"><ele>411.40564</ele><time>2026-03-25T20:24:28.000Z</time></trkpt>
        <trkpt lat="28.516532" lon="105.151929"><ele>411.99863</ele><time>2026-03-25T20:24:31.000Z</time></trkpt>
        <trkpt lat="28.516556" lon="105.151985"><ele>413.6654</ele><time>2026-03-25T20:24:35.000Z</time></trkpt>
        <trkpt lat="28.516593" lon="105.15202"><ele>415.5729</ele><time>2026-03-25T20:24:44.000Z</time></trkpt>
        <trkpt lat="28.516613" lon="105.151962"><ele>414.43674</ele><time>2026-03-25T20:25:02.000Z</time></trkpt>
        <trkpt lat="28.516589" lon="105.152003"><ele>414.60144</ele><time>2026-03-25T20:25:44.000Z</time></trkpt>
        <trkpt lat="28.5166" lon="105.152053"><ele>415.67523</ele><time>2026-03-25T20:25:53.000Z</time></trkpt>
        <trkpt lat="28.516616" lon="105.152089"><ele>416.00064</ele><time>2026-03-25T20:25:55.000Z</time></trkpt>
        <trkpt lat="28.516634" lon="105.152148"><ele>416.79453</ele><time>2026-03-25T20:25:59.000Z</time></trkpt>
        <trkpt lat="28.516626" lon="105.152144"><ele>415.86707</ele><time>2026-03-25T20:26:02.000Z</time></trkpt>
        <trkpt lat="28.516605" lon="105.15211"><ele>415.24002</ele><time>2026-03-25T20:26:05.000Z</time></trkpt>
        <trkpt lat="28.516576" lon="105.152051"><ele>414.88962</ele><time>2026-03-25T20:26:08.000Z</time></trkpt>
        <trkpt lat="28.516548" lon="105.152002"><ele>414.12665</ele><time>2026-03-25T20:26:10.000Z</time></trkpt>
        <trkpt lat="28.516556" lon="105.151985"><ele>414.25476</ele><time>2026-03-25T20:26:15.000Z</time></trkpt>
        <trkpt lat="28.516585" lon="105.15206"><ele>415.1262</ele><time>2026-03-25T20:26:23.000Z</time></trkpt>
        <trkpt lat="28.516612" lon="105.152111"><ele>415.88098</ele><time>2026-03-25T20:26:26.000Z</time></trkpt>
        <trkpt lat="28.51666" lon="105.152152"><ele>416.85046</ele><time>2026-03-25T20:26:30.000Z</time></trkpt>
        <trkpt lat="28.516696" lon="105.152198"><ele>417.25708</ele><time>2026-03-25T20:26:34.000Z</time></trkpt>
        <trkpt lat="28.516718" lon="105.152244"><ele>417.62134</ele><time>2026-03-25T20:26:37.000Z</time></trkpt>
        <trkpt lat="28.516749" lon="105.152298"><ele>417.99353</ele><time>2026-03-25T20:26:41.000Z</time></trkpt>
        <trkpt lat="28.516783" lon="105.152357"><ele>418.04434</ele><time>2026-03-25T20:26:46.000Z</time></trkpt>
        <trkpt lat="28.51682" lon="105.152387"><ele>418.3693</ele><time>2026-03-25T20:26:49.000Z</time></trkpt>
        <trkpt lat="28.516866" lon="105.152419"><ele>418.96384</ele><time>2026-03-25T20:26:53.000Z</time></trkpt>
        <trkpt lat="28.516911" lon="105.152453"><ele>419.30786</ele><time>2026-03-25T20:26:57.000Z</time></trkpt>
        <trkpt lat="28.516958" lon="105.152512"><ele>419.34833</ele><time>2026-03-25T20:27:03.000Z</time></trkpt>
        <trkpt lat="28.51697" lon="105.15257"><ele>420.09326</ele><time>2026-03-25T20:27:09.000Z</time></trkpt>
        <trkpt lat="28.516999" lon="105.152599"><ele>421.21756</ele><time>2026-03-25T20:27:13.000Z</time></trkpt>
        <trkpt lat="28.517046" lon="105.15261"><ele>422.1221</ele><time>2026-03-25T20:27:18.000Z</time></trkpt>
        <trkpt lat="28.517106" lon="105.152612"><ele>423.23166</ele><time>2026-03-25T20:27:24.000Z</time></trkpt>
        <trkpt lat="28.517078" lon="105.152606"><ele>424.07645</ele><time>2026-03-25T20:27:31.000Z</time></trkpt>
        <trkpt lat="28.517083" lon="105.152572"><ele>424.62677</ele><time>2026-03-25T20:27:34.000Z</time></trkpt>
        <trkpt lat="28.517099" lon="105.152527"><ele>424.8189</ele><time>2026-03-25T20:27:36.000Z</time></trkpt>
        <trkpt lat="28.517151" lon="105.152475"><ele>425.56848</ele><time>2026-03-25T20:27:42.000Z</time></trkpt>
        <trkpt lat="28.517121" lon="105.152466"><ele>425.7104</ele><time>2026-03-25T20:27:52.000Z</time></trkpt>
        <trkpt lat="28.517146" lon="105.152431"><ele>426.0145</ele><time>2026-03-25T20:28:29.000Z</time></trkpt>
        <trkpt lat="28.517169" lon="105.152384"><ele>425.756</ele><time>2026-03-25T20:28:35.000Z</time></trkpt>
        <trkpt lat="28.517156" lon="105.152399"><ele>425.44766</ele><time>2026-03-25T20:28:38.000Z</time></trkpt>
        <trkpt lat="28.517124" lon="105.15243"><ele>425.28885</ele><time>2026-03-25T20:28:41.000Z</time></trkpt>
        <trkpt lat="28.517155" lon="105.152451"><ele>425.8145</ele><time>2026-03-25T20:28:57.000Z</time></trkpt>
        <trkpt lat="28.51709" lon="105.152473"><ele>426.05646</ele><time>2026-03-25T20:29:08.000Z</time></trkpt>
        <trkpt lat="28.517046" lon="105.152565"><ele>426.56726</ele><time>2026-03-25T20:29:24.000Z</time></trkpt>
        <trkpt lat="28.517089" lon="105.152556"><ele>427.47418</ele><time>2026-03-25T20:29:32.000Z</time></trkpt>
        <trkpt lat="28.517142" lon="105.152493"><ele>428.42456</ele><time>2026-03-25T20:29:38.000Z</time></trkpt>
        <trkpt lat="28.517133" lon="105.152508"><ele>428.68387</ele><time>2026-03-25T20:29:40.000Z</time></trkpt>
        <trkpt lat="28.517144" lon="105.152457"><ele>428.11465</ele><time>2026-03-25T20:29:52.000Z</time></trkpt>
        <trkpt lat="28.517165" lon="105.152397"><ele>427.79034</ele><time>2026-03-25T20:30:00.000Z</time></trkpt>
        <trkpt lat="28.517176" lon="105.152421"><ele>427.61844</ele><time>2026-03-25T20:30:01.000Z</time></trkpt>
        <trkpt lat="28.517225" lon="105.15245"><ele>427.44965</ele><time>2026-03-25T20:30:06.000Z</time></trkpt>
        <trkpt lat="28.517257" lon="105.152446"><ele>427.432</ele><time>2026-03-25T20:30:07.000Z</time></trkpt>
        <trkpt lat="28.51734" lon="105.152432"><ele>428.45984</ele><time>2026-03-25T20:30:17.000Z</time></trkpt>
        <trkpt lat="28.517403" lon="105.152399"><ele>429.14267</ele><time>2026-03-25T20:30:26.000Z</time></trkpt>
        <trkpt lat="28.517423" lon="105.152349"><ele>429.10623</ele><time>2026-03-25T20:30:29.000Z</time></trkpt>
        <trkpt lat="28.517464" lon="105.152317"><ele>429.0318</ele><time>2026-03-25T20:30:33.000Z</time></trkpt>
        <trkpt lat="28.517472" lon="105.152292"><ele>428.7476</ele><time>2026-03-25T20:30:34.000Z</time></trkpt>
        <trkpt lat="28.517487" lon="105.152245"><ele>428.76074</ele><time>2026-03-25T20:30:36.000Z</time></trkpt>
        <trkpt lat="28.517506" lon="105.152181"><ele>428.8207</ele><time>2026-03-25T20:30:39.000Z</time></trkpt>
        <trkpt lat="28.517532" lon="105.152114"><ele>429.38882</ele><time>2026-03-25T20:30:43.000Z</time></trkpt>
        <trkpt lat="28.517547" lon="105.152063"><ele>429.61206</ele><time>2026-03-25T20:30:46.000Z</time></trkpt>
        <trkpt lat="28.517586" lon="105.15204"><ele>429.98166</ele><time>2026-03-25T20:30:50.000Z</time></trkpt>
        <trkpt lat="28.517624" lon="105.152021"><ele>430.51645</ele><time>2026-03-25T20:30:53.000Z</time></trkpt>
        <trkpt lat="28.517649" lon="105.151986"><ele>430.82434</ele><time>2026-03-25T20:30:56.000Z</time></trkpt>
        <trkpt lat="28.517684" lon="105.151939"><ele>430.85294</ele><time>2026-03-25T20:31:01.000Z</time></trkpt>
        <trkpt lat="28.517716" lon="105.1519"><ele>430.91562</ele><time>2026-03-25T20:31:06.000Z</time></trkpt>
        <trkpt lat="28.517747" lon="105.151921"><ele>430.41757</ele><time>2026-03-25T20:31:12.000Z</time></trkpt>
        <trkpt lat="28.517775" lon="105.151898"><ele>430.70398</ele><time>2026-03-25T20:31:18.000Z</time></trkpt>
        <trkpt lat="28.517791" lon="105.151856"><ele>431.17484</ele><time>2026-03-25T20:31:21.000Z</time></trkpt>
        <trkpt lat="28.517838" lon="105.151816"><ele>431.7863</ele><time>2026-03-25T20:31:25.000Z</time></trkpt>
        <trkpt lat="28.517876" lon="105.151771"><ele>432.47723</ele><time>2026-03-25T20:31:28.000Z</time></trkpt>
        <trkpt lat="28.517915" lon="105.151733"><ele>432.802</ele><time>2026-03-25T20:31:31.000Z</time></trkpt>
        <trkpt lat="28.517967" lon="105.151699"><ele>431.87808</ele><time>2026-03-25T20:31:35.000Z</time></trkpt>
        <trkpt lat="28.518004" lon="105.151667"><ele>430.31403</ele><time>2026-03-25T20:31:38.000Z</time></trkpt>
        <trkpt lat="28.518027" lon="105.151608"><ele>428.5154</ele><time>2026-03-25T20:31:46.000Z</time></trkpt>
        <trkpt lat="28.518031" lon="105.151557"><ele>428.52026</ele><time>2026-03-25T20:31:52.000Z</time></trkpt>
        <trkpt lat="28.518067" lon="105.151535"><ele>429.30255</ele><time>2026-03-25T20:31:57.000Z</time></trkpt>
        <trkpt lat="28.518115" lon="105.151536"><ele>428.32907</ele><time>2026-03-25T20:32:02.000Z</time></trkpt>
        <trkpt lat="28.518171" lon="105.151543"><ele>428.727</ele><time>2026-03-25T20:32:07.000Z</time></trkpt>
        <trkpt lat="28.518219" lon="105.151533"><ele>429.2279</ele><time>2026-03-25T20:32:10.000Z</time></trkpt>
        <trkpt lat="28.518272" lon="105.151508"><ele>430.14185</ele><time>2026-03-25T20:32:14.000Z</time></trkpt>
        <trkpt lat="28.518322" lon="105.15149"><ele>430.6545</ele><time>2026-03-25T20:32:18.000Z</time></trkpt>
        <trkpt lat="28.51834" lon="105.151524"><ele>429.46198</ele><time>2026-03-25T20:32:23.000Z</time></trkpt>
        <trkpt lat="28.518372" lon="105.151548"><ele>429.5908</ele><time>2026-03-25T20:32:28.000Z</time></trkpt>
        <trkpt lat="28.518409" lon="105.151541"><ele>429.5021</ele><time>2026-03-25T20:32:32.000Z</time></trkpt>
        <trkpt lat="28.518463" lon="105.151529"><ele>430.33035</ele><time>2026-03-25T20:32:38.000Z</time></trkpt>
        <trkpt lat="28.518507" lon="105.151499"><ele>430.34412</ele><time>2026-03-25T20:32:42.000Z</time></trkpt>
        <trkpt lat="28.518557" lon="105.151466"><ele>430.75922</ele><time>2026-03-25T20:32:47.000Z</time></trkpt>
        <trkpt lat="28.518607" lon="105.151432"><ele>432.09708</ele><time>2026-03-25T20:32:51.000Z</time></trkpt>
        <trkpt lat="28.518665" lon="105.151421"><ele>431.6895</ele><time>2026-03-25T20:32:55.000Z</time></trkpt>
        <trkpt lat="28.51872" lon="105.151406"><ele>430.80405</ele><time>2026-03-25T20:32:59.000Z</time></trkpt>
        <trkpt lat="28.518773" lon="105.151414"><ele>430.49554</ele><time>2026-03-25T20:33:03.000Z</time></trkpt>
        <trkpt lat="28.518833" lon="105.151426"><ele>430.38046</ele><time>2026-03-25T20:33:07.000Z</time></trkpt>
        <trkpt lat="28.518873" lon="105.151442"><ele>430.46442</ele><time>2026-03-25T20:33:09.000Z</time></trkpt>
        <trkpt lat="28.518932" lon="105.151447"><ele>430.21365</ele><time>2026-03-25T20:33:13.000Z</time></trkpt>
        <trkpt lat="28.518995" lon="105.151465"><ele>430.416</ele><time>2026-03-25T20:33:19.000Z</time></trkpt>
        <trkpt lat="28.519038" lon="105.151465"><ele>430.74677</ele><time>2026-03-25T20:33:23.000Z</time></trkpt>
        <trkpt lat="28.519075" lon="105.151494"><ele>431.3198</ele><time>2026-03-25T20:33:28.000Z</time></trkpt>
        <trkpt lat="28.519114" lon="105.151535"><ele>431.69193</ele><time>2026-03-25T20:33:34.000Z</time></trkpt>
        <trkpt lat="28.519138" lon="105.151579"><ele>432.40564</ele><time>2026-03-25T20:33:38.000Z</time></trkpt>
        <trkpt lat="28.519137" lon="105.151552"><ele>432.60785</ele><time>2026-03-25T20:33:46.000Z</time></trkpt>
        <trkpt lat="28.519142" lon="105.151482"><ele>433.80295</ele><time>2026-03-25T20:34:13.000Z</time></trkpt>
        <trkpt lat="28.519129" lon="105.151425"><ele>433.11694</ele><time>2026-03-25T20:34:39.000Z</time></trkpt>
        <trkpt lat="28.519102" lon="105.151384"><ele>432.58856</ele><time>2026-03-25T20:34:46.000Z</time></trkpt>
        <trkpt lat="28.519166" lon="105.151466"><ele>429.69028</ele><time>2026-03-25T20:35:09.000Z</time></trkpt>
        <trkpt lat="28.519128" lon="105.151451"><ele>429.68695</ele><time>2026-03-25T20:35:18.000Z</time></trkpt>
        <trkpt lat="28.519145" lon="105.151485"><ele>430.84183</ele><time>2026-03-25T20:35:26.000Z</time></trkpt>
        <trkpt lat="28.519172" lon="105.151449"><ele>432.65417</ele><time>2026-03-25T20:35:38.000Z</time></trkpt>
        <trkpt lat="28.519213" lon="105.151405"><ele>433.89648</ele><time>2026-03-25T20:35:41.000Z</time></trkpt>
        <trkpt lat="28.519277" lon="105.151368"><ele>434.44345</ele><time>2026-03-25T20:35:45.000Z</time></trkpt>
        <trkpt lat="28.519347" lon="105.151362"><ele>430.976</ele><time>2026-03-25T20:35:52.000Z</time></trkpt>
        <trkpt lat="28.519394" lon="105.151367"><ele>428.32684</ele><time>2026-03-25T20:35:57.000Z</time></trkpt>
        <trkpt lat="28.51942" lon="105.15135"><ele>427.29434</ele><time>2026-03-25T20:35:59.000Z</time></trkpt>
        <trkpt lat="28.519464" lon="105.15133"><ele>426.97784</ele><time>2026-03-25T20:36:02.000Z</time></trkpt>
        <trkpt lat="28.519512" lon="105.151323"><ele>427.44565</ele><time>2026-03-25T20:36:05.000Z</time></trkpt>
        <trkpt lat="28.519562" lon="105.151318"><ele>427.81625</ele><time>2026-03-25T20:36:08.000Z</time></trkpt>
        <trkpt lat="28.519616" lon="105.151299"><ele>426.41702</ele><time>2026-03-25T20:36:12.000Z</time></trkpt>
        <trkpt lat="28.519635" lon="105.151246"><ele>424.87778</ele><time>2026-03-25T20:36:16.000Z</time></trkpt>
        <trkpt lat="28.519631" lon="105.151175"><ele>424.50613</ele><time>2026-03-25T20:36:21.000Z</time></trkpt>
        <trkpt lat="28.519653" lon="105.151154"><ele>422.46185</ele><time>2026-03-25T20:36:24.000Z</time></trkpt>
        <trkpt lat="28.519681" lon="105.151165"><ele>421.1098</ele><time>2026-03-25T20:36:26.000Z</time></trkpt>
        <trkpt lat="28.519719" lon="105.151184"><ele>419.57828</ele><time>2026-03-25T20:36:28.000Z</time></trkpt>
        <trkpt lat="28.519764" lon="105.151208"><ele>418.28812</ele><time>2026-03-25T20:36:30.000Z</time></trkpt>
        <trkpt lat="28.519827" lon="105.151246"><ele>417.8802</ele><time>2026-03-25T20:36:33.000Z</time></trkpt>
        <trkpt lat="28.519886" lon="105.151272"><ele>417.63882</ele><time>2026-03-25T20:36:36.000Z</time></trkpt>
        <trkpt lat="28.519942" lon="105.15129"><ele>417.84445</ele><time>2026-03-25T20:36:39.000Z</time></trkpt>
        <trkpt lat="28.519994" lon="105.151307"><ele>418.9067</ele><time>2026-03-25T20:36:42.000Z</time></trkpt>
        <trkpt lat="28.520042" lon="105.151318"><ele>419.95148</ele><time>2026-03-25T20:36:45.000Z</time></trkpt>
        <trkpt lat="28.520094" lon="105.151325"><ele>421.53583</ele><time>2026-03-25T20:36:49.000Z</time></trkpt>
        <trkpt lat="28.520079" lon="105.151328"><ele>421.97366</ele><time>2026-03-25T20:36:53.000Z</time></trkpt>
        <trkpt lat="28.520093" lon="105.151332"><ele>419.5231</ele><time>2026-03-25T20:37:02.000Z</time></trkpt>
        <trkpt lat="28.520128" lon="105.151343"><ele>420.0633</ele><time>2026-03-25T20:37:06.000Z</time></trkpt>
        <trkpt lat="28.520174" lon="105.151377"><ele>421.53372</ele><time>2026-03-25T20:37:12.000Z</time></trkpt>
        <trkpt lat="28.520225" lon="105.151403"><ele>421.99307</ele><time>2026-03-25T20:37:25.000Z</time></trkpt>
        <trkpt lat="28.520238" lon="105.151444"><ele>422.14575</ele><time>2026-03-25T20:37:28.000Z</time></trkpt>
        <trkpt lat="28.520279" lon="105.151461"><ele>422.4774</ele><time>2026-03-25T20:37:32.000Z</time></trkpt>
        <trkpt lat="28.520322" lon="105.151486"><ele>422.15945</ele><time>2026-03-25T20:37:36.000Z</time></trkpt>
        <trkpt lat="28.520368" lon="105.151506"><ele>421.21103</ele><time>2026-03-25T20:37:40.000Z</time></trkpt>
        <trkpt lat="28.520344" lon="105.151487"><ele>420.6346</ele><time>2026-03-25T20:37:44.000Z</time></trkpt>
        <trkpt lat="28.52031" lon="105.151459"><ele>420.71353</ele><time>2026-03-25T20:37:46.000Z</time></trkpt>
        <trkpt lat="28.520269" lon="105.151413"><ele>421.38626</ele><time>2026-03-25T20:37:49.000Z</time></trkpt>
        <trkpt lat="28.520185" lon="105.151385"><ele>420.88284</ele><time>2026-03-25T20:38:04.000Z</time></trkpt>
        <trkpt lat="28.520231" lon="105.151385"><ele>421.48053</ele><time>2026-03-25T20:38:25.000Z</time></trkpt>
        <trkpt lat="28.520279" lon="105.151386"><ele>423.2143</ele><time>2026-03-25T20:38:43.000Z</time></trkpt>
        <trkpt lat="28.520297" lon="105.151433"><ele>425.6394</ele><time>2026-03-25T20:40:18.000Z</time></trkpt>
        <trkpt lat="28.52033" lon="105.151465"><ele>424.80432</ele><time>2026-03-25T20:40:24.000Z</time></trkpt>
        <trkpt lat="28.520377" lon="105.151508"><ele>422.80035</ele><time>2026-03-25T20:40:28.000Z</time></trkpt>
        <trkpt lat="28.520429" lon="105.151541"><ele>421.22318</ele><time>2026-03-25T20:40:32.000Z</time></trkpt>
        <trkpt lat="28.520475" lon="105.151587"><ele>420.19836</ele><time>2026-03-25T20:40:36.000Z</time></trkpt>
        <trkpt lat="28.520523" lon="105.151627"><ele>419.827</ele><time>2026-03-25T20:40:40.000Z</time></trkpt>
        <trkpt lat="28.520558" lon="105.151658"><ele>420.09787</ele><time>2026-03-25T20:40:43.000Z</time></trkpt>
        <trkpt lat="28.520599" lon="105.151684"><ele>420.09406</ele><time>2026-03-25T20:40:46.000Z</time></trkpt>
        <trkpt lat="28.520655" lon="105.151705"><ele>419.82242</ele><time>2026-03-25T20:40:50.000Z</time></trkpt>
        <trkpt lat="28.520711" lon="105.151723"><ele>419.7179</ele><time>2026-03-25T20:40:54.000Z</time></trkpt>
        <trkpt lat="28.520768" lon="105.151736"><ele>420.07562</ele><time>2026-03-25T20:40:58.000Z</time></trkpt>
        <trkpt lat="28.520817" lon="105.151736"><ele>419.51956</ele><time>2026-03-25T20:41:02.000Z</time></trkpt>
        <trkpt lat="28.52087" lon="105.151732"><ele>420.39542</ele><time>2026-03-25T20:41:06.000Z</time></trkpt>
        <trkpt lat="28.520921" lon="105.151738"><ele>420.6218</ele><time>2026-03-25T20:41:10.000Z</time></trkpt>
        <trkpt lat="28.520881" lon="105.151739"><ele>428.28885</ele><time>2026-03-25T20:42:20.000Z</time></trkpt>
        <trkpt lat="28.52092" lon="105.151754"><ele>430.94913</ele><time>2026-03-25T20:42:39.000Z</time></trkpt>
        <trkpt lat="28.520967" lon="105.151738"><ele>429.74103</ele><time>2026-03-25T20:42:43.000Z</time></trkpt>
        <trkpt lat="28.521007" lon="105.151698"><ele>429.44064</ele><time>2026-03-25T20:42:48.000Z</time></trkpt>
        <trkpt lat="28.52104" lon="105.151658"><ele>429.7339</ele><time>2026-03-25T20:42:52.000Z</time></trkpt>
        <trkpt lat="28.521073" lon="105.151617"><ele>430.0791</ele><time>2026-03-25T20:42:56.000Z</time></trkpt>
        <trkpt lat="28.521111" lon="105.151579"><ele>430.0483</ele><time>2026-03-25T20:43:01.000Z</time></trkpt>
        <trkpt lat="28.521153" lon="105.151545"><ele>430.73923</ele><time>2026-03-25T20:43:07.000Z</time></trkpt>
        <trkpt lat="28.521201" lon="105.151541"><ele>430.74692</ele><time>2026-03-25T20:43:11.000Z</time></trkpt>
        <trkpt lat="28.521237" lon="105.151513"><ele>431.19894</ele><time>2026-03-25T20:43:15.000Z</time></trkpt>
        <trkpt lat="28.521276" lon="105.151485"><ele>431.08295</ele><time>2026-03-25T20:43:19.000Z</time></trkpt>
        <trkpt lat="28.521326" lon="105.151455"><ele>430.1333</ele><time>2026-03-25T20:43:24.000Z</time></trkpt>
        <trkpt lat="28.52137" lon="105.151431"><ele>429.29938</ele><time>2026-03-25T20:43:28.000Z</time></trkpt>
        <trkpt lat="28.521421" lon="105.15141"><ele>428.21625</ele><time>2026-03-25T20:43:33.000Z</time></trkpt>
        <trkpt lat="28.521462" lon="105.151392"><ele>426.96973</ele><time>2026-03-25T20:43:37.000Z</time></trkpt>
        <trkpt lat="28.521509" lon="105.151377"><ele>426.59268</ele><time>2026-03-25T20:43:42.000Z</time></trkpt>
        <trkpt lat="28.521557" lon="105.151369"><ele>425.02734</ele><time>2026-03-25T20:43:47.000Z</time></trkpt>
        <trkpt lat="28.521607" lon="105.151365"><ele>424.15964</ele><time>2026-03-25T20:43:51.000Z</time></trkpt>
        <trkpt lat="28.521672" lon="105.151341"><ele>423.9457</ele><time>2026-03-25T20:43:57.000Z</time></trkpt>
        <trkpt lat="28.521705" lon="105.151314"><ele>423.7402</ele><time>2026-03-25T20:44:00.000Z</time></trkpt>
        <trkpt lat="28.521744" lon="105.151261"><ele>423.30896</ele><time>2026-03-25T20:44:05.000Z</time></trkpt>
        <trkpt lat="28.521752" lon="105.151196"><ele>423.31406</ele><time>2026-03-25T20:44:09.000Z</time></trkpt>
        <trkpt lat="28.521755" lon="105.151133"><ele>422.5087</ele><time>2026-03-25T20:44:13.000Z</time></trkpt>
        <trkpt lat="28.521741" lon="105.151077"><ele>422.46103</ele><time>2026-03-25T20:44:17.000Z</time></trkpt>
        <trkpt lat="28.521702" lon="105.151032"><ele>422.83896</ele><time>2026-03-25T20:44:21.000Z</time></trkpt>
        <trkpt lat="28.521665" lon="105.150979"><ele>423.57285</ele><time>2026-03-25T20:44:25.000Z</time></trkpt>
        <trkpt lat="28.521637" lon="105.150924"><ele>423.67773</ele><time>2026-03-25T20:44:29.000Z</time></trkpt>
        <trkpt lat="28.521619" lon="105.150855"><ele>423.8588</ele><time>2026-03-25T20:44:35.000Z</time></trkpt>
        <trkpt lat="28.521626" lon="105.150808"><ele>424.3306</ele><time>2026-03-25T20:44:38.000Z</time></trkpt>
        <trkpt lat="28.521645" lon="105.150757"><ele>424.2743</ele><time>2026-03-25T20:44:41.000Z</time></trkpt>
        <trkpt lat="28.521677" lon="105.150716"><ele>424.62506</ele><time>2026-03-25T20:44:44.000Z</time></trkpt>
        <trkpt lat="28.521719" lon="105.150664"><ele>425.31934</ele><time>2026-03-25T20:44:48.000Z</time></trkpt>
        <trkpt lat="28.521775" lon="105.150634"><ele>425.5294</ele><time>2026-03-25T20:44:52.000Z</time></trkpt>
        <trkpt lat="28.521841" lon="105.15063"><ele>426.69394</ele><time>2026-03-25T20:44:58.000Z</time></trkpt>
        <trkpt lat="28.521886" lon="105.150635"><ele>427.6811</ele><time>2026-03-25T20:45:02.000Z</time></trkpt>
        <trkpt lat="28.521936" lon="105.150641"><ele>427.529</ele><time>2026-03-25T20:45:06.000Z</time></trkpt>
        <trkpt lat="28.521989" lon="105.150666"><ele>426.79526</ele><time>2026-03-25T20:45:10.000Z</time></trkpt>
        <trkpt lat="28.522042" lon="105.150701"><ele>426.45575</ele><time>2026-03-25T20:45:14.000Z</time></trkpt>
        <trkpt lat="28.522088" lon="105.150728"><ele>426.4642</ele><time>2026-03-25T20:45:17.000Z</time></trkpt>
        <trkpt lat="28.522134" lon="105.150755"><ele>426.95316</ele><time>2026-03-25T20:45:20.000Z</time></trkpt>
        <trkpt lat="28.522174" lon="105.150796"><ele>427.02863</ele><time>2026-03-25T20:45:24.000Z</time></trkpt>
        <trkpt lat="28.5222" lon="105.150834"><ele>427.1904</ele><time>2026-03-25T20:45:27.000Z</time></trkpt>
        <trkpt lat="28.522229" lon="105.150882"><ele>427.64346</ele><time>2026-03-25T20:45:31.000Z</time></trkpt>
        <trkpt lat="28.522252" lon="105.150938"><ele>427.91663</ele><time>2026-03-25T20:45:35.000Z</time></trkpt>
        <trkpt lat="28.522282" lon="105.150972"><ele>428.50168</ele><time>2026-03-25T20:45:38.000Z</time></trkpt>
        <trkpt lat="28.522325" lon="105.15099"><ele>429.03705</ele><time>2026-03-25T20:45:41.000Z</time></trkpt>
        <trkpt lat="28.52239" lon="105.150988"><ele>428.59085</ele><time>2026-03-25T20:45:46.000Z</time></trkpt>
        <trkpt lat="28.52242" lon="105.150945"><ele>428.1077</ele><time>2026-03-25T20:45:50.000Z</time></trkpt>
        <trkpt lat="28.522447" lon="105.1509"><ele>427.93204</ele><time>2026-03-25T20:45:53.000Z</time></trkpt>
        <trkpt lat="28.522479" lon="105.150857"><ele>428.0364</ele><time>2026-03-25T20:45:56.000Z</time></trkpt>
        <trkpt lat="28.522503" lon="105.150818"><ele>428.36386</ele><time>2026-03-25T20:45:58.000Z</time></trkpt>
        <trkpt lat="28.522536" lon="105.150763"><ele>429.05658</ele><time>2026-03-25T20:46:01.000Z</time></trkpt>
        <trkpt lat="28.522562" lon="105.150697"><ele>429.5516</ele><time>2026-03-25T20:46:04.000Z</time></trkpt>
        <trkpt lat="28.522583" lon="105.150635"><ele>429.62128</ele><time>2026-03-25T20:46:07.000Z</time></trkpt>
        <trkpt lat="28.522612" lon="105.150591"><ele>429.18433</ele><time>2026-03-25T20:46:10.000Z</time></trkpt>
        <trkpt lat="28.522641" lon="105.150537"><ele>428.8606</ele><time>2026-03-25T20:46:14.000Z</time></trkpt>
        <trkpt lat="28.522669" lon="105.150491"><ele>428.54825</ele><time>2026-03-25T20:46:18.000Z</time></trkpt>
        <trkpt lat="28.522706" lon="105.150477"><ele>428.47253</ele><time>2026-03-25T20:46:21.000Z</time></trkpt>
        <trkpt lat="28.52275" lon="105.150471"><ele>428.7052</ele><time>2026-03-25T20:46:24.000Z</time></trkpt>
        <trkpt lat="28.522798" lon="105.150459"><ele>429.07907</ele><time>2026-03-25T20:46:27.000Z</time></trkpt>
        <trkpt lat="28.522856" lon="105.150435"><ele>429.31238</ele><time>2026-03-25T20:46:31.000Z</time></trkpt>
        <trkpt lat="28.522907" lon="105.150421"><ele>430.4505</ele><time>2026-03-25T20:46:35.000Z</time></trkpt>
        <trkpt lat="28.522954" lon="105.150438"><ele>431.17133</ele><time>2026-03-25T20:46:39.000Z</time></trkpt>
        <trkpt lat="28.522997" lon="105.150438"><ele>430.8306</ele><time>2026-03-25T20:46:42.000Z</time></trkpt>
        <trkpt lat="28.523027" lon="105.150403"><ele>431.01068</ele><time>2026-03-25T20:46:45.000Z</time></trkpt>
        <trkpt lat="28.523056" lon="105.15036"><ele>431.66623</ele><time>2026-03-25T20:46:48.000Z</time></trkpt>
        <trkpt lat="28.523082" lon="105.150301"><ele>432.2138</ele><time>2026-03-25T20:46:52.000Z</time></trkpt>
        <trkpt lat="28.523033" lon="105.150212"><ele>432.08395</ele><time>2026-03-25T20:47:15.000Z</time></trkpt>
        <trkpt lat="28.523054" lon="105.150224"><ele>431.91818</ele><time>2026-03-25T20:47:20.000Z</time></trkpt>
        <trkpt lat="28.523134" lon="105.150183"><ele>431.98947</ele><time>2026-03-25T20:47:29.000Z</time></trkpt>
        <trkpt lat="28.523173" lon="105.150133"><ele>432.25858</ele><time>2026-03-25T20:47:34.000Z</time></trkpt>
        <trkpt lat="28.52321" lon="105.15008"><ele>432.89444</ele><time>2026-03-25T20:47:40.000Z</time></trkpt>
        <trkpt lat="28.523248" lon="105.150051"><ele>431.99554</ele><time>2026-03-25T20:47:44.000Z</time></trkpt>
        <trkpt lat="28.523226" lon="105.150078"><ele>432.79034</ele><time>2026-03-25T20:47:56.000Z</time></trkpt>
        <trkpt lat="28.523175" lon="105.150084"><ele>432.22433</ele><time>2026-03-25T20:48:02.000Z</time></trkpt>
        <trkpt lat="28.523202" lon="105.150139"><ele>435.74918</ele><time>2026-03-25T20:50:27.000Z</time></trkpt>
        <trkpt lat="28.523247" lon="105.150127"><ele>432.57178</ele><time>2026-03-25T20:51:18.000Z</time></trkpt>
        <trkpt lat="28.523196" lon="105.150095"><ele>437.0785</ele><time>2026-03-25T20:52:03.000Z</time></trkpt>
        <trkpt lat="28.523247" lon="105.150077"><ele>435.12085</ele><time>2026-03-25T20:54:47.000Z</time></trkpt>
        <trkpt lat="28.523282" lon="105.150064"><ele>434.831</ele><time>2026-03-25T20:54:52.000Z</time></trkpt>
        <trkpt lat="28.523336" lon="105.150026"><ele>433.47598</ele><time>2026-03-25T20:55:04.000Z</time></trkpt>
      </trkseg>
      <trkseg>
        <trkpt lat="28.523306" lon="105.15003"><ele>431.4678</ele><time>2026-03-25T20:56:23.000Z</time></trkpt>
        <trkpt lat="28.523306" lon="105.150025"><ele>431.41718</ele><time>2026-03-25T20:56:27.000Z</time></trkpt>
        <trkpt lat="28.523298" lon="105.149967"><ele>431.32687</ele><time>2026-03-25T20:56:31.000Z</time></trkpt>
        <trkpt lat="28.52329" lon="105.149867"><ele>431.32184</ele><time>2026-03-25T20:56:36.000Z</time></trkpt>
        <trkpt lat="28.523274" lon="105.149804"><ele>431.3314</ele><time>2026-03-25T20:56:39.000Z</time></trkpt>
        <trkpt lat="28.523263" lon="105.149736"><ele>431.12683</ele><time>2026-03-25T20:56:43.000Z</time></trkpt>
        <trkpt lat="28.523264" lon="105.149677"><ele>431.10443</ele><time>2026-03-25T20:56:47.000Z</time></trkpt>
        <trkpt lat="28.52327" lon="105.149617"><ele>431.66837</ele><time>2026-03-25T20:56:51.000Z</time></trkpt>
        <trkpt lat="28.523262" lon="105.149557"><ele>432.63367</ele><time>2026-03-25T20:56:56.000Z</time></trkpt>
        <trkpt lat="28.523256" lon="105.149504"><ele>433.70844</ele><time>2026-03-25T20:57:01.000Z</time></trkpt>
        <trkpt lat="28.52325" lon="105.149454"><ele>433.63242</ele><time>2026-03-25T20:57:05.000Z</time></trkpt>
        <trkpt lat="28.523286" lon="105.149417"><ele>432.14847</ele><time>2026-03-25T20:57:18.000Z</time></trkpt>
        <trkpt lat="28.523332" lon="105.149452"><ele>432.98898</ele><time>2026-03-25T20:57:34.000Z</time></trkpt>
        <trkpt lat="28.523281" lon="105.149448"><ele>432.35794</ele><time>2026-03-25T20:57:45.000Z</time></trkpt>
        <trkpt lat="28.523267" lon="105.149484"><ele>432.49515</ele><time>2026-03-25T20:57:49.000Z</time></trkpt>
        <trkpt lat="28.523265" lon="105.149537"><ele>432.27704</ele><time>2026-03-25T20:57:53.000Z</time></trkpt>
        <trkpt lat="28.523275" lon="105.149515"><ele>432.35776</ele><time>2026-03-25T20:58:03.000Z</time></trkpt>
        <trkpt lat="28.523284" lon="105.149458"><ele>433.6469</ele><time>2026-03-25T20:58:08.000Z</time></trkpt>
        <trkpt lat="28.523321" lon="105.149456"><ele>434.0218</ele><time>2026-03-25T20:58:14.000Z</time></trkpt>
        <trkpt lat="28.523354" lon="105.149507"><ele>434.4445</ele><time>2026-03-25T20:58:20.000Z</time></trkpt>
        <trkpt lat="28.523389" lon="105.14956"><ele>434.8615</ele><time>2026-03-25T20:58:25.000Z</time></trkpt>
        <trkpt lat="28.523424" lon="105.149599"><ele>435.29236</ele><time>2026-03-25T20:58:29.000Z</time></trkpt>
        <trkpt lat="28.523468" lon="105.149632"><ele>436.9933</ele><time>2026-03-25T20:58:34.000Z</time></trkpt>
        <trkpt lat="28.52352" lon="105.14965"><ele>437.92477</ele><time>2026-03-25T20:58:39.000Z</time></trkpt>
        <trkpt lat="28.523566" lon="105.14965"><ele>438.66263</ele><time>2026-03-25T20:58:43.000Z</time></trkpt>
        <trkpt lat="28.523626" lon="105.149638"><ele>441.07648</ele><time>2026-03-25T20:58:49.000Z</time></trkpt>
        <trkpt lat="28.523684" lon="105.149625"><ele>442.54587</ele><time>2026-03-25T20:58:54.000Z</time></trkpt>
        <trkpt lat="28.523741" lon="105.14961"><ele>444.18597</ele><time>2026-03-25T20:58:59.000Z</time></trkpt>
        <trkpt lat="28.523789" lon="105.149573"><ele>445.94763</ele><time>2026-03-25T20:59:08.000Z</time></trkpt>
        <trkpt lat="28.523832" lon="105.149553"><ele>448.61993</ele><time>2026-03-25T20:59:17.000Z</time></trkpt>
        <trkpt lat="28.523875" lon="105.149532"><ele>450.20828</ele><time>2026-03-25T20:59:24.000Z</time></trkpt>
        <trkpt lat="28.523912" lon="105.1495"><ele>450.08835</ele><time>2026-03-25T20:59:29.000Z</time></trkpt>
        <trkpt lat="28.523952" lon="105.14946"><ele>450.88535</ele><time>2026-03-25T20:59:36.000Z</time></trkpt>
        <trkpt lat="28.52397" lon="105.149405"><ele>452.08093</ele><time>2026-03-25T20:59:42.000Z</time></trkpt>
        <trkpt lat="28.523985" lon="105.149344"><ele>453.10022</ele><time>2026-03-25T20:59:48.000Z</time></trkpt>
        <trkpt lat="28.523998" lon="105.149284"><ele>454.61435</ele><time>2026-03-25T20:59:55.000Z</time></trkpt>
        <trkpt lat="28.524009" lon="105.149231"><ele>454.37625</ele><time>2026-03-25T21:00:11.000Z</time></trkpt>
        <trkpt lat="28.523996" lon="105.149277"><ele>454.0056</ele><time>2026-03-25T21:00:17.000Z</time></trkpt>
        <trkpt lat="28.524005" lon="105.149232"><ele>454.46024</ele><time>2026-03-25T21:00:32.000Z</time></trkpt>
        <trkpt lat="28.523984" lon="105.149186"><ele>455.1859</ele><time>2026-03-25T21:00:37.000Z</time></trkpt>
        <trkpt lat="28.523954" lon="105.149134"><ele>454.83002</ele><time>2026-03-25T21:01:32.000Z</time></trkpt>
        <trkpt lat="28.523975" lon="105.14918"><ele>455.50986</ele><time>2026-03-25T21:05:47.000Z</time></trkpt>
        <trkpt lat="28.523935" lon="105.149142"><ele>455.4737</ele><time>2026-03-25T21:05:57.000Z</time></trkpt>
        <trkpt lat="28.523892" lon="105.14912"><ele>455.0401</ele><time>2026-03-25T21:06:01.000Z</time></trkpt>
        <trkpt lat="28.523837" lon="105.149093"><ele>454.83948</ele><time>2026-03-25T21:06:06.000Z</time></trkpt>
        <trkpt lat="28.523793" lon="105.149061"><ele>454.46222</ele><time>2026-03-25T21:06:10.000Z</time></trkpt>
        <trkpt lat="28.523752" lon="105.149021"><ele>453.7758</ele><time>2026-03-25T21:06:14.000Z</time></trkpt>
        <trkpt lat="28.523747" lon="105.148968"><ele>453.70667</ele><time>2026-03-25T21:06:18.000Z</time></trkpt>
        <trkpt lat="28.523788" lon="105.148916"><ele>454.17957</ele><time>2026-03-25T21:06:24.000Z</time></trkpt>
        <trkpt lat="28.523844" lon="105.148883"><ele>453.9312</ele><time>2026-03-25T21:06:30.000Z</time></trkpt>
        <trkpt lat="28.523883" lon="105.148847"><ele>454.65506</ele><time>2026-03-25T21:06:35.000Z</time></trkpt>
        <trkpt lat="28.523907" lon="105.148788"><ele>454.6148</ele><time>2026-03-25T21:06:57.000Z</time></trkpt>
        <trkpt lat="28.523915" lon="105.148754"><ele>454.8106</ele><time>2026-03-25T21:07:02.000Z</time></trkpt>
        <trkpt lat="28.523946" lon="105.148716"><ele>454.70447</ele><time>2026-03-25T21:07:07.000Z</time></trkpt>
        <trkpt lat="28.523995" lon="105.14871"><ele>455.25397</ele><time>2026-03-25T21:07:12.000Z</time></trkpt>
        <trkpt lat="28.523964" lon="105.148708"><ele>456.82593</ele><time>2026-03-25T21:07:34.000Z</time></trkpt>
        <trkpt lat="28.523967" lon="105.148658"><ele>459.75912</ele><time>2026-03-25T21:07:53.000Z</time></trkpt>
        <trkpt lat="28.523961" lon="105.148601"><ele>457.1341</ele><time>2026-03-25T21:08:27.000Z</time></trkpt>
        <trkpt lat="28.523914" lon="105.148626"><ele>457.2383</ele><time>2026-03-25T21:08:41.000Z</time></trkpt>
        <trkpt lat="28.523932" lon="105.148668"><ele>457.6966</ele><time>2026-03-25T21:08:50.000Z</time></trkpt>
        <trkpt lat="28.523953" lon="105.148719"><ele>457.65524</ele><time>2026-03-25T21:08:57.000Z</time></trkpt>
        <trkpt lat="28.523967" lon="105.148772"><ele>458.54468</ele><time>2026-03-25T21:09:05.000Z</time></trkpt>
        <trkpt lat="28.523921" lon="105.148772"><ele>456.81335</ele><time>2026-03-25T21:09:33.000Z</time></trkpt>
        <trkpt lat="28.523896" lon="105.148801"><ele>456.29575</ele><time>2026-03-25T21:09:38.000Z</time></trkpt>
        <trkpt lat="28.52385" lon="105.148782"><ele>454.59808</ele><time>2026-03-25T21:09:49.000Z</time></trkpt>
        <trkpt lat="28.523804" lon="105.148766"><ele>453.27765</ele><time>2026-03-25T21:09:54.000Z</time></trkpt>
        <trkpt lat="28.523761" lon="105.148748"><ele>452.60587</ele><time>2026-03-25T21:09:58.000Z</time></trkpt>
        <trkpt lat="28.52372" lon="105.148736"><ele>452.26602</ele><time>2026-03-25T21:10:01.000Z</time></trkpt>
        <trkpt lat="28.523679" lon="105.148716"><ele>451.7614</ele><time>2026-03-25T21:10:04.000Z</time></trkpt>
        <trkpt lat="28.523641" lon="105.148685"><ele>450.83832</ele><time>2026-03-25T21:10:07.000Z</time></trkpt>
        <trkpt lat="28.523607" lon="105.148646"><ele>450.05725</ele><time>2026-03-25T21:10:10.000Z</time></trkpt>
        <trkpt lat="28.523575" lon="105.14859"><ele>449.9013</ele><time>2026-03-25T21:10:14.000Z</time></trkpt>
        <trkpt lat="28.52356" lon="105.148533"><ele>450.21613</ele><time>2026-03-25T21:10:18.000Z</time></trkpt>
        <trkpt lat="28.523525" lon="105.148483"><ele>450.41116</ele><time>2026-03-25T21:10:29.000Z</time></trkpt>
        <trkpt lat="28.523523" lon="105.148442"><ele>450.42917</ele><time>2026-03-25T21:10:34.000Z</time></trkpt>
        <trkpt lat="28.523538" lon="105.148382"><ele>449.92422</ele><time>2026-03-25T21:10:40.000Z</time></trkpt>
        <trkpt lat="28.523559" lon="105.148325"><ele>450.6732</ele><time>2026-03-25T21:10:46.000Z</time></trkpt>
        <trkpt lat="28.523575" lon="105.148277"><ele>451.22784</ele><time>2026-03-25T21:10:50.000Z</time></trkpt>
        <trkpt lat="28.523601" lon="105.148226"><ele>451.44727</ele><time>2026-03-25T21:10:54.000Z</time></trkpt>
        <trkpt lat="28.523631" lon="105.148178"><ele>452.06577</ele><time>2026-03-25T21:10:58.000Z</time></trkpt>
        <trkpt lat="28.523651" lon="105.148123"><ele>452.15265</ele><time>2026-03-25T21:11:02.000Z</time></trkpt>
        <trkpt lat="28.523665" lon="105.148062"><ele>452.0582</ele><time>2026-03-25T21:11:06.000Z</time></trkpt>
        <trkpt lat="28.523678" lon="105.148012"><ele>451.82462</ele><time>2026-03-25T21:11:09.000Z</time></trkpt>
        <trkpt lat="28.523697" lon="105.147963"><ele>451.69894</ele><time>2026-03-25T21:11:12.000Z</time></trkpt>
        <trkpt lat="28.523723" lon="105.147918"><ele>452.32346</ele><time>2026-03-25T21:11:15.000Z</time></trkpt>
        <trkpt lat="28.52376" lon="105.147867"><ele>452.5461</ele><time>2026-03-25T21:11:19.000Z</time></trkpt>
        <trkpt lat="28.523794" lon="105.147817"><ele>453.02008</ele><time>2026-03-25T21:11:23.000Z</time></trkpt>
        <trkpt lat="28.523834" lon="105.147774"><ele>454.5189</ele><time>2026-03-25T21:11:27.000Z</time></trkpt>
        <trkpt lat="28.523875" lon="105.147742"><ele>455.73462</ele><time>2026-03-25T21:11:31.000Z</time></trkpt>
        <trkpt lat="28.523912" lon="105.147704"><ele>456.731</ele><time>2026-03-25T21:11:35.000Z</time></trkpt>
        <trkpt lat="28.52394" lon="105.147669"><ele>457.49344</ele><time>2026-03-25T21:11:38.000Z</time></trkpt>
        <trkpt lat="28.52397" lon="105.147611"><ele>459.41507</ele><time>2026-03-25T21:11:43.000Z</time></trkpt>
        <trkpt lat="28.523986" lon="105.147553"><ele>469.6937</ele><time>2026-03-25T21:12:10.000Z</time></trkpt>
        <trkpt lat="28.523998" lon="105.147492"><ele>467.72787</ele><time>2026-03-25T21:13:48.000Z</time></trkpt>
        <trkpt lat="28.524022" lon="105.147449"><ele>466.89096</ele><time>2026-03-25T21:13:53.000Z</time></trkpt>
        <trkpt lat="28.524044" lon="105.1474"><ele>466.84137</ele><time>2026-03-25T21:13:57.000Z</time></trkpt>
        <trkpt lat="28.524068" lon="105.147337"><ele>467.3086</ele><time>2026-03-25T21:14:02.000Z</time></trkpt>
        <trkpt lat="28.524089" lon="105.147284"><ele>467.84848</ele><time>2026-03-25T21:14:06.000Z</time></trkpt>
        <trkpt lat="28.524127" lon="105.147236"><ele>468.37045</ele><time>2026-03-25T21:14:11.000Z</time></trkpt>
        <trkpt lat="28.524163" lon="105.147187"><ele>468.64</ele><time>2026-03-25T21:14:16.000Z</time></trkpt>
        <trkpt lat="28.524195" lon="105.147148"><ele>469.07544</ele><time>2026-03-25T21:14:20.000Z</time></trkpt>
        <trkpt lat="28.524227" lon="105.1471"><ele>469.60596</ele><time>2026-03-25T21:14:24.000Z</time></trkpt>
        <trkpt lat="28.524259" lon="105.147055"><ele>470.46814</ele><time>2026-03-25T21:14:28.000Z</time></trkpt>
        <trkpt lat="28.524293" lon="105.147003"><ele>471.5308</ele><time>2026-03-25T21:14:33.000Z</time></trkpt>
        <trkpt lat="28.524326" lon="105.146961"><ele>472.86044</ele><time>2026-03-25T21:14:37.000Z</time></trkpt>
        <trkpt lat="28.524356" lon="105.146909"><ele>475.16827</ele><time>2026-03-25T21:14:41.000Z</time></trkpt>
        <trkpt lat="28.524391" lon="105.146856"><ele>477.4845</ele><time>2026-03-25T21:14:46.000Z</time></trkpt>
        <trkpt lat="28.524424" lon="105.146809"><ele>479.64508</ele><time>2026-03-25T21:14:51.000Z</time></trkpt>
        <trkpt lat="28.524447" lon="105.146767"><ele>481.76123</ele><time>2026-03-25T21:14:55.000Z</time></trkpt>
        <trkpt lat="28.524467" lon="105.146715"><ele>483.42908</ele><time>2026-03-25T21:14:59.000Z</time></trkpt>
        <trkpt lat="28.52448" lon="105.146654"><ele>484.74808</ele><time>2026-03-25T21:15:03.000Z</time></trkpt>
        <trkpt lat="28.524481" lon="105.146602"><ele>485.71967</ele><time>2026-03-25T21:15:06.000Z</time></trkpt>
        <trkpt lat="28.524469" lon="105.146552"><ele>487.00067</ele><time>2026-03-25T21:15:09.000Z</time></trkpt>
        <trkpt lat="28.524414" lon="105.146499"><ele>489.84814</ele><time>2026-03-25T21:15:22.000Z</time></trkpt>
        <trkpt lat="28.524365" lon="105.146521"><ele>489.2717</ele><time>2026-03-25T21:15:32.000Z</time></trkpt>
        <trkpt lat="28.524313" lon="105.146514"><ele>488.06708</ele><time>2026-03-25T21:15:42.000Z</time></trkpt>
        <trkpt lat="28.524287" lon="105.146471"><ele>487.6239</ele><time>2026-03-25T21:15:51.000Z</time></trkpt>
        <trkpt lat="28.52427" lon="105.146412"><ele>489.59778</ele><time>2026-03-25T21:16:00.000Z</time></trkpt>
        <trkpt lat="28.524253" lon="105.146359"><ele>490.8506</ele><time>2026-03-25T21:16:09.000Z</time></trkpt>
        <trkpt lat="28.524245" lon="105.146304"><ele>492.604</ele><time>2026-03-25T21:16:17.000Z</time></trkpt>
        <trkpt lat="28.524254" lon="105.146237"><ele>492.92453</ele><time>2026-03-25T21:16:31.000Z</time></trkpt>
        <trkpt lat="28.524246" lon="105.146176"><ele>497.17398</ele><time>2026-03-25T21:16:41.000Z</time></trkpt>
        <trkpt lat="28.524257" lon="105.14612"><ele>500.15314</ele><time>2026-03-25T21:16:50.000Z</time></trkpt>
        <trkpt lat="28.524245" lon="105.146078"><ele>501.12833</ele><time>2026-03-25T21:16:54.000Z</time></trkpt>
        <trkpt lat="28.524242" lon="105.146024"><ele>501.5766</ele><time>2026-03-25T21:16:59.000Z</time></trkpt>
        <trkpt lat="28.524232" lon="105.145974"><ele>502.0183</ele><time>2026-03-25T21:17:03.000Z</time></trkpt>
        <trkpt lat="28.524203" lon="105.145921"><ele>503.4814</ele><time>2026-03-25T21:17:07.000Z</time></trkpt>
        <trkpt lat="28.524165" lon="105.145877"><ele>505.90167</ele><time>2026-03-25T21:17:11.000Z</time></trkpt>
        <trkpt lat="28.524137" lon="105.145816"><ele>506.67172</ele><time>2026-03-25T21:17:16.000Z</time></trkpt>
        <trkpt lat="28.524103" lon="105.14577"><ele>507.28052</ele><time>2026-03-25T21:17:20.000Z</time></trkpt>
        <trkpt lat="28.524066" lon="105.145728"><ele>508.58813</ele><time>2026-03-25T21:17:24.000Z</time></trkpt>
        <trkpt lat="28.524022" lon="105.145676"><ele>511.92175</ele><time>2026-03-25T21:17:32.000Z</time></trkpt>
        <trkpt lat="28.523996" lon="105.14564"><ele>513.7385</ele><time>2026-03-25T21:17:37.000Z</time></trkpt>
        <trkpt lat="28.523971" lon="105.145584"><ele>513.9353</ele><time>2026-03-25T21:17:50.000Z</time></trkpt>
        <trkpt lat="28.523972" lon="105.145529"><ele>513.1671</ele><time>2026-03-25T21:17:58.000Z</time></trkpt>
        <trkpt lat="28.523969" lon="105.145464"><ele>513.1138</ele><time>2026-03-25T21:18:05.000Z</time></trkpt>
        <trkpt lat="28.523947" lon="105.145422"><ele>513.89355</ele><time>2026-03-25T21:18:09.000Z</time></trkpt>
        <trkpt lat="28.523903" lon="105.14537"><ele>518.51733</ele><time>2026-03-25T21:18:16.000Z</time></trkpt>
        <trkpt lat="28.523877" lon="105.145312"><ele>519.12933</ele><time>2026-03-25T21:18:26.000Z</time></trkpt>
        <trkpt lat="28.523851" lon="105.145274"><ele>518.1899</ele><time>2026-03-25T21:18:30.000Z</time></trkpt>
        <trkpt lat="28.523832" lon="105.145222"><ele>518.0833</ele><time>2026-03-25T21:18:35.000Z</time></trkpt>
        <trkpt lat="28.523817" lon="105.145158"><ele>518.17426</ele><time>2026-03-25T21:18:43.000Z</time></trkpt>
        <trkpt lat="28.523774" lon="105.14516"><ele>519.74</ele><time>2026-03-25T21:18:53.000Z</time></trkpt>
        <trkpt lat="28.523709" lon="105.145222"><ele>535.5369</ele><time>2026-03-25T21:19:11.000Z</time></trkpt>
        <trkpt lat="28.523752" lon="105.145225"><ele>540.6274</ele><time>2026-03-25T21:19:21.000Z</time></trkpt>
        <trkpt lat="28.523772" lon="105.145172"><ele>539.0541</ele><time>2026-03-25T21:19:36.000Z</time></trkpt>
        <trkpt lat="28.523743" lon="105.145132"><ele>541.3266</ele><time>2026-03-25T21:19:46.000Z</time></trkpt>
        <trkpt lat="28.523814" lon="105.145164"><ele>545.7312</ele><time>2026-03-25T21:20:05.000Z</time></trkpt>
        <trkpt lat="28.523765" lon="105.145157"><ele>546.7919</ele><time>2026-03-25T21:20:14.000Z</time></trkpt>
        <trkpt lat="28.52379" lon="105.145146"><ele>547.0628</ele><time>2026-03-25T21:20:25.000Z</time></trkpt>
        <trkpt lat="28.523799" lon="105.145197"><ele>543.7398</ele><time>2026-03-25T21:20:53.000Z</time></trkpt>
        <trkpt lat="28.523816" lon="105.145152"><ele>541.233</ele><time>2026-03-25T21:21:18.000Z</time></trkpt>
        <trkpt lat="28.523751" lon="105.145103"><ele>534.4112</ele><time>2026-03-25T21:21:33.000Z</time></trkpt>
        <trkpt lat="28.523726" lon="105.145151"><ele>533.631</ele><time>2026-03-25T21:21:40.000Z</time></trkpt>
        <trkpt lat="28.523695" lon="105.145187"><ele>537.6853</ele><time>2026-03-25T21:21:45.000Z</time></trkpt>
        <trkpt lat="28.523673" lon="105.145226"><ele>540.1051</ele><time>2026-03-25T21:21:48.000Z</time></trkpt>
        <trkpt lat="28.523643" lon="105.145278"><ele>542.04266</ele><time>2026-03-25T21:21:53.000Z</time></trkpt>
        <trkpt lat="28.523596" lon="105.145308"><ele>541.69507</ele><time>2026-03-25T21:22:06.000Z</time></trkpt>
        <trkpt lat="28.523558" lon="105.145314"><ele>541.1668</ele><time>2026-03-25T21:22:12.000Z</time></trkpt>
        <trkpt lat="28.523514" lon="105.14535"><ele>541.7111</ele><time>2026-03-25T21:22:20.000Z</time></trkpt>
        <trkpt lat="28.523472" lon="105.145388"><ele>542.4242</ele><time>2026-03-25T21:22:27.000Z</time></trkpt>
        <trkpt lat="28.523445" lon="105.145428"><ele>541.95825</ele><time>2026-03-25T21:22:32.000Z</time></trkpt>
        <trkpt lat="28.523409" lon="105.145454"><ele>541.59357</ele><time>2026-03-25T21:22:35.000Z</time></trkpt>
        <trkpt lat="28.523364" lon="105.145495"><ele>541.0812</ele><time>2026-03-25T21:22:40.000Z</time></trkpt>
        <trkpt lat="28.523324" lon="105.14554"><ele>541.3587</ele><time>2026-03-25T21:22:45.000Z</time></trkpt>
        <trkpt lat="28.52327" lon="105.145549"><ele>542.68005</ele><time>2026-03-25T21:22:55.000Z</time></trkpt>
        <trkpt lat="28.523229" lon="105.145529"><ele>545.2666</ele><time>2026-03-25T21:23:03.000Z</time></trkpt>
        <trkpt lat="28.523193" lon="105.145508"><ele>547.0442</ele><time>2026-03-25T21:23:07.000Z</time></trkpt>
        <trkpt lat="28.523167" lon="105.145453"><ele>550.2708</ele><time>2026-03-25T21:23:14.000Z</time></trkpt>
        <trkpt lat="28.52316" lon="105.145393"><ele>552.00006</ele><time>2026-03-25T21:23:23.000Z</time></trkpt>
        <trkpt lat="28.523144" lon="105.145336"><ele>554.7157</ele><time>2026-03-25T21:23:35.000Z</time></trkpt>
        <trkpt lat="28.523102" lon="105.145313"><ele>556.546</ele><time>2026-03-25T21:23:42.000Z</time></trkpt>
        <trkpt lat="28.523054" lon="105.145327"><ele>559.05884</ele><time>2026-03-25T21:23:49.000Z</time></trkpt>
        <trkpt lat="28.523021" lon="105.145292"><ele>560.41486</ele><time>2026-03-25T21:24:00.000Z</time></trkpt>
        <trkpt lat="28.523036" lon="105.145246"><ele>560.7246</ele><time>2026-03-25T21:24:06.000Z</time></trkpt>
        <trkpt lat="28.523067" lon="105.145204"><ele>561.6286</ele><time>2026-03-25T21:24:11.000Z</time></trkpt>
        <trkpt lat="28.5231" lon="105.145163"><ele>562.6582</ele><time>2026-03-25T21:24:16.000Z</time></trkpt>
        <trkpt lat="28.523154" lon="105.145141"><ele>565.0684</ele><time>2026-03-25T21:24:31.000Z</time></trkpt>
      </trkseg>
      <trkseg>
        <trkpt lat="28.523188" lon="105.145059"><ele>560.85144</ele><time>2026-03-25T21:46:35.000Z</time></trkpt>
        <trkpt lat="28.523159" lon="105.14506"><ele>564.27905</ele><time>2026-03-25T21:46:41.000Z</time></trkpt>
        <trkpt lat="28.523064" lon="105.145073"><ele>573.0937</ele><time>2026-03-25T21:46:46.000Z</time></trkpt>
        <trkpt lat="28.522983" lon="105.145085"><ele>578.9564</ele><time>2026-03-25T21:46:53.000Z</time></trkpt>
        <trkpt lat="28.522937" lon="105.145079"><ele>580.5438</ele><time>2026-03-25T21:47:00.000Z</time></trkpt>
        <trkpt lat="28.52295" lon="105.145029"><ele>581.58826</ele><time>2026-03-25T21:47:06.000Z</time></trkpt>
        <trkpt lat="28.522967" lon="105.144976"><ele>583.71564</ele><time>2026-03-25T21:47:11.000Z</time></trkpt>
        <trkpt lat="28.522975" lon="105.144914"><ele>584.80585</ele><time>2026-03-25T21:47:17.000Z</time></trkpt>
        <trkpt lat="28.523007" lon="105.144873"><ele>587.01666</ele><time>2026-03-25T21:47:26.000Z</time></trkpt>
        <trkpt lat="28.523051" lon="105.144859"><ele>589.3198</ele><time>2026-03-25T21:47:33.000Z</time></trkpt>
        <trkpt lat="28.523089" lon="105.14483"><ele>592.23584</ele><time>2026-03-25T21:47:43.000Z</time></trkpt>
        <trkpt lat="28.523123" lon="105.144801"><ele>594.78577</ele><time>2026-03-25T21:47:50.000Z</time></trkpt>
        <trkpt lat="28.523161" lon="105.144757"><ele>596.159</ele><time>2026-03-25T21:48:01.000Z</time></trkpt>
        <trkpt lat="28.523198" lon="105.144719"><ele>597.495</ele><time>2026-03-25T21:48:13.000Z</time></trkpt>
        <trkpt lat="28.523217" lon="105.144671"><ele>597.3072</ele><time>2026-03-25T21:48:22.000Z</time></trkpt>
        <trkpt lat="28.523201" lon="105.144624"><ele>596.9735</ele><time>2026-03-25T21:48:29.000Z</time></trkpt>
        <trkpt lat="28.523168" lon="105.144574"><ele>597.0848</ele><time>2026-03-25T21:48:38.000Z</time></trkpt>
        <trkpt lat="28.523137" lon="105.144534"><ele>598.1964</ele><time>2026-03-25T21:48:46.000Z</time></trkpt>
        <trkpt lat="28.523117" lon="105.144481"><ele>600.51636</ele><time>2026-03-25T21:48:54.000Z</time></trkpt>
        <trkpt lat="28.523124" lon="105.144524"><ele>602.97797</ele><time>2026-03-25T21:49:05.000Z</time></trkpt>
        <trkpt lat="28.523111" lon="105.144488"><ele>602.6472</ele><time>2026-03-25T21:49:16.000Z</time></trkpt>
        <trkpt lat="28.523112" lon="105.144436"><ele>602.9576</ele><time>2026-03-25T21:49:21.000Z</time></trkpt>
        <trkpt lat="28.523148" lon="105.144389"><ele>605.178</ele><time>2026-03-25T21:50:39.000Z</time></trkpt>
        <trkpt lat="28.523161" lon="105.144356"><ele>606.73126</ele><time>2026-03-25T21:50:45.000Z</time></trkpt>
        <trkpt lat="28.523175" lon="105.1443"><ele>608.21796</ele><time>2026-03-25T21:50:50.000Z</time></trkpt>
        <trkpt lat="28.523197" lon="105.14424"><ele>610.34454</ele><time>2026-03-25T21:50:57.000Z</time></trkpt>
        <trkpt lat="28.523216" lon="105.14419"><ele>611.5587</ele><time>2026-03-25T21:51:03.000Z</time></trkpt>
        <trkpt lat="28.523233" lon="105.144132"><ele>615.40027</ele><time>2026-03-25T21:51:12.000Z</time></trkpt>
        <trkpt lat="28.523243" lon="105.144079"><ele>618.49646</ele><time>2026-03-25T21:51:21.000Z</time></trkpt>
        <trkpt lat="28.523216" lon="105.144027"><ele>620.33405</ele><time>2026-03-25T21:51:32.000Z</time></trkpt>
        <trkpt lat="28.523189" lon="105.143994"><ele>620.33057</ele><time>2026-03-25T21:51:36.000Z</time></trkpt>
        <trkpt lat="28.523183" lon="105.14393"><ele>622.03687</ele><time>2026-03-25T21:51:43.000Z</time></trkpt>
        <trkpt lat="28.523213" lon="105.143884"><ele>624.52936</ele><time>2026-03-25T21:51:50.000Z</time></trkpt>
        <trkpt lat="28.523213" lon="105.143836"><ele>626.8385</ele><time>2026-03-25T21:51:56.000Z</time></trkpt>
        <trkpt lat="28.523193" lon="105.143781"><ele>629.1218</ele><time>2026-03-25T21:52:04.000Z</time></trkpt>
        <trkpt lat="28.523175" lon="105.143721"><ele>629.3351</ele><time>2026-03-25T21:52:15.000Z</time></trkpt>
        <trkpt lat="28.52316" lon="105.143674"><ele>630.42694</ele><time>2026-03-25T21:52:20.000Z</time></trkpt>
        <trkpt lat="28.523146" lon="105.14362"><ele>631.4803</ele><time>2026-03-25T21:52:26.000Z</time></trkpt>
        <trkpt lat="28.523124" lon="105.14357"><ele>632.7799</ele><time>2026-03-25T21:52:34.000Z</time></trkpt>
        <trkpt lat="28.523117" lon="105.143518"><ele>636.05524</ele><time>2026-03-25T21:52:52.000Z</time></trkpt>
        <trkpt lat="28.523102" lon="105.14348"><ele>636.6257</ele><time>2026-03-25T21:52:59.000Z</time></trkpt>
        <trkpt lat="28.523101" lon="105.143522"><ele>636.4792</ele><time>2026-03-25T21:53:18.000Z</time></trkpt>
        <trkpt lat="28.523105" lon="105.14347"><ele>638.10364</ele><time>2026-03-25T21:53:55.000Z</time></trkpt>
        <trkpt lat="28.523074" lon="105.143505"><ele>640.64307</ele><time>2026-03-25T21:54:23.000Z</time></trkpt>
        <trkpt lat="28.523029" lon="105.143504"><ele>639.74194</ele><time>2026-03-25T21:54:34.000Z</time></trkpt>
        <trkpt lat="28.522982" lon="105.143501"><ele>638.65607</ele><time>2026-03-25T21:54:41.000Z</time></trkpt>
        <trkpt lat="28.522972" lon="105.143471"><ele>637.5513</ele><time>2026-03-25T21:54:43.000Z</time></trkpt>
        <trkpt lat="28.522939" lon="105.143426"><ele>635.5556</ele><time>2026-03-25T21:54:47.000Z</time></trkpt>
        <trkpt lat="28.522897" lon="105.14341"><ele>633.97314</ele><time>2026-03-25T21:54:50.000Z</time></trkpt>
        <trkpt lat="28.522836" lon="105.143382"><ele>632.0582</ele><time>2026-03-25T21:54:55.000Z</time></trkpt>
        <trkpt lat="28.522808" lon="105.143342"><ele>630.1002</ele><time>2026-03-25T21:54:58.000Z</time></trkpt>
        <trkpt lat="28.522802" lon="105.143274"><ele>628.9869</ele><time>2026-03-25T21:55:03.000Z</time></trkpt>
        <trkpt lat="28.522832" lon="105.143209"><ele>629.99884</ele><time>2026-03-25T21:55:36.000Z</time></trkpt>
        <trkpt lat="28.522876" lon="105.143234"><ele>629.7944</ele><time>2026-03-25T21:55:47.000Z</time></trkpt>
        <trkpt lat="28.522912" lon="105.143245"><ele>629.45593</ele><time>2026-03-25T21:55:51.000Z</time></trkpt>
        <trkpt lat="28.522964" lon="105.143261"><ele>630.0206</ele><time>2026-03-25T21:55:56.000Z</time></trkpt>
        <trkpt lat="28.523008" lon="105.143291"><ele>631.17993</ele><time>2026-03-25T21:56:00.000Z</time></trkpt>
        <trkpt lat="28.523049" lon="105.143323"><ele>632.8772</ele><time>2026-03-25T21:56:04.000Z</time></trkpt>
        <trkpt lat="28.523079" lon="105.143371"><ele>634.0421</ele><time>2026-03-25T21:56:09.000Z</time></trkpt>
        <trkpt lat="28.523097" lon="105.143422"><ele>635.5587</ele><time>2026-03-25T21:56:14.000Z</time></trkpt>
        <trkpt lat="28.523127" lon="105.14352"><ele>644.4637</ele><time>2026-03-25T21:56:33.000Z</time></trkpt>
        <trkpt lat="28.52311" lon="105.143469"><ele>635.9686</ele><time>2026-03-25T21:58:24.000Z</time></trkpt>
        <trkpt lat="28.523101" lon="105.143502"><ele>633.627</ele><time>2026-03-25T21:58:30.000Z</time></trkpt>
        <trkpt lat="28.523112" lon="105.143469"><ele>633.97797</ele><time>2026-03-25T22:04:26.000Z</time></trkpt>
        <trkpt lat="28.523104" lon="105.143413"><ele>635.0185</ele><time>2026-03-25T22:04:34.000Z</time></trkpt>
        <trkpt lat="28.523054" lon="105.143392"><ele>635.4431</ele><time>2026-03-25T22:04:42.000Z</time></trkpt>
        <trkpt lat="28.523014" lon="105.143366"><ele>636.9849</ele><time>2026-03-25T22:04:48.000Z</time></trkpt>
        <trkpt lat="28.52297" lon="105.14334"><ele>638.0867</ele><time>2026-03-25T22:04:53.000Z</time></trkpt>
        <trkpt lat="28.522929" lon="105.143311"><ele>637.9599</ele><time>2026-03-25T22:04:58.000Z</time></trkpt>
        <trkpt lat="28.522884" lon="105.143283"><ele>638.7469</ele><time>2026-03-25T22:05:04.000Z</time></trkpt>
        <trkpt lat="28.522916" lon="105.143319"><ele>637.9227</ele><time>2026-03-25T22:06:49.000Z</time></trkpt>
        <trkpt lat="28.522956" lon="105.143343"><ele>637.56134</ele><time>2026-03-25T22:06:54.000Z</time></trkpt>
        <trkpt lat="28.522997" lon="105.143366"><ele>637.4086</ele><time>2026-03-25T22:06:58.000Z</time></trkpt>
        <trkpt lat="28.523032" lon="105.143419"><ele>637.7137</ele><time>2026-03-25T22:07:03.000Z</time></trkpt>
        <trkpt lat="28.52303" lon="105.143381"><ele>638.0467</ele><time>2026-03-25T22:07:40.000Z</time></trkpt>
        <trkpt lat="28.52304" lon="105.14342"><ele>637.4489</ele><time>2026-03-25T22:07:53.000Z</time></trkpt>
        <trkpt lat="28.523072" lon="105.143384"><ele>636.2886</ele><time>2026-03-25T22:08:38.000Z</time></trkpt>
        <trkpt lat="28.523073" lon="105.14334"><ele>635.4377</ele><time>2026-03-25T22:08:42.000Z</time></trkpt>
        <trkpt lat="28.52305" lon="105.1433"><ele>634.3391</ele><time>2026-03-25T22:08:46.000Z</time></trkpt>
        <trkpt lat="28.522998" lon="105.143257"><ele>632.3442</ele><time>2026-03-25T22:08:52.000Z</time></trkpt>
        <trkpt lat="28.522954" lon="105.143235"><ele>631.3709</ele><time>2026-03-25T22:08:55.000Z</time></trkpt>
        <trkpt lat="28.522904" lon="105.143222"><ele>630.91614</ele><time>2026-03-25T22:08:58.000Z</time></trkpt>
        <trkpt lat="28.522855" lon="105.143208"><ele>631.0162</ele><time>2026-03-25T22:09:01.000Z</time></trkpt>
        <trkpt lat="28.522805" lon="105.143202"><ele>631.0358</ele><time>2026-03-25T22:09:04.000Z</time></trkpt>
        <trkpt lat="28.522756" lon="105.143194"><ele>630.4725</ele><time>2026-03-25T22:09:07.000Z</time></trkpt>
        <trkpt lat="28.522707" lon="105.14319"><ele>630.1269</ele><time>2026-03-25T22:09:10.000Z</time></trkpt>
        <trkpt lat="28.522677" lon="105.14322"><ele>630.19165</ele><time>2026-03-25T22:09:13.000Z</time></trkpt>
        <trkpt lat="28.522708" lon="105.143237"><ele>632.47003</ele><time>2026-03-25T22:09:21.000Z</time></trkpt>
        <trkpt lat="28.522689" lon="105.143213"><ele>628.00244</ele><time>2026-03-25T22:10:24.000Z</time></trkpt>
        <trkpt lat="28.522649" lon="105.143201"><ele>626.18854</ele><time>2026-03-25T22:10:30.000Z</time></trkpt>
        <trkpt lat="28.522619" lon="105.143185"><ele>626.0422</ele><time>2026-03-25T22:10:32.000Z</time></trkpt>
        <trkpt lat="28.522572" lon="105.143151"><ele>626.5583</ele><time>2026-03-25T22:10:36.000Z</time></trkpt>
        <trkpt lat="28.52253" lon="105.143121"><ele>628.11884</ele><time>2026-03-25T22:10:39.000Z</time></trkpt>
        <trkpt lat="28.522463" lon="105.143083"><ele>631.65436</ele><time>2026-03-25T22:10:52.000Z</time></trkpt>
        <trkpt lat="28.522429" lon="105.143069"><ele>632.2161</ele><time>2026-03-25T22:10:57.000Z</time></trkpt>
        <trkpt lat="28.522387" lon="105.143041"><ele>631.87994</ele><time>2026-03-25T22:11:01.000Z</time></trkpt>
        <trkpt lat="28.522332" lon="105.143026"><ele>632.31067</ele><time>2026-03-25T22:11:07.000Z</time></trkpt>
        <trkpt lat="28.522383" lon="105.143063"><ele>631.23016</ele><time>2026-03-25T22:11:40.000Z</time></trkpt>
        <trkpt lat="28.522431" lon="105.143094"><ele>631.07733</ele><time>2026-03-25T22:11:47.000Z</time></trkpt>
        <trkpt lat="28.522455" lon="105.143143"><ele>631.3669</ele><time>2026-03-25T22:11:57.000Z</time></trkpt>
        <trkpt lat="28.522491" lon="105.143133"><ele>630.89746</ele><time>2026-03-25T22:12:02.000Z</time></trkpt>
        <trkpt lat="28.522446" lon="105.143075"><ele>631.1272</ele><time>2026-03-25T22:12:17.000Z</time></trkpt>
        <trkpt lat="28.522401" lon="105.143063"><ele>631.15356</ele><time>2026-03-25T22:12:22.000Z</time></trkpt>
        <trkpt lat="28.522346" lon="105.143068"><ele>633.9366</ele><time>2026-03-25T22:12:33.000Z</time></trkpt>
        <trkpt lat="28.522372" lon="105.143065"><ele>633.4963</ele><time>2026-03-25T22:12:35.000Z</time></trkpt>
        <trkpt lat="28.522426" lon="105.143101"><ele>631.5701</ele><time>2026-03-25T22:12:48.000Z</time></trkpt>
        <trkpt lat="28.522475" lon="105.143085"><ele>631.50085</ele><time>2026-03-25T22:13:02.000Z</time></trkpt>
        <trkpt lat="28.522444" lon="105.143116"><ele>629.43695</ele><time>2026-03-25T22:13:15.000Z</time></trkpt>
        <trkpt lat="28.522425" lon="105.143072"><ele>630.672</ele><time>2026-03-25T22:13:47.000Z</time></trkpt>
        <trkpt lat="28.522408" lon="105.143127"><ele>631.6823</ele><time>2026-03-25T22:13:58.000Z</time></trkpt>
        <trkpt lat="28.522376" lon="105.143173"><ele>632.6485</ele><time>2026-03-25T22:14:05.000Z</time></trkpt>
        <trkpt lat="28.522346" lon="105.143216"><ele>632.9479</ele><time>2026-03-25T22:14:13.000Z</time></trkpt>
        <trkpt lat="28.522313" lon="105.143254"><ele>635.13354</ele><time>2026-03-25T22:14:24.000Z</time></trkpt>
        <trkpt lat="28.522305" lon="105.143307"><ele>636.5101</ele><time>2026-03-25T22:14:31.000Z</time></trkpt>
        <trkpt lat="28.522325" lon="105.143347"><ele>636.74866</ele><time>2026-03-25T22:14:35.000Z</time></trkpt>
        <trkpt lat="28.522349" lon="105.143401"><ele>637.4811</ele><time>2026-03-25T22:14:40.000Z</time></trkpt>
        <trkpt lat="28.522344" lon="105.14345"><ele>638.1757</ele><time>2026-03-25T22:14:44.000Z</time></trkpt>
        <trkpt lat="28.52237" lon="105.143485"><ele>638.10785</ele><time>2026-03-25T22:14:49.000Z</time></trkpt>
        <trkpt lat="28.522393" lon="105.143526"><ele>638.169</ele><time>2026-03-25T22:14:53.000Z</time></trkpt>
        <trkpt lat="28.522384" lon="105.143569"><ele>638.19934</ele><time>2026-03-25T22:14:57.000Z</time></trkpt>
        <trkpt lat="28.522353" lon="105.143606"><ele>638.03186</ele><time>2026-03-25T22:15:00.000Z</time></trkpt>
        <trkpt lat="28.522301" lon="105.143646"><ele>637.2436</ele><time>2026-03-25T22:15:05.000Z</time></trkpt>
        <trkpt lat="28.522246" lon="105.143668"><ele>636.5032</ele><time>2026-03-25T22:15:09.000Z</time></trkpt>
        <trkpt lat="28.522188" lon="105.14369"><ele>636.41736</ele><time>2026-03-25T22:15:13.000Z</time></trkpt>
        <trkpt lat="28.522131" lon="105.14371"><ele>636.589</ele><time>2026-03-25T22:15:18.000Z</time></trkpt>
        <trkpt lat="28.522077" lon="105.143729"><ele>638.08563</ele><time>2026-03-25T22:15:25.000Z</time></trkpt>
        <trkpt lat="28.522042" lon="105.143745"><ele>638.9747</ele><time>2026-03-25T22:15:29.000Z</time></trkpt>
        <trkpt lat="28.522" lon="105.143756"><ele>639.45636</ele><time>2026-03-25T22:15:33.000Z</time></trkpt>
        <trkpt lat="28.521953" lon="105.143776"><ele>638.6818</ele><time>2026-03-25T22:15:38.000Z</time></trkpt>
        <trkpt lat="28.521923" lon="105.143819"><ele>637.5985</ele><time>2026-03-25T22:15:42.000Z</time></trkpt>
        <trkpt lat="28.521891" lon="105.143869"><ele>637.57</ele><time>2026-03-25T22:15:46.000Z</time></trkpt>
        <trkpt lat="28.52185" lon="105.143924"><ele>637.24347</ele><time>2026-03-25T22:15:52.000Z</time></trkpt>
        <trkpt lat="28.521811" lon="105.143912"><ele>636.3147</ele><time>2026-03-25T22:15:58.000Z</time></trkpt>
        <trkpt lat="28.521804" lon="105.143857"><ele>635.4214</ele><time>2026-03-25T22:16:02.000Z</time></trkpt>
        <trkpt lat="28.521784" lon="105.143804"><ele>634.87396</ele><time>2026-03-25T22:16:06.000Z</time></trkpt>
        <trkpt lat="28.521767" lon="105.143747"><ele>634.0709</ele><time>2026-03-25T22:16:10.000Z</time></trkpt>
        <trkpt lat="28.521746" lon="105.143701"><ele>633.6542</ele><time>2026-03-25T22:16:13.000Z</time></trkpt>
        <trkpt lat="28.521691" lon="105.143646"><ele>635.6082</ele><time>2026-03-25T22:16:19.000Z</time></trkpt>
        <trkpt lat="28.521641" lon="105.143619"><ele>636.5643</ele><time>2026-03-25T22:16:23.000Z</time></trkpt>
        <trkpt lat="28.521591" lon="105.143595"><ele>636.8566</ele><time>2026-03-25T22:16:27.000Z</time></trkpt>
        <trkpt lat="28.521539" lon="105.143574"><ele>635.3976</ele><time>2026-03-25T22:16:31.000Z</time></trkpt>
        <trkpt lat="28.521494" lon="105.143549"><ele>633.7266</ele><time>2026-03-25T22:16:35.000Z</time></trkpt>
        <trkpt lat="28.521447" lon="105.143526"><ele>633.40546</ele><time>2026-03-25T22:16:38.000Z</time></trkpt>
        <trkpt lat="28.521394" lon="105.143506"><ele>632.7506</ele><time>2026-03-25T22:16:42.000Z</time></trkpt>
        <trkpt lat="28.521338" lon="105.143486"><ele>632.08844</ele><time>2026-03-25T22:16:47.000Z</time></trkpt>
        <trkpt lat="28.521302" lon="105.143469"><ele>632.3313</ele><time>2026-03-25T22:16:50.000Z</time></trkpt>
        <trkpt lat="28.521273" lon="105.143446"><ele>632.49426</ele><time>2026-03-25T22:16:52.000Z</time></trkpt>
        <trkpt lat="28.521231" lon="105.1434"><ele>632.1546</ele><time>2026-03-25T22:16:56.000Z</time></trkpt>
        <trkpt lat="28.521209" lon="105.143339"><ele>632.80725</ele><time>2026-03-25T22:17:00.000Z</time></trkpt>
        <trkpt lat="28.521229" lon="105.143289"><ele>633.68884</ele><time>2026-03-25T22:17:04.000Z</time></trkpt>
        <trkpt lat="28.521274" lon="105.143243"><ele>634.6685</ele><time>2026-03-25T22:17:08.000Z</time></trkpt>
        <trkpt lat="28.52133" lon="105.143196"><ele>635.01886</ele><time>2026-03-25T22:17:13.000Z</time></trkpt>
        <trkpt lat="28.521375" lon="105.143152"><ele>634.5938</ele><time>2026-03-25T22:17:17.000Z</time></trkpt>
        <trkpt lat="28.521414" lon="105.143115"><ele>634.9051</ele><time>2026-03-25T22:17:20.000Z</time></trkpt>
        <trkpt lat="28.52144" lon="105.14307"><ele>634.8464</ele><time>2026-03-25T22:17:23.000Z</time></trkpt>
        <trkpt lat="28.521437" lon="105.143013"><ele>633.4967</ele><time>2026-03-25T22:17:27.000Z</time></trkpt>
        <trkpt lat="28.5214" lon="105.142962"><ele>633.84674</ele><time>2026-03-25T22:17:31.000Z</time></trkpt>
        <trkpt lat="28.521346" lon="105.142928"><ele>635.2225</ele><time>2026-03-25T22:17:35.000Z</time></trkpt>
        <trkpt lat="28.521298" lon="105.142885"><ele>636.25446</ele><time>2026-03-25T22:17:39.000Z</time></trkpt>
        <trkpt lat="28.521256" lon="105.142845"><ele>637.9681</ele><time>2026-03-25T22:17:43.000Z</time></trkpt>
        <trkpt lat="28.521243" lon="105.142796"><ele>640.17365</ele><time>2026-03-25T22:17:47.000Z</time></trkpt>
        <trkpt lat="28.521255" lon="105.142747"><ele>641.1733</ele><time>2026-03-25T22:17:51.000Z</time></trkpt>
        <trkpt lat="28.52124" lon="105.142701"><ele>640.8907</ele><time>2026-03-25T22:17:57.000Z</time></trkpt>
        <trkpt lat="28.521203" lon="105.142706"><ele>640.54486</ele><time>2026-03-25T22:18:01.000Z</time></trkpt>
        <trkpt lat="28.521155" lon="105.142729"><ele>639.1508</ele><time>2026-03-25T22:18:05.000Z</time></trkpt>
        <trkpt lat="28.521105" lon="105.142747"><ele>638.8217</ele><time>2026-03-25T22:18:09.000Z</time></trkpt>
        <trkpt lat="28.521055" lon="105.142773"><ele>638.7028</ele><time>2026-03-25T22:18:13.000Z</time></trkpt>
        <trkpt lat="28.521006" lon="105.142796"><ele>639.1942</ele><time>2026-03-25T22:18:17.000Z</time></trkpt>
        <trkpt lat="28.520957" lon="105.142802"><ele>640.131</ele><time>2026-03-25T22:18:21.000Z</time></trkpt>
        <trkpt lat="28.520898" lon="105.142801"><ele>640.59924</ele><time>2026-03-25T22:18:31.000Z</time></trkpt>
        <trkpt lat="28.520854" lon="105.142804"><ele>641.34235</ele><time>2026-03-25T22:18:46.000Z</time></trkpt>
        <trkpt lat="28.520809" lon="105.142827"><ele>641.73596</ele><time>2026-03-25T22:19:55.000Z</time></trkpt>
      </trkseg>
      <trkseg>
        <trkpt lat="28.520792" lon="105.142849"><ele>641.55176</ele><time>2026-03-25T22:41:27.000Z</time></trkpt>
        <trkpt lat="28.520789" lon="105.14285"><ele>641.54944</ele><time>2026-03-25T22:41:31.000Z</time></trkpt>
        <trkpt lat="28.520734" lon="105.142868"><ele>641.63513</ele><time>2026-03-25T22:41:36.000Z</time></trkpt>
        <trkpt lat="28.520686" lon="105.142906"><ele>642.3364</ele><time>2026-03-25T22:41:39.000Z</time></trkpt>
        <trkpt lat="28.520715" lon="105.142898"><ele>645.1102</ele><time>2026-03-25T22:42:30.000Z</time></trkpt>
        <trkpt lat="28.520757" lon="105.142861"><ele>645.1529</ele><time>2026-03-25T22:42:34.000Z</time></trkpt>
        <trkpt lat="28.520818" lon="105.142833"><ele>649.05707</ele><time>2026-03-25T22:42:46.000Z</time></trkpt>
        <trkpt lat="28.520768" lon="105.142852"><ele>642.7009</ele><time>2026-03-25T22:44:09.000Z</time></trkpt>
        <trkpt lat="28.520735" lon="105.14286"><ele>641.9342</ele><time>2026-03-25T22:44:13.000Z</time></trkpt>
        <trkpt lat="28.52069" lon="105.142869"><ele>641.92017</ele><time>2026-03-25T22:44:17.000Z</time></trkpt>
        <trkpt lat="28.520648" lon="105.142908"><ele>643.1167</ele><time>2026-03-25T22:44:21.000Z</time></trkpt>
        <trkpt lat="28.520628" lon="105.142954"><ele>643.9474</ele><time>2026-03-25T22:44:24.000Z</time></trkpt>
        <trkpt lat="28.520606" lon="105.143016"><ele>644.0082</ele><time>2026-03-25T22:44:28.000Z</time></trkpt>
        <trkpt lat="28.520597" lon="105.143078"><ele>643.72766</ele><time>2026-03-25T22:44:32.000Z</time></trkpt>
        <trkpt lat="28.520601" lon="105.143136"><ele>643.0079</ele><time>2026-03-25T22:44:36.000Z</time></trkpt>
        <trkpt lat="28.520632" lon="105.143198"><ele>642.67535</ele><time>2026-03-25T22:44:41.000Z</time></trkpt>
        <trkpt lat="28.520662" lon="105.143252"><ele>641.7072</ele><time>2026-03-25T22:44:46.000Z</time></trkpt>
        <trkpt lat="28.520692" lon="105.143296"><ele>641.36395</ele><time>2026-03-25T22:44:50.000Z</time></trkpt>
        <trkpt lat="28.520714" lon="105.143352"><ele>640.84155</ele><time>2026-03-25T22:44:54.000Z</time></trkpt>
        <trkpt lat="28.520717" lon="105.143409"><ele>640.3302</ele><time>2026-03-25T22:44:58.000Z</time></trkpt>
        <trkpt lat="28.520698" lon="105.14346"><ele>640.1741</ele><time>2026-03-25T22:45:02.000Z</time></trkpt>
        <trkpt lat="28.520655" lon="105.143505"><ele>640.0594</ele><time>2026-03-25T22:45:06.000Z</time></trkpt>
        <trkpt lat="28.520594" lon="105.14354"><ele>640.2101</ele><time>2026-03-25T22:45:11.000Z</time></trkpt>
        <trkpt lat="28.520543" lon="105.143556"><ele>640.85126</ele><time>2026-03-25T22:45:15.000Z</time></trkpt>
        <trkpt lat="28.520494" lon="105.143572"><ele>641.10724</ele><time>2026-03-25T22:45:19.000Z</time></trkpt>
        <trkpt lat="28.52044" lon="105.143578"><ele>640.6227</ele><time>2026-03-25T22:45:24.000Z</time></trkpt>
        <trkpt lat="28.520396" lon="105.143564"><ele>640.4932</ele><time>2026-03-25T22:45:28.000Z</time></trkpt>
        <trkpt lat="28.520345" lon="105.143549"><ele>640.6626</ele><time>2026-03-25T22:45:32.000Z</time></trkpt>
        <trkpt lat="28.520294" lon="105.143534"><ele>641.0783</ele><time>2026-03-25T22:45:36.000Z</time></trkpt>
        <trkpt lat="28.520243" lon="105.14353"><ele>642.053</ele><time>2026-03-25T22:45:40.000Z</time></trkpt>
        <trkpt lat="28.520192" lon="105.143529"><ele>643.0289</ele><time>2026-03-25T22:45:44.000Z</time></trkpt>
        <trkpt lat="28.52014" lon="105.143532"><ele>644.0045</ele><time>2026-03-25T22:45:49.000Z</time></trkpt>
        <trkpt lat="28.520099" lon="105.143548"><ele>644.69635</ele><time>2026-03-25T22:45:53.000Z</time></trkpt>
        <trkpt lat="28.520054" lon="105.143529"><ele>645.0954</ele><time>2026-03-25T22:46:09.000Z</time></trkpt>
        <trkpt lat="28.520029" lon="105.143545"><ele>644.49854</ele><time>2026-03-25T22:46:14.000Z</time></trkpt>
        <trkpt lat="28.519969" lon="105.143566"><ele>647.1533</ele><time>2026-03-25T22:46:38.000Z</time></trkpt>
        <trkpt lat="28.519925" lon="105.143573"><ele>648.3854</ele><time>2026-03-25T22:46:42.000Z</time></trkpt>
        <trkpt lat="28.519872" lon="105.143572"><ele>649.12286</ele><time>2026-03-25T22:46:46.000Z</time></trkpt>
        <trkpt lat="28.519818" lon="105.143555"><ele>648.9279</ele><time>2026-03-25T22:46:50.000Z</time></trkpt>
        <trkpt lat="28.51977" lon="105.143527"><ele>648.2553</ele><time>2026-03-25T22:46:54.000Z</time></trkpt>
        <trkpt lat="28.519726" lon="105.143495"><ele>647.2745</ele><time>2026-03-25T22:46:58.000Z</time></trkpt>
        <trkpt lat="28.519686" lon="105.143459"><ele>645.9079</ele><time>2026-03-25T22:47:02.000Z</time></trkpt>
        <trkpt lat="28.519656" lon="105.143413"><ele>644.4128</ele><time>2026-03-25T22:47:06.000Z</time></trkpt>
        <trkpt lat="28.519641" lon="105.143356"><ele>643.5465</ele><time>2026-03-25T22:47:10.000Z</time></trkpt>
        <trkpt lat="28.519621" lon="105.143298"><ele>642.4567</ele><time>2026-03-25T22:47:14.000Z</time></trkpt>
        <trkpt lat="28.519591" lon="105.143253"><ele>641.7701</ele><time>2026-03-25T22:47:18.000Z</time></trkpt>
        <trkpt lat="28.519546" lon="105.143208"><ele>639.245</ele><time>2026-03-25T22:47:27.000Z</time></trkpt>
        <trkpt lat="28.51951" lon="105.143188"><ele>638.4346</ele><time>2026-03-25T22:47:32.000Z</time></trkpt>
        <trkpt lat="28.519471" lon="105.143169"><ele>637.85175</ele><time>2026-03-25T22:47:36.000Z</time></trkpt>
        <trkpt lat="28.519442" lon="105.143113"><ele>634.3271</ele><time>2026-03-25T22:48:18.000Z</time></trkpt>
        <trkpt lat="28.519479" lon="105.143087"><ele>634.3637</ele><time>2026-03-25T22:48:23.000Z</time></trkpt>
        <trkpt lat="28.519511" lon="105.143048"><ele>635.0702</ele><time>2026-03-25T22:48:27.000Z</time></trkpt>
        <trkpt lat="28.519547" lon="105.142995"><ele>637.78314</ele><time>2026-03-25T22:48:34.000Z</time></trkpt>
        <trkpt lat="28.519559" lon="105.142941"><ele>640.2767</ele><time>2026-03-25T22:48:39.000Z</time></trkpt>
        <trkpt lat="28.51957" lon="105.142888"><ele>642.63666</ele><time>2026-03-25T22:48:43.000Z</time></trkpt>
        <trkpt lat="28.519585" lon="105.142837"><ele>644.9267</ele><time>2026-03-25T22:48:47.000Z</time></trkpt>
        <trkpt lat="28.519601" lon="105.142786"><ele>647.79315</ele><time>2026-03-25T22:48:51.000Z</time></trkpt>
        <trkpt lat="28.519616" lon="105.142732"><ele>650.1704</ele><time>2026-03-25T22:48:55.000Z</time></trkpt>
        <trkpt lat="28.519621" lon="105.142667"><ele>651.33185</ele><time>2026-03-25T22:48:59.000Z</time></trkpt>
        <trkpt lat="28.519632" lon="105.1426"><ele>652.4536</ele><time>2026-03-25T22:49:05.000Z</time></trkpt>
        <trkpt lat="28.519661" lon="105.142555"><ele>650.7219</ele><time>2026-03-25T22:49:10.000Z</time></trkpt>
        <trkpt lat="28.519703" lon="105.14252"><ele>649.3968</ele><time>2026-03-25T22:49:15.000Z</time></trkpt>
        <trkpt lat="28.519735" lon="105.142483"><ele>647.96704</ele><time>2026-03-25T22:49:19.000Z</time></trkpt>
        <trkpt lat="28.519774" lon="105.142453"><ele>647.2266</ele><time>2026-03-25T22:49:23.000Z</time></trkpt>
        <trkpt lat="28.519824" lon="105.142409"><ele>647.0493</ele><time>2026-03-25T22:49:29.000Z</time></trkpt>
        <trkpt lat="28.519879" lon="105.142375"><ele>646.9526</ele><time>2026-03-25T22:49:36.000Z</time></trkpt>
        <trkpt lat="28.519911" lon="105.142327"><ele>648.40906</ele><time>2026-03-25T22:49:45.000Z</time></trkpt>
        <trkpt lat="28.519928" lon="105.142285"><ele>649.1109</ele><time>2026-03-25T22:49:49.000Z</time></trkpt>
        <trkpt lat="28.519964" lon="105.142257"><ele>648.9717</ele><time>2026-03-25T22:49:53.000Z</time></trkpt>
        <trkpt lat="28.520016" lon="105.142239"><ele>649.72546</ele><time>2026-03-25T22:49:58.000Z</time></trkpt>
        <trkpt lat="28.520075" lon="105.142245"><ele>649.9525</ele><time>2026-03-25T22:50:03.000Z</time></trkpt>
        <trkpt lat="28.520133" lon="105.142254"><ele>650.7771</ele><time>2026-03-25T22:50:08.000Z</time></trkpt>
        <trkpt lat="28.520178" lon="105.142269"><ele>651.54224</ele><time>2026-03-25T22:50:11.000Z</time></trkpt>
        <trkpt lat="28.520212" lon="105.142251"><ele>652.319</ele><time>2026-03-25T22:50:14.000Z</time></trkpt>
        <trkpt lat="28.520239" lon="105.142213"><ele>653.3948</ele><time>2026-03-25T22:50:17.000Z</time></trkpt>
        <trkpt lat="28.520236" lon="105.142218"><ele>655.8498</ele><time>2026-03-25T22:50:25.000Z</time></trkpt>
        <trkpt lat="28.520199" lon="105.142256"><ele>655.4596</ele><time>2026-03-25T22:50:30.000Z</time></trkpt>
        <trkpt lat="28.520222" lon="105.14224"><ele>654.52246</ele><time>2026-03-25T22:50:46.000Z</time></trkpt>
        <trkpt lat="28.52023" lon="105.142199"><ele>654.34674</ele><time>2026-03-25T22:50:49.000Z</time></trkpt>
        <trkpt lat="28.520247" lon="105.142136"><ele>654.8054</ele><time>2026-03-25T22:50:56.000Z</time></trkpt>
        <trkpt lat="28.520223" lon="105.142176"><ele>655.01825</ele><time>2026-03-25T22:51:08.000Z</time></trkpt>
      </trkseg>
      <trkseg>
        <trkpt lat="28.520209" lon="105.142236"><ele>655.23584</ele><time>2026-03-25T22:51:14.000Z</time></trkpt>
        <trkpt lat="28.520169" lon="105.142256"><ele>652.52295</ele><time>2026-03-25T22:51:29.000Z</time></trkpt>
        <trkpt lat="28.520205" lon="105.142254"><ele>652.395</ele><time>2026-03-25T22:51:41.000Z</time></trkpt>
        <trkpt lat="28.520231" lon="105.14222"><ele>653.25775</ele><time>2026-03-25T22:51:44.000Z</time></trkpt>
        <trkpt lat="28.520246" lon="105.142175"><ele>653.86456</ele><time>2026-03-25T22:51:47.000Z</time></trkpt>
        <trkpt lat="28.520252" lon="105.142104"><ele>653.78564</ele><time>2026-03-25T22:51:52.000Z</time></trkpt>
        <trkpt lat="28.520232" lon="105.142049"><ele>653.0614</ele><time>2026-03-25T22:51:56.000Z</time></trkpt>
        <trkpt lat="28.520213" lon="105.142004"><ele>652.15656</ele><time>2026-03-25T22:51:59.000Z</time></trkpt>
        <trkpt lat="28.520203" lon="105.141936"><ele>651.3295</ele><time>2026-03-25T22:52:03.000Z</time></trkpt>
        <trkpt lat="28.520186" lon="105.141869"><ele>650.50494</ele><time>2026-03-25T22:52:07.000Z</time></trkpt>
        <trkpt lat="28.520163" lon="105.141806"><ele>650.0415</ele><time>2026-03-25T22:52:11.000Z</time></trkpt>
        <trkpt lat="28.520153" lon="105.141743"><ele>649.7631</ele><time>2026-03-25T22:52:15.000Z</time></trkpt>
        <trkpt lat="28.520165" lon="105.141694"><ele>648.47675</ele><time>2026-03-25T22:52:18.000Z</time></trkpt>
        <trkpt lat="28.520166" lon="105.141644"><ele>647.75024</ele><time>2026-03-25T22:52:21.000Z</time></trkpt>
        <trkpt lat="28.520166" lon="105.141576"><ele>647.4583</ele><time>2026-03-25T22:52:25.000Z</time></trkpt>
        <trkpt lat="28.520159" lon="105.141525"><ele>647.70746</ele><time>2026-03-25T22:52:28.000Z</time></trkpt>
        <trkpt lat="28.520149" lon="105.141461"><ele>647.6952</ele><time>2026-03-25T22:52:32.000Z</time></trkpt>
        <trkpt lat="28.52013" lon="105.141403"><ele>647.51105</ele><time>2026-03-25T22:52:36.000Z</time></trkpt>
        <trkpt lat="28.520101" lon="105.14135"><ele>647.2178</ele><time>2026-03-25T22:52:40.000Z</time></trkpt>
        <trkpt lat="28.520077" lon="105.141294"><ele>646.74115</ele><time>2026-03-25T22:52:44.000Z</time></trkpt>
        <trkpt lat="28.520073" lon="105.141235"><ele>645.951</ele><time>2026-03-25T22:52:48.000Z</time></trkpt>
        <trkpt lat="28.520075" lon="105.141177"><ele>645.6625</ele><time>2026-03-25T22:52:52.000Z</time></trkpt>
        <trkpt lat="28.520076" lon="105.141116"><ele>645.3311</ele><time>2026-03-25T22:52:57.000Z</time></trkpt>
        <trkpt lat="28.520088" lon="105.141174"><ele>644.0481</ele><time>2026-03-25T22:53:14.000Z</time></trkpt>
        <trkpt lat="28.520105" lon="105.141142"><ele>642.11273</ele><time>2026-03-25T22:53:26.000Z</time></trkpt>
        <trkpt lat="28.520138" lon="105.141129"><ele>641.5831</ele><time>2026-03-25T22:53:30.000Z</time></trkpt>
        <trkpt lat="28.520178" lon="105.141146"><ele>641.5763</ele><time>2026-03-25T22:53:34.000Z</time></trkpt>
        <trkpt lat="28.520223" lon="105.141179"><ele>641.74243</ele><time>2026-03-25T22:53:38.000Z</time></trkpt>
        <trkpt lat="28.520285" lon="105.141206"><ele>640.9392</ele><time>2026-03-25T22:53:45.000Z</time></trkpt>
        <trkpt lat="28.520327" lon="105.141199"><ele>639.98175</ele><time>2026-03-25T22:53:49.000Z</time></trkpt>
        <trkpt lat="28.520375" lon="105.141191"><ele>639.239</ele><time>2026-03-25T22:53:53.000Z</time></trkpt>
        <trkpt lat="28.520425" lon="105.141191"><ele>638.7195</ele><time>2026-03-25T22:53:57.000Z</time></trkpt>
        <trkpt lat="28.520478" lon="105.141204"><ele>638.79944</ele><time>2026-03-25T22:54:01.000Z</time></trkpt>
        <trkpt lat="28.520544" lon="105.141222"><ele>636.7943</ele><time>2026-03-25T22:54:08.000Z</time></trkpt>
        <trkpt lat="28.52059" lon="105.141229"><ele>634.8916</ele><time>2026-03-25T22:54:15.000Z</time></trkpt>
        <trkpt lat="28.520611" lon="105.141274"><ele>633.79456</ele><time>2026-03-25T22:54:59.000Z</time></trkpt>
        <trkpt lat="28.520635" lon="105.141235"><ele>632.20966</ele><time>2026-03-25T22:55:08.000Z</time></trkpt>
        <trkpt lat="28.520638" lon="105.141175"><ele>630.6134</ele><time>2026-03-25T22:55:13.000Z</time></trkpt>
        <trkpt lat="28.520619" lon="105.141122"><ele>629.3764</ele><time>2026-03-25T22:55:17.000Z</time></trkpt>
        <trkpt lat="28.520588" lon="105.141072"><ele>628.36</ele><time>2026-03-25T22:55:20.000Z</time></trkpt>
        <trkpt lat="28.520554" lon="105.141025"><ele>628.2352</ele><time>2026-03-25T22:55:25.000Z</time></trkpt>
        <trkpt lat="28.520507" lon="105.140989"><ele>628.1783</ele><time>2026-03-25T22:55:29.000Z</time></trkpt>
        <trkpt lat="28.520465" lon="105.140969"><ele>628.2089</ele><time>2026-03-25T22:55:32.000Z</time></trkpt>
        <trkpt lat="28.520408" lon="105.140934"><ele>628.09265</ele><time>2026-03-25T22:55:37.000Z</time></trkpt>
        <trkpt lat="28.520375" lon="105.140893"><ele>628.2288</ele><time>2026-03-25T22:55:41.000Z</time></trkpt>
        <trkpt lat="28.520363" lon="105.140844"><ele>628.0873</ele><time>2026-03-25T22:55:45.000Z</time></trkpt>
        <trkpt lat="28.520368" lon="105.140779"><ele>628.2614</ele><time>2026-03-25T22:55:50.000Z</time></trkpt>
        <trkpt lat="28.520383" lon="105.140719"><ele>628.6896</ele><time>2026-03-25T22:55:54.000Z</time></trkpt>
        <trkpt lat="28.520401" lon="105.140653"><ele>629.0532</ele><time>2026-03-25T22:55:59.000Z</time></trkpt>
        <trkpt lat="28.520429" lon="105.140611"><ele>629.3264</ele><time>2026-03-25T22:56:03.000Z</time></trkpt>
        <trkpt lat="28.52046" lon="105.140564"><ele>629.1162</ele><time>2026-03-25T22:56:08.000Z</time></trkpt>
        <trkpt lat="28.520487" lon="105.140515"><ele>629.8999</ele><time>2026-03-25T22:56:15.000Z</time></trkpt>
        <trkpt lat="28.520506" lon="105.140467"><ele>630.2815</ele><time>2026-03-25T22:56:33.000Z</time></trkpt>
        <trkpt lat="28.520513" lon="105.140418"><ele>629.7939</ele><time>2026-03-25T22:56:46.000Z</time></trkpt>
        <trkpt lat="28.520514" lon="105.140359"><ele>630.3451</ele><time>2026-03-25T22:56:51.000Z</time></trkpt>
        <trkpt lat="28.520494" lon="105.1403"><ele>630.81885</ele><time>2026-03-25T22:56:56.000Z</time></trkpt>
        <trkpt lat="28.520455" lon="105.140259"><ele>630.2911</ele><time>2026-03-25T22:57:00.000Z</time></trkpt>
        <trkpt lat="28.520398" lon="105.140249"><ele>629.69244</ele><time>2026-03-25T22:57:05.000Z</time></trkpt>
        <trkpt lat="28.520343" lon="105.140264"><ele>629.3035</ele><time>2026-03-25T22:57:10.000Z</time></trkpt>
        <trkpt lat="28.520293" lon="105.140272"><ele>629.005</ele><time>2026-03-25T22:57:14.000Z</time></trkpt>
        <trkpt lat="28.520246" lon="105.140282"><ele>629.21564</ele><time>2026-03-25T22:57:18.000Z</time></trkpt>
        <trkpt lat="28.520198" lon="105.140278"><ele>629.7087</ele><time>2026-03-25T22:57:22.000Z</time></trkpt>
        <trkpt lat="28.520153" lon="105.140247"><ele>629.50604</ele><time>2026-03-25T22:57:26.000Z</time></trkpt>
        <trkpt lat="28.520125" lon="105.140194"><ele>629.6133</ele><time>2026-03-25T22:57:30.000Z</time></trkpt>
        <trkpt lat="28.520106" lon="105.140132"><ele>629.591</ele><time>2026-03-25T22:57:34.000Z</time></trkpt>
        <trkpt lat="28.520087" lon="105.140069"><ele>630.5499</ele><time>2026-03-25T22:57:38.000Z</time></trkpt>
        <trkpt lat="28.520076" lon="105.14001"><ele>630.7499</ele><time>2026-03-25T22:57:42.000Z</time></trkpt>
        <trkpt lat="28.52005" lon="105.139954"><ele>629.58417</ele><time>2026-03-25T22:57:47.000Z</time></trkpt>
        <trkpt lat="28.520024" lon="105.139913"><ele>628.5545</ele><time>2026-03-25T22:57:51.000Z</time></trkpt>
        <trkpt lat="28.519989" lon="105.139873"><ele>628.1026</ele><time>2026-03-25T22:57:55.000Z</time></trkpt>
        <trkpt lat="28.519951" lon="105.139833"><ele>627.657</ele><time>2026-03-25T22:57:59.000Z</time></trkpt>
        <trkpt lat="28.519913" lon="105.139791"><ele>626.9414</ele><time>2026-03-25T22:58:03.000Z</time></trkpt>
        <trkpt lat="28.519883" lon="105.139753"><ele>626.6041</ele><time>2026-03-25T22:58:06.000Z</time></trkpt>
        <trkpt lat="28.519844" lon="105.139704"><ele>626.1672</ele><time>2026-03-25T22:58:10.000Z</time></trkpt>
        <trkpt lat="28.519806" lon="105.139655"><ele>625.2798</ele><time>2026-03-25T22:58:14.000Z</time></trkpt>
        <trkpt lat="28.519777" lon="105.139599"><ele>624.8956</ele><time>2026-03-25T22:58:18.000Z</time></trkpt>
        <trkpt lat="28.519735" lon="105.139552"><ele>625.5699</ele><time>2026-03-25T22:58:23.000Z</time></trkpt>
        <trkpt lat="28.519691" lon="105.139518"><ele>626.5005</ele><time>2026-03-25T22:58:28.000Z</time></trkpt>
        <trkpt lat="28.519648" lon="105.13949"><ele>628.5558</ele><time>2026-03-25T22:58:33.000Z</time></trkpt>
        <trkpt lat="28.51961" lon="105.139468"><ele>629.8192</ele><time>2026-03-25T22:58:37.000Z</time></trkpt>
        <trkpt lat="28.519571" lon="105.139424"><ele>630.8015</ele><time>2026-03-25T22:58:43.000Z</time></trkpt>
        <trkpt lat="28.519579" lon="105.139363"><ele>632.53613</ele><time>2026-03-25T22:58:55.000Z</time></trkpt>
        <trkpt lat="28.519611" lon="105.13932"><ele>633.024</ele><time>2026-03-25T22:59:00.000Z</time></trkpt>
        <trkpt lat="28.519645" lon="105.139279"><ele>633.8202</ele><time>2026-03-25T22:59:04.000Z</time></trkpt>
        <trkpt lat="28.51967" lon="105.139229"><ele>634.1918</ele><time>2026-03-25T22:59:08.000Z</time></trkpt>
        <trkpt lat="28.519675" lon="105.139167"><ele>634.1096</ele><time>2026-03-25T22:59:12.000Z</time></trkpt>
        <trkpt lat="28.519669" lon="105.139104"><ele>634.1932</ele><time>2026-03-25T22:59:16.000Z</time></trkpt>
        <trkpt lat="28.519659" lon="105.139037"><ele>633.5759</ele><time>2026-03-25T22:59:21.000Z</time></trkpt>
        <trkpt lat="28.519646" lon="105.138981"><ele>633.2124</ele><time>2026-03-25T22:59:25.000Z</time></trkpt>
        <trkpt lat="28.519622" lon="105.138929"><ele>632.03345</ele><time>2026-03-25T22:59:30.000Z</time></trkpt>
        <trkpt lat="28.519617" lon="105.138876"><ele>632.45734</ele><time>2026-03-25T22:59:34.000Z</time></trkpt>
        <trkpt lat="28.519614" lon="105.138821"><ele>632.9912</ele><time>2026-03-25T22:59:38.000Z</time></trkpt>
        <trkpt lat="28.519611" lon="105.138768"><ele>633.981</ele><time>2026-03-25T22:59:42.000Z</time></trkpt>
        <trkpt lat="28.519615" lon="105.138713"><ele>633.96063</ele><time>2026-03-25T22:59:46.000Z</time></trkpt>
        <trkpt lat="28.519618" lon="105.138655"><ele>634.0577</ele><time>2026-03-25T22:59:50.000Z</time></trkpt>
        <trkpt lat="28.519623" lon="105.138601"><ele>633.58594</ele><time>2026-03-25T22:59:54.000Z</time></trkpt>
        <trkpt lat="28.519635" lon="105.138545"><ele>633.6785</ele><time>2026-03-25T22:59:58.000Z</time></trkpt>
        <trkpt lat="28.519643" lon="105.138487"><ele>634.2302</ele><time>2026-03-25T23:00:02.000Z</time></trkpt>
        <trkpt lat="28.519646" lon="105.138428"><ele>634.32074</ele><time>2026-03-25T23:00:06.000Z</time></trkpt>
        <trkpt lat="28.519634" lon="105.13837"><ele>634.4456</ele><time>2026-03-25T23:00:10.000Z</time></trkpt>
        <trkpt lat="28.519614" lon="105.138309"><ele>634.78424</ele><time>2026-03-25T23:00:15.000Z</time></trkpt>
        <trkpt lat="28.519602" lon="105.138251"><ele>635.68365</ele><time>2026-03-25T23:00:24.000Z</time></trkpt>
        <trkpt lat="28.519556" lon="105.138225"><ele>636.9833</ele><time>2026-03-25T23:00:30.000Z</time></trkpt>
      </trkseg>
      <trkseg>
        <trkpt lat="28.519579" lon="105.138271"><ele>637.85535</ele><time>2026-03-25T23:00:56.000Z</time></trkpt>
        <trkpt lat="28.519585" lon="105.138278"><ele>637.83606</ele><time>2026-03-25T23:01:01.000Z</time></trkpt>
        <trkpt lat="28.519631" lon="105.138342"><ele>637.7665</ele><time>2026-03-25T23:01:06.000Z</time></trkpt>
        <trkpt lat="28.519608" lon="105.138359"><ele>634.03015</ele><time>2026-03-25T23:01:28.000Z</time></trkpt>
      </trkseg>
      <trkseg>
        <trkpt lat="28.519263" lon="105.13745"><ele>651.2531</ele><time>2026-03-25T23:40:29.000Z</time></trkpt>
        <trkpt lat="28.519208" lon="105.137464"><ele>650.9601</ele><time>2026-03-25T23:40:53.000Z</time></trkpt>
        <trkpt lat="28.51918" lon="105.137496"><ele>652.516</ele><time>2026-03-25T23:40:57.000Z</time></trkpt>
        <trkpt lat="28.519146" lon="105.137528"><ele>655.51495</ele><time>2026-03-25T23:41:01.000Z</time></trkpt>
        <trkpt lat="28.519117" lon="105.137508"><ele>655.07043</ele><time>2026-03-25T23:41:06.000Z</time></trkpt>
        <trkpt lat="28.519092" lon="105.137455"><ele>654.2766</ele><time>2026-03-25T23:41:10.000Z</time></trkpt>
        <trkpt lat="28.519064" lon="105.137392"><ele>653.0421</ele><time>2026-03-25T23:41:14.000Z</time></trkpt>
        <trkpt lat="28.519036" lon="105.137332"><ele>651.6047</ele><time>2026-03-25T23:41:18.000Z</time></trkpt>
        <trkpt lat="28.519016" lon="105.137271"><ele>650.8835</ele><time>2026-03-25T23:41:22.000Z</time></trkpt>
        <trkpt lat="28.519" lon="105.137215"><ele>650.8849</ele><time>2026-03-25T23:41:26.000Z</time></trkpt>
        <trkpt lat="28.518987" lon="105.137158"><ele>651.171</ele><time>2026-03-25T23:41:30.000Z</time></trkpt>
        <trkpt lat="28.518981" lon="105.137101"><ele>652.1648</ele><time>2026-03-25T23:41:34.000Z</time></trkpt>
        <trkpt lat="28.518972" lon="105.137052"><ele>652.90955</ele><time>2026-03-25T23:41:37.000Z</time></trkpt>
        <trkpt lat="28.518954" lon="105.137011"><ele>653.0664</ele><time>2026-03-25T23:41:39.000Z</time></trkpt>
        <trkpt lat="28.518902" lon="105.136949"><ele>653.1194</ele><time>2026-03-25T23:41:48.000Z</time></trkpt>
        <trkpt lat="28.518861" lon="105.136948"><ele>652.1034</ele><time>2026-03-25T23:41:52.000Z</time></trkpt>
        <trkpt lat="28.518815" lon="105.136926"><ele>652.56055</ele><time>2026-03-25T23:41:57.000Z</time></trkpt>
        <trkpt lat="28.518804" lon="105.136885"><ele>653.0946</ele><time>2026-03-25T23:42:01.000Z</time></trkpt>
        <trkpt lat="28.518798" lon="105.136825"><ele>653.6134</ele><time>2026-03-25T23:42:06.000Z</time></trkpt>
        <trkpt lat="28.518768" lon="105.136831"><ele>655.08795</ele><time>2026-03-25T23:42:15.000Z</time></trkpt>
        <trkpt lat="28.518737" lon="105.136882"><ele>657.1019</ele><time>2026-03-25T23:42:21.000Z</time></trkpt>
        <trkpt lat="28.518722" lon="105.13694"><ele>659.9982</ele><time>2026-03-25T23:42:27.000Z</time></trkpt>
        <trkpt lat="28.5187" lon="105.13699"><ele>662.2996</ele><time>2026-03-25T23:42:33.000Z</time></trkpt>
        <trkpt lat="28.518672" lon="105.137036"><ele>663.31635</ele><time>2026-03-25T23:42:38.000Z</time></trkpt>
        <trkpt lat="28.518636" lon="105.13709"><ele>665.86804</ele><time>2026-03-25T23:42:43.000Z</time></trkpt>
        <trkpt lat="28.518614" lon="105.137146"><ele>667.7977</ele><time>2026-03-25T23:42:47.000Z</time></trkpt>
        <trkpt lat="28.518585" lon="105.137208"><ele>668.01263</ele><time>2026-03-25T23:42:52.000Z</time></trkpt>
        <trkpt lat="28.518566" lon="105.137259"><ele>668.6654</ele><time>2026-03-25T23:42:56.000Z</time></trkpt>
        <trkpt lat="28.518536" lon="105.137306"><ele>668.32605</ele><time>2026-03-25T23:43:02.000Z</time></trkpt>
        <trkpt lat="28.518497" lon="105.137336"><ele>668.6309</ele><time>2026-03-25T23:43:07.000Z</time></trkpt>
        <trkpt lat="28.518449" lon="105.137331"><ele>668.00684</ele><time>2026-03-25T23:43:12.000Z</time></trkpt>
        <trkpt lat="28.51841" lon="105.137304"><ele>668.4867</ele><time>2026-03-25T23:43:16.000Z</time></trkpt>
        <trkpt lat="28.518358" lon="105.137281"><ele>668.9312</ele><time>2026-03-25T23:43:21.000Z</time></trkpt>
        <trkpt lat="28.51833" lon="105.137248"><ele>670.19183</ele><time>2026-03-25T23:43:24.000Z</time></trkpt>
        <trkpt lat="28.518286" lon="105.137203"><ele>671.60376</ele><time>2026-03-25T23:43:29.000Z</time></trkpt>
        <trkpt lat="28.518248" lon="105.137194"><ele>672.7497</ele><time>2026-03-25T23:43:32.000Z</time></trkpt>
        <trkpt lat="28.518199" lon="105.137202"><ele>674.3612</ele><time>2026-03-25T23:43:36.000Z</time></trkpt>
        <trkpt lat="28.518145" lon="105.137195"><ele>674.2059</ele><time>2026-03-25T23:43:41.000Z</time></trkpt>
        <trkpt lat="28.518102" lon="105.137173"><ele>672.8959</ele><time>2026-03-25T23:43:45.000Z</time></trkpt>
        <trkpt lat="28.518061" lon="105.137147"><ele>671.6274</ele><time>2026-03-25T23:43:48.000Z</time></trkpt>
        <trkpt lat="28.518011" lon="105.137122"><ele>670.99963</ele><time>2026-03-25T23:43:52.000Z</time></trkpt>
        <trkpt lat="28.517964" lon="105.137106"><ele>670.4908</ele><time>2026-03-25T23:43:55.000Z</time></trkpt>
        <trkpt lat="28.517911" lon="105.137072"><ele>670.00665</ele><time>2026-03-25T23:44:00.000Z</time></trkpt>
        <trkpt lat="28.51787" lon="105.137031"><ele>669.30145</ele><time>2026-03-25T23:44:05.000Z</time></trkpt>
        <trkpt lat="28.517831" lon="105.136998"><ele>667.80505</ele><time>2026-03-25T23:44:11.000Z</time></trkpt>
        <trkpt lat="28.517807" lon="105.136954"><ele>666.111</ele><time>2026-03-25T23:44:21.000Z</time></trkpt>
        <trkpt lat="28.517787" lon="105.136906"><ele>667.30914</ele><time>2026-03-25T23:44:33.000Z</time></trkpt>
        <trkpt lat="28.517787" lon="105.136839"><ele>670.25574</ele><time>2026-03-25T23:44:51.000Z</time></trkpt>
        <trkpt lat="28.517819" lon="105.136797"><ele>673.2366</ele><time>2026-03-25T23:45:07.000Z</time></trkpt>
        <trkpt lat="28.51786" lon="105.13676"><ele>670.8689</ele><time>2026-03-25T23:45:23.000Z</time></trkpt>
        <trkpt lat="28.51786" lon="105.136712"><ele>670.58484</ele><time>2026-03-25T23:45:31.000Z</time></trkpt>
        <trkpt lat="28.517875" lon="105.136659"><ele>671.7417</ele><time>2026-03-25T23:46:01.000Z</time></trkpt>
        <trkpt lat="28.517872" lon="105.136714"><ele>674.41833</ele><time>2026-03-25T23:48:49.000Z</time></trkpt>
        <trkpt lat="28.517899" lon="105.136742"><ele>673.83594</ele><time>2026-03-25T23:48:56.000Z</time></trkpt>
        <trkpt lat="28.517933" lon="105.136777"><ele>673.6093</ele><time>2026-03-25T23:49:00.000Z</time></trkpt>
        <trkpt lat="28.517967" lon="105.136825"><ele>673.8516</ele><time>2026-03-25T23:49:04.000Z</time></trkpt>
        <trkpt lat="28.518002" lon="105.136873"><ele>674.84467</ele><time>2026-03-25T23:49:09.000Z</time></trkpt>
        <trkpt lat="28.517991" lon="105.136827"><ele>674.31165</ele><time>2026-03-25T23:49:20.000Z</time></trkpt>
        <trkpt lat="28.517948" lon="105.13678"><ele>673.0135</ele><time>2026-03-25T23:49:26.000Z</time></trkpt>
        <trkpt lat="28.517908" lon="105.136747"><ele>672.41675</ele><time>2026-03-25T23:49:31.000Z</time></trkpt>
        <trkpt lat="28.517855" lon="105.136748"><ele>671.32324</ele><time>2026-03-25T23:49:37.000Z</time></trkpt>
        <trkpt lat="28.51781" lon="105.136738"><ele>670.29865</ele><time>2026-03-25T23:49:42.000Z</time></trkpt>
        <trkpt lat="28.517749" lon="105.136723"><ele>669.23315</ele><time>2026-03-25T23:49:52.000Z</time></trkpt>
        <trkpt lat="28.517706" lon="105.136744"><ele>670.6199</ele><time>2026-03-25T23:49:58.000Z</time></trkpt>
        <trkpt lat="28.51766" lon="105.136766"><ele>673.5672</ele><time>2026-03-25T23:50:03.000Z</time></trkpt>
        <trkpt lat="28.517599" lon="105.136783"><ele>675.0746</ele><time>2026-03-25T23:50:11.000Z</time></trkpt>
        <trkpt lat="28.517564" lon="105.136826"><ele>674.5823</ele><time>2026-03-25T23:50:17.000Z</time></trkpt>
        <trkpt lat="28.517529" lon="105.136873"><ele>674.4686</ele><time>2026-03-25T23:50:23.000Z</time></trkpt>
        <trkpt lat="28.517506" lon="105.13692"><ele>675.5971</ele><time>2026-03-25T23:50:28.000Z</time></trkpt>
        <trkpt lat="28.517477" lon="105.13697"><ele>674.9499</ele><time>2026-03-25T23:50:34.000Z</time></trkpt>
        <trkpt lat="28.517419" lon="105.136966"><ele>673.4116</ele><time>2026-03-25T23:50:47.000Z</time></trkpt>
        <trkpt lat="28.517383" lon="105.136928"><ele>673.18823</ele><time>2026-03-25T23:50:52.000Z</time></trkpt>
        <trkpt lat="28.517362" lon="105.136874"><ele>674.38556</ele><time>2026-03-25T23:50:57.000Z</time></trkpt>
        <trkpt lat="28.517348" lon="105.136812"><ele>673.6838</ele><time>2026-03-25T23:51:03.000Z</time></trkpt>
        <trkpt lat="28.517322" lon="105.136776"><ele>673.5376</ele><time>2026-03-25T23:51:07.000Z</time></trkpt>
        <trkpt lat="28.517292" lon="105.136745"><ele>673.0122</ele><time>2026-03-25T23:51:10.000Z</time></trkpt>
        <trkpt lat="28.517228" lon="105.136713"><ele>670.6959</ele><time>2026-03-25T23:51:18.000Z</time></trkpt>
        <trkpt lat="28.517178" lon="105.136704"><ele>669.83984</ele><time>2026-03-25T23:51:23.000Z</time></trkpt>
        <trkpt lat="28.517123" lon="105.136695"><ele>671.3669</ele><time>2026-03-25T23:51:29.000Z</time></trkpt>
        <trkpt lat="28.517072" lon="105.136703"><ele>690.61835</ele><time>2026-03-25T23:52:13.000Z</time></trkpt>
        <trkpt lat="28.517051" lon="105.136737"><ele>687.8618</ele><time>2026-03-25T23:52:21.000Z</time></trkpt>
        <trkpt lat="28.516999" lon="105.136765"><ele>688.33466</ele><time>2026-03-25T23:52:40.000Z</time></trkpt>
        <trkpt lat="28.516959" lon="105.13674"><ele>693.49744</ele><time>2026-03-25T23:53:54.000Z</time></trkpt>
        <trkpt lat="28.516957" lon="105.136797"><ele>686.5954</ele><time>2026-03-25T23:56:44.000Z</time></trkpt>
        <trkpt lat="28.516926" lon="105.136759"><ele>688.26086</ele><time>2026-03-25T23:57:01.000Z</time></trkpt>
        <trkpt lat="28.516881" lon="105.136738"><ele>689.12604</ele><time>2026-03-25T23:57:17.000Z</time></trkpt>
        <trkpt lat="28.516841" lon="105.136744"><ele>684.91003</ele><time>2026-03-25T23:57:23.000Z</time></trkpt>
        <trkpt lat="28.516792" lon="105.136748"><ele>680.69684</ele><time>2026-03-25T23:57:28.000Z</time></trkpt>
        <trkpt lat="28.516739" lon="105.136763"><ele>676.4459</ele><time>2026-03-25T23:57:33.000Z</time></trkpt>
        <trkpt lat="28.516693" lon="105.136793"><ele>673.88654</ele><time>2026-03-25T23:57:37.000Z</time></trkpt>
        <trkpt lat="28.516638" lon="105.136803"><ele>671.3825</ele><time>2026-03-25T23:57:41.000Z</time></trkpt>
        <trkpt lat="28.516592" lon="105.136806"><ele>669.9834</ele><time>2026-03-25T23:57:44.000Z</time></trkpt>
        <trkpt lat="28.516532" lon="105.136814"><ele>669.8231</ele><time>2026-03-25T23:57:48.000Z</time></trkpt>
        <trkpt lat="28.516476" lon="105.136814"><ele>671.2375</ele><time>2026-03-25T23:57:52.000Z</time></trkpt>
        <trkpt lat="28.516421" lon="105.136796"><ele>673.2511</ele><time>2026-03-25T23:57:57.000Z</time></trkpt>
        <trkpt lat="28.516372" lon="105.136773"><ele>672.7789</ele><time>2026-03-25T23:58:05.000Z</time></trkpt>
        <trkpt lat="28.516342" lon="105.136752"><ele>671.0337</ele><time>2026-03-25T23:58:09.000Z</time></trkpt>
        <trkpt lat="28.516281" lon="105.136715"><ele>654.986</ele><time>2026-03-26T00:06:08.000Z</time></trkpt>
        <trkpt lat="28.516321" lon="105.136738"><ele>663.43665</ele><time>2026-03-26T00:07:53.000Z</time></trkpt>
        <trkpt lat="28.51627" lon="105.136717"><ele>656.4691</ele><time>2026-03-26T00:14:05.000Z</time></trkpt>
        <trkpt lat="28.516226" lon="105.136726"><ele>654.92847</ele><time>2026-03-26T00:14:32.000Z</time></trkpt>
        <trkpt lat="28.516184" lon="105.136699"><ele>639.37146</ele><time>2026-03-26T00:15:17.000Z</time></trkpt>
        <trkpt lat="28.516158" lon="105.136659"><ele>639.2406</ele><time>2026-03-26T00:15:35.000Z</time></trkpt>
        <trkpt lat="28.516109" lon="105.136632"><ele>636.7296</ele><time>2026-03-26T00:15:52.000Z</time></trkpt>
        <trkpt lat="28.516071" lon="105.136603"><ele>634.85724</ele><time>2026-03-26T00:16:12.000Z</time></trkpt>
        <trkpt lat="28.516035" lon="105.136582"><ele>634.5415</ele><time>2026-03-26T00:16:18.000Z</time></trkpt>
        <trkpt lat="28.51599" lon="105.13655"><ele>633.2561</ele><time>2026-03-26T00:16:28.000Z</time></trkpt>
        <trkpt lat="28.515957" lon="105.13651"><ele>631.89</ele><time>2026-03-26T00:16:34.000Z</time></trkpt>
        <trkpt lat="28.515923" lon="105.136473"><ele>631.3549</ele><time>2026-03-26T00:16:38.000Z</time></trkpt>
        <trkpt lat="28.515883" lon="105.136433"><ele>631.22595</ele><time>2026-03-26T00:16:42.000Z</time></trkpt>
        <trkpt lat="28.515844" lon="105.136386"><ele>630.8827</ele><time>2026-03-26T00:16:47.000Z</time></trkpt>
        <trkpt lat="28.515812" lon="105.136336"><ele>631.7976</ele><time>2026-03-26T00:16:54.000Z</time></trkpt>
        <trkpt lat="28.515784" lon="105.136299"><ele>631.9906</ele><time>2026-03-26T00:17:00.000Z</time></trkpt>
        <trkpt lat="28.515762" lon="105.13623"><ele>633.1975</ele><time>2026-03-26T00:17:08.000Z</time></trkpt>
        <trkpt lat="28.515752" lon="105.136169"><ele>633.2547</ele><time>2026-03-26T00:17:15.000Z</time></trkpt>
        <trkpt lat="28.515732" lon="105.136119"><ele>633.7199</ele><time>2026-03-26T00:17:20.000Z</time></trkpt>
        <trkpt lat="28.515693" lon="105.136068"><ele>634.43555</ele><time>2026-03-26T00:17:26.000Z</time></trkpt>
        <trkpt lat="28.51566" lon="105.136021"><ele>636.6778</ele><time>2026-03-26T00:17:39.000Z</time></trkpt>
        <trkpt lat="28.51563" lon="105.135983"><ele>636.4237</ele><time>2026-03-26T00:18:04.000Z</time></trkpt>
        <trkpt lat="28.515599" lon="105.135958"><ele>635.7419</ele><time>2026-03-26T00:18:10.000Z</time></trkpt>
        <trkpt lat="28.51558" lon="105.135911"><ele>635.66876</ele><time>2026-03-26T00:18:16.000Z</time></trkpt>
        <trkpt lat="28.515541" lon="105.135931"><ele>636.0629</ele><time>2026-03-26T00:18:43.000Z</time></trkpt>
        <trkpt lat="28.515505" lon="105.135904"><ele>633.4325</ele><time>2026-03-26T00:19:10.000Z</time></trkpt>
        <trkpt lat="28.51547" lon="105.135876"><ele>633.49945</ele><time>2026-03-26T00:19:16.000Z</time></trkpt>
        <trkpt lat="28.515421" lon="105.135862"><ele>633.6711</ele><time>2026-03-26T00:19:22.000Z</time></trkpt>
        <trkpt lat="28.515369" lon="105.135847"><ele>633.9171</ele><time>2026-03-26T00:19:27.000Z</time></trkpt>
        <trkpt lat="28.51536" lon="105.135791"><ele>629.18976</ele><time>2026-03-26T00:19:55.000Z</time></trkpt>
        <trkpt lat="28.515403" lon="105.135816"><ele>630.43427</ele><time>2026-03-26T00:20:43.000Z</time></trkpt>
        <trkpt lat="28.515452" lon="105.135827"><ele>631.8181</ele><time>2026-03-26T00:21:02.000Z</time></trkpt>
        <trkpt lat="28.515496" lon="105.135798"><ele>633.4244</ele><time>2026-03-26T00:21:18.000Z</time></trkpt>
        <trkpt lat="28.51547" lon="105.135843"><ele>632.5217</ele><time>2026-03-26T00:21:51.000Z</time></trkpt>
        <trkpt lat="28.515514" lon="105.135878"><ele>635.0026</ele><time>2026-03-26T00:22:15.000Z</time></trkpt>
        <trkpt lat="28.515537" lon="105.135914"><ele>635.00275</ele><time>2026-03-26T00:22:20.000Z</time></trkpt>
        <trkpt lat="28.515516" lon="105.135881"><ele>630.391</ele><time>2026-03-26T00:23:04.000Z</time></trkpt>
        <trkpt lat="28.515513" lon="105.135831"><ele>630.594</ele><time>2026-03-26T00:23:10.000Z</time></trkpt>
        <trkpt lat="28.51551" lon="105.135872"><ele>637.48846</ele><time>2026-03-26T00:23:33.000Z</time></trkpt>
        <trkpt lat="28.515475" lon="105.135906"><ele>639.2457</ele><time>2026-03-26T00:25:12.000Z</time></trkpt>
        <trkpt lat="28.51549" lon="105.135853"><ele>635.71704</ele><time>2026-03-26T00:25:50.000Z</time></trkpt>
        <trkpt lat="28.515514" lon="105.135826"><ele>635.4272</ele><time>2026-03-26T00:25:56.000Z</time></trkpt>
        <trkpt lat="28.515481" lon="105.135849"><ele>630.788</ele><time>2026-03-26T00:26:07.000Z</time></trkpt>
        <trkpt lat="28.515494" lon="105.135811"><ele>628.1749</ele><time>2026-03-26T00:26:18.000Z</time></trkpt>
        <trkpt lat="28.515484" lon="105.135767"><ele>627.6292</ele><time>2026-03-26T00:26:21.000Z</time></trkpt>
        <trkpt lat="28.515491" lon="105.135714"><ele>626.7445</ele><time>2026-03-26T00:26:25.000Z</time></trkpt>
        <trkpt lat="28.515509" lon="105.135755"><ele>626.10583</ele><time>2026-03-26T00:26:39.000Z</time></trkpt>
        <trkpt lat="28.515536" lon="105.135804"><ele>627.98804</ele><time>2026-03-26T00:26:43.000Z</time></trkpt>
        <trkpt lat="28.515584" lon="105.135782"><ele>629.07367</ele><time>2026-03-26T00:26:57.000Z</time></trkpt>
        <trkpt lat="28.515612" lon="105.135753"><ele>628.88556</ele><time>2026-03-26T00:27:00.000Z</time></trkpt>
        <trkpt lat="28.515583" lon="105.135761"><ele>628.5265</ele><time>2026-03-26T00:27:04.000Z</time></trkpt>
        <trkpt lat="28.515548" lon="105.135791"><ele>629.5536</ele><time>2026-03-26T00:27:07.000Z</time></trkpt>
        <trkpt lat="28.515496" lon="105.135848"><ele>632.61285</ele><time>2026-03-26T00:27:15.000Z</time></trkpt>
        <trkpt lat="28.515538" lon="105.135833"><ele>635.37494</ele><time>2026-03-26T00:27:44.000Z</time></trkpt>
        <trkpt lat="28.51551" lon="105.135906"><ele>635.5625</ele><time>2026-03-26T00:28:26.000Z</time></trkpt>
        <trkpt lat="28.51548" lon="105.135956"><ele>635.7951</ele><time>2026-03-26T00:28:40.000Z</time></trkpt>
        <trkpt lat="28.515446" lon="105.135993"><ele>634.3946</ele><time>2026-03-26T00:29:23.000Z</time></trkpt>
        <trkpt lat="28.51545" lon="105.135928"><ele>632.4789</ele><time>2026-03-26T00:30:30.000Z</time></trkpt>
        <trkpt lat="28.515544" lon="105.135803"><ele>631.4713</ele><time>2026-03-26T00:30:41.000Z</time></trkpt>
        <trkpt lat="28.51552" lon="105.135821"><ele>634.01385</ele><time>2026-03-26T00:30:56.000Z</time></trkpt>
        <trkpt lat="28.515411" lon="105.136017"><ele>639.0855</ele><time>2026-03-26T00:31:25.000Z</time></trkpt>
        <trkpt lat="28.515433" lon="105.136005"><ele>638.3906</ele><time>2026-03-26T00:31:28.000Z</time></trkpt>
        <trkpt lat="28.515552" lon="105.135873"><ele>634.1047</ele><time>2026-03-26T00:31:41.000Z</time></trkpt>
        <trkpt lat="28.515593" lon="105.135814"><ele>627.1272</ele><time>2026-03-26T00:32:10.000Z</time></trkpt>
        <trkpt lat="28.515556" lon="105.135776"><ele>626.39685</ele><time>2026-03-26T00:32:17.000Z</time></trkpt>
        <trkpt lat="28.515562" lon="105.13582"><ele>626.96387</ele><time>2026-03-26T00:32:32.000Z</time></trkpt>
        <trkpt lat="28.515515" lon="105.135831"><ele>629.9444</ele><time>2026-03-26T00:32:59.000Z</time></trkpt>
        <trkpt lat="28.515561" lon="105.135835"><ele>632.1485</ele><time>2026-03-26T00:33:59.000Z</time></trkpt>
        <trkpt lat="28.515504" lon="105.135816"><ele>622.09467</ele><time>2026-03-26T00:34:59.000Z</time></trkpt>
        <trkpt lat="28.51553" lon="105.135833"><ele>622.3173</ele><time>2026-03-26T00:35:02.000Z</time></trkpt>
        <trkpt lat="28.515527" lon="105.135888"><ele>628.87866</ele><time>2026-03-26T00:35:29.000Z</time></trkpt>
        <trkpt lat="28.515472" lon="105.135837"><ele>636.9939</ele><time>2026-03-26T00:35:50.000Z</time></trkpt>
        <trkpt lat="28.515422" lon="105.135838"><ele>637.15186</ele><time>2026-03-26T00:36:01.000Z</time></trkpt>
        <trkpt lat="28.515467" lon="105.135837"><ele>636.9375</ele><time>2026-03-26T00:36:38.000Z</time></trkpt>
        <trkpt lat="28.515535" lon="105.135861"><ele>635.2684</ele><time>2026-03-26T00:37:09.000Z</time></trkpt>
        <trkpt lat="28.515502" lon="105.135822"><ele>634.441</ele><time>2026-03-26T00:37:47.000Z</time></trkpt>
        <trkpt lat="28.515498" lon="105.135875"><ele>632.78687</ele><time>2026-03-26T00:38:30.000Z</time></trkpt>
        <trkpt lat="28.515536" lon="105.135842"><ele>631.4152</ele><time>2026-03-26T00:38:37.000Z</time></trkpt>
        <trkpt lat="28.515577" lon="105.135812"><ele>631.1338</ele><time>2026-03-26T00:38:39.000Z</time></trkpt>
        <trkpt lat="28.515605" lon="105.135749"><ele>630.0779</ele><time>2026-03-26T00:38:45.000Z</time></trkpt>
        <trkpt lat="28.515594" lon="105.135709"><ele>628.89764</ele><time>2026-03-26T00:38:47.000Z</time></trkpt>
        <trkpt lat="28.515577" lon="105.135632"><ele>627.1257</ele><time>2026-03-26T00:39:01.000Z</time></trkpt>
        <trkpt lat="28.515561" lon="105.135598"><ele>628.1887</ele><time>2026-03-26T00:39:05.000Z</time></trkpt>
        <trkpt lat="28.51554" lon="105.13555"><ele>628.9431</ele><time>2026-03-26T00:39:10.000Z</time></trkpt>
        <trkpt lat="28.515514" lon="105.135498"><ele>629.14813</ele><time>2026-03-26T00:39:15.000Z</time></trkpt>
        <trkpt lat="28.515493" lon="105.135443"><ele>628.42267</ele><time>2026-03-26T00:39:21.000Z</time></trkpt>
        <trkpt lat="28.515451" lon="105.135418"><ele>633.2733</ele><time>2026-03-26T00:40:03.000Z</time></trkpt>
        <trkpt lat="28.515423" lon="105.135382"><ele>632.7882</ele><time>2026-03-26T00:40:15.000Z</time></trkpt>
        <trkpt lat="28.515435" lon="105.135324"><ele>630.09045</ele><time>2026-03-26T00:40:33.000Z</time></trkpt>
        <trkpt lat="28.515404" lon="105.13534"><ele>629.67914</ele><time>2026-03-26T00:40:39.000Z</time></trkpt>
        <trkpt lat="28.515333" lon="105.13535"><ele>629.2748</ele><time>2026-03-26T00:41:00.000Z</time></trkpt>
        <trkpt lat="28.51537" lon="105.135373"><ele>630.64655</ele><time>2026-03-26T00:41:07.000Z</time></trkpt>
        <trkpt lat="28.515365" lon="105.135419"><ele>630.7832</ele><time>2026-03-26T00:41:10.000Z</time></trkpt>
        <trkpt lat="28.51538" lon="105.135411"><ele>631.6056</ele><time>2026-03-26T00:41:15.000Z</time></trkpt>
        <trkpt lat="28.515354" lon="105.135401"><ele>633.57574</ele><time>2026-03-26T00:41:19.000Z</time></trkpt>
        <trkpt lat="28.515359" lon="105.135441"><ele>635.31366</ele><time>2026-03-26T00:41:35.000Z</time></trkpt>
        <trkpt lat="28.515334" lon="105.13542"><ele>635.32367</ele><time>2026-03-26T00:41:39.000Z</time></trkpt>
        <trkpt lat="28.515332" lon="105.135435"><ele>635.2691</ele><time>2026-03-26T00:41:40.000Z</time></trkpt>
        <trkpt lat="28.515309" lon="105.135411"><ele>636.8485</ele><time>2026-03-26T00:41:52.000Z</time></trkpt>
        <trkpt lat="28.515272" lon="105.135445"><ele>637.58777</ele><time>2026-03-26T00:42:09.000Z</time></trkpt>
        <trkpt lat="28.515264" lon="105.135501"><ele>636.3375</ele><time>2026-03-26T00:42:20.000Z</time></trkpt>
        <trkpt lat="28.515217" lon="105.135499"><ele>637.12555</ele><time>2026-03-26T00:42:32.000Z</time></trkpt>
        <trkpt lat="28.515175" lon="105.135516"><ele>635.86444</ele><time>2026-03-26T00:42:40.000Z</time></trkpt>
        <trkpt lat="28.515135" lon="105.13555"><ele>636.84296</ele><time>2026-03-26T00:42:54.000Z</time></trkpt>
        <trkpt lat="28.515092" lon="105.13556"><ele>637.6963</ele><time>2026-03-26T00:43:05.000Z</time></trkpt>
        <trkpt lat="28.515043" lon="105.13555"><ele>640.09296</ele><time>2026-03-26T00:43:11.000Z</time></trkpt>
        <trkpt lat="28.514989" lon="105.135515"><ele>643.6069</ele><time>2026-03-26T00:43:16.000Z</time></trkpt>
        <trkpt lat="28.514937" lon="105.135484"><ele>649.73834</ele><time>2026-03-26T00:43:22.000Z</time></trkpt>
        <trkpt lat="28.514886" lon="105.135462"><ele>655.65515</ele><time>2026-03-26T00:43:30.000Z</time></trkpt>
        <trkpt lat="28.514846" lon="105.135462"><ele>657.0519</ele><time>2026-03-26T00:43:35.000Z</time></trkpt>
        <trkpt lat="28.514803" lon="105.135461"><ele>658.06287</ele><time>2026-03-26T00:43:39.000Z</time></trkpt>
        <trkpt lat="28.514757" lon="105.135452"><ele>659.99664</ele><time>2026-03-26T00:43:43.000Z</time></trkpt>
        <trkpt lat="28.51471" lon="105.135436"><ele>663.08795</ele><time>2026-03-26T00:43:47.000Z</time></trkpt>
        <trkpt lat="28.514657" lon="105.135418"><ele>666.34985</ele><time>2026-03-26T00:43:52.000Z</time></trkpt>
        <trkpt lat="28.514702" lon="105.135403"><ele>674.6841</ele><time>2026-03-26T00:44:24.000Z</time></trkpt>
        <trkpt lat="28.514743" lon="105.135404"><ele>674.21136</ele><time>2026-03-26T00:44:27.000Z</time></trkpt>
        <trkpt lat="28.514792" lon="105.135415"><ele>673.3832</ele><time>2026-03-26T00:44:31.000Z</time></trkpt>
        <trkpt lat="28.514841" lon="105.135417"><ele>672.75616</ele><time>2026-03-26T00:44:34.000Z</time></trkpt>
        <trkpt lat="28.514891" lon="105.135419"><ele>672.30133</ele><time>2026-03-26T00:44:37.000Z</time></trkpt>
        <trkpt lat="28.514942" lon="105.135418"><ele>671.80707</ele><time>2026-03-26T00:44:40.000Z</time></trkpt>
        <trkpt lat="28.515001" lon="105.135408"><ele>670.4848</ele><time>2026-03-26T00:44:44.000Z</time></trkpt>
        <trkpt lat="28.515063" lon="105.135391"><ele>667.6179</ele><time>2026-03-26T00:44:51.000Z</time></trkpt>
        <trkpt lat="28.515102" lon="105.135373"><ele>663.7357</ele><time>2026-03-26T00:44:57.000Z</time></trkpt>
        <trkpt lat="28.515144" lon="105.135373"><ele>660.1841</ele><time>2026-03-26T00:45:03.000Z</time></trkpt>
        <trkpt lat="28.515193" lon="105.135404"><ele>652.46375</ele><time>2026-03-26T00:45:10.000Z</time></trkpt>
        <trkpt lat="28.515241" lon="105.135431"><ele>647.6879</ele><time>2026-03-26T00:45:15.000Z</time></trkpt>
        <trkpt lat="28.515227" lon="105.135482"><ele>638.60803</ele><time>2026-03-26T00:46:10.000Z</time></trkpt>
        <trkpt lat="28.515182" lon="105.135501"><ele>638.40497</ele><time>2026-03-26T00:46:19.000Z</time></trkpt>
        <trkpt lat="28.515121" lon="105.135525"><ele>638.4591</ele><time>2026-03-26T00:46:39.000Z</time></trkpt>
        <trkpt lat="28.515084" lon="105.135502"><ele>640.9937</ele><time>2026-03-26T00:46:47.000Z</time></trkpt>
        <trkpt lat="28.51505" lon="105.135496"><ele>641.50305</ele><time>2026-03-26T00:46:49.000Z</time></trkpt>
        <trkpt lat="28.515001" lon="105.135538"><ele>645.9267</ele><time>2026-03-26T00:47:00.000Z</time></trkpt>
        <trkpt lat="28.514962" lon="105.135535"><ele>650.68665</ele><time>2026-03-26T00:47:06.000Z</time></trkpt>
        <trkpt lat="28.514908" lon="105.135518"><ele>653.1072</ele><time>2026-03-26T00:47:11.000Z</time></trkpt>
        <trkpt lat="28.514852" lon="105.135504"><ele>654.8511</ele><time>2026-03-26T00:47:14.000Z</time></trkpt>
        <trkpt lat="28.514796" lon="105.135486"><ele>658.14465</ele><time>2026-03-26T00:47:18.000Z</time></trkpt>
        <trkpt lat="28.514743" lon="105.135465"><ele>661.4303</ele><time>2026-03-26T00:47:22.000Z</time></trkpt>
        <trkpt lat="28.51469" lon="105.13545"><ele>664.46967</ele><time>2026-03-26T00:47:26.000Z</time></trkpt>
        <trkpt lat="28.514648" lon="105.135434"><ele>666.555</ele><time>2026-03-26T00:47:29.000Z</time></trkpt>
        <trkpt lat="28.514579" lon="105.135399"><ele>669.2251</ele><time>2026-03-26T00:47:34.000Z</time></trkpt>
        <trkpt lat="28.514524" lon="105.135371"><ele>670.5548</ele><time>2026-03-26T00:47:40.000Z</time></trkpt>
        <trkpt lat="28.514478" lon="105.135357"><ele>670.2481</ele><time>2026-03-26T00:47:46.000Z</time></trkpt>
        <trkpt lat="28.514433" lon="105.135333"><ele>669.79846</ele><time>2026-03-26T00:47:50.000Z</time></trkpt>
        <trkpt lat="28.514383" lon="105.135304"><ele>667.65497</ele><time>2026-03-26T00:47:54.000Z</time></trkpt>
        <trkpt lat="28.514333" lon="105.135283"><ele>663.88995</ele><time>2026-03-26T00:47:58.000Z</time></trkpt>
        <trkpt lat="28.514283" lon="105.135266"><ele>660.3339</ele><time>2026-03-26T00:48:02.000Z</time></trkpt>
        <trkpt lat="28.514233" lon="105.135243"><ele>658.12683</ele><time>2026-03-26T00:48:06.000Z</time></trkpt>
        <trkpt lat="28.51418" lon="105.135224"><ele>656.78906</ele><time>2026-03-26T00:48:10.000Z</time></trkpt>
        <trkpt lat="28.514125" lon="105.135205"><ele>656.38763</ele><time>2026-03-26T00:48:14.000Z</time></trkpt>
        <trkpt lat="28.514063" lon="105.135192"><ele>656.98224</ele><time>2026-03-26T00:48:21.000Z</time></trkpt>
        <trkpt lat="28.514023" lon="105.13518"><ele>657.8506</ele><time>2026-03-26T00:48:26.000Z</time></trkpt>
        <trkpt lat="28.51398" lon="105.135164"><ele>658.69006</ele><time>2026-03-26T00:48:30.000Z</time></trkpt>
        <trkpt lat="28.513931" lon="105.135153"><ele>658.04865</ele><time>2026-03-26T00:48:34.000Z</time></trkpt>
        <trkpt lat="28.513878" lon="105.135132"><ele>657.2272</ele><time>2026-03-26T00:48:38.000Z</time></trkpt>
        <trkpt lat="28.513826" lon="105.135118"><ele>656.32855</ele><time>2026-03-26T00:48:42.000Z</time></trkpt>
        <trkpt lat="28.513769" lon="105.135111"><ele>655.3461</ele><time>2026-03-26T00:48:46.000Z</time></trkpt>
        <trkpt lat="28.513725" lon="105.135095"><ele>654.78937</ele><time>2026-03-26T00:48:49.000Z</time></trkpt>
        <trkpt lat="28.513671" lon="105.135073"><ele>655.351</ele><time>2026-03-26T00:48:53.000Z</time></trkpt>
        <trkpt lat="28.513627" lon="105.135057"><ele>655.63104</ele><time>2026-03-26T00:48:56.000Z</time></trkpt>
        <trkpt lat="28.51357" lon="105.135043"><ele>655.88525</ele><time>2026-03-26T00:49:00.000Z</time></trkpt>
        <trkpt lat="28.513513" lon="105.135035"><ele>655.89764</ele><time>2026-03-26T00:49:04.000Z</time></trkpt>
        <trkpt lat="28.513469" lon="105.135027"><ele>656.78546</ele><time>2026-03-26T00:49:07.000Z</time></trkpt>
        <trkpt lat="28.513412" lon="105.135026"><ele>657.951</ele><time>2026-03-26T00:49:48.000Z</time></trkpt>
        <trkpt lat="28.513364" lon="105.135029"><ele>662.08386</ele><time>2026-03-26T00:50:19.000Z</time></trkpt>
        <trkpt lat="28.513314" lon="105.135034"><ele>662.3951</ele><time>2026-03-26T00:50:24.000Z</time></trkpt>
        <trkpt lat="28.513262" lon="105.135038"><ele>661.4517</ele><time>2026-03-26T00:50:30.000Z</time></trkpt>
        <trkpt lat="28.513213" lon="105.135046"><ele>660.57513</ele><time>2026-03-26T00:50:37.000Z</time></trkpt>
        <trkpt lat="28.513159" lon="105.135033"><ele>661.35254</ele><time>2026-03-26T00:50:47.000Z</time></trkpt>
        <trkpt lat="28.513115" lon="105.135023"><ele>662.2553</ele><time>2026-03-26T00:50:56.000Z</time></trkpt>
        <trkpt lat="28.51307" lon="105.135032"><ele>664.00006</ele><time>2026-03-26T00:51:11.000Z</time></trkpt>
        <trkpt lat="28.513115" lon="105.135033"><ele>663.7719</ele><time>2026-03-26T00:51:17.000Z</time></trkpt>
        <trkpt lat="28.513078" lon="105.135039"><ele>660.98895</ele><time>2026-03-26T00:51:33.000Z</time></trkpt>
        <trkpt lat="28.513034" lon="105.135051"><ele>661.73987</ele><time>2026-03-26T00:51:37.000Z</time></trkpt>
        <trkpt lat="28.512992" lon="105.135066"><ele>663.1952</ele><time>2026-03-26T00:51:40.000Z</time></trkpt>
        <trkpt lat="28.512946" lon="105.135077"><ele>664.53235</ele><time>2026-03-26T00:51:43.000Z</time></trkpt>
        <trkpt lat="28.512897" lon="105.135091"><ele>665.74426</ele><time>2026-03-26T00:51:46.000Z</time></trkpt>
        <trkpt lat="28.512836" lon="105.135109"><ele>667.4114</ele><time>2026-03-26T00:51:50.000Z</time></trkpt>
        <trkpt lat="28.512776" lon="105.135131"><ele>668.61224</ele><time>2026-03-26T00:51:54.000Z</time></trkpt>
        <trkpt lat="28.512733" lon="105.135156"><ele>669.4418</ele><time>2026-03-26T00:51:57.000Z</time></trkpt>
        <trkpt lat="28.512691" lon="105.135182"><ele>670.54376</ele><time>2026-03-26T00:52:01.000Z</time></trkpt>
        <trkpt lat="28.512641" lon="105.135219"><ele>670.73456</ele><time>2026-03-26T00:52:05.000Z</time></trkpt>
        <trkpt lat="28.512605" lon="105.135253"><ele>671.46625</ele><time>2026-03-26T00:52:08.000Z</time></trkpt>
        <trkpt lat="28.512556" lon="105.135295"><ele>671.6324</ele><time>2026-03-26T00:52:12.000Z</time></trkpt>
        <trkpt lat="28.512509" lon="105.135337"><ele>672.3429</ele><time>2026-03-26T00:52:16.000Z</time></trkpt>
        <trkpt lat="28.512468" lon="105.135384"><ele>672.57935</ele><time>2026-03-26T00:52:20.000Z</time></trkpt>
        <trkpt lat="28.51243" lon="105.135436"><ele>672.52313</ele><time>2026-03-26T00:52:24.000Z</time></trkpt>
        <trkpt lat="28.512396" lon="105.13549"><ele>672.66187</ele><time>2026-03-26T00:52:28.000Z</time></trkpt>
        <trkpt lat="28.51237" lon="105.13553"><ele>673.0313</ele><time>2026-03-26T00:52:31.000Z</time></trkpt>
        <trkpt lat="28.512332" lon="105.135581"><ele>673.2226</ele><time>2026-03-26T00:52:35.000Z</time></trkpt>
        <trkpt lat="28.51229" lon="105.135621"><ele>673.43567</ele><time>2026-03-26T00:52:39.000Z</time></trkpt>
        <trkpt lat="28.512245" lon="105.135668"><ele>672.2234</ele><time>2026-03-26T00:52:45.000Z</time></trkpt>
        <trkpt lat="28.512214" lon="105.135699"><ele>671.043</ele><time>2026-03-26T00:52:49.000Z</time></trkpt>
        <trkpt lat="28.512172" lon="105.135724"><ele>670.08185</ele><time>2026-03-26T00:52:53.000Z</time></trkpt>
        <trkpt lat="28.512124" lon="105.135758"><ele>669.38513</ele><time>2026-03-26T00:52:58.000Z</time></trkpt>
        <trkpt lat="28.512074" lon="105.135792"><ele>668.38293</ele><time>2026-03-26T00:53:03.000Z</time></trkpt>
        <trkpt lat="28.512029" lon="105.135807"><ele>667.4697</ele><time>2026-03-26T00:53:07.000Z</time></trkpt>
        <trkpt lat="28.511987" lon="105.135824"><ele>667.17426</ele><time>2026-03-26T00:53:10.000Z</time></trkpt>
        <trkpt lat="28.511941" lon="105.135838"><ele>666.534</ele><time>2026-03-26T00:53:13.000Z</time></trkpt>
        <trkpt lat="28.511893" lon="105.135851"><ele>665.93024</ele><time>2026-03-26T00:53:16.000Z</time></trkpt>
        <trkpt lat="28.51183" lon="105.135862"><ele>665.22736</ele><time>2026-03-26T00:53:20.000Z</time></trkpt>
        <trkpt lat="28.511781" lon="105.135868"><ele>664.9868</ele><time>2026-03-26T00:53:23.000Z</time></trkpt>
        <trkpt lat="28.51173" lon="105.135873"><ele>664.71356</ele><time>2026-03-26T00:53:26.000Z</time></trkpt>
        <trkpt lat="28.511679" lon="105.135876"><ele>664.39954</ele><time>2026-03-26T00:53:29.000Z</time></trkpt>
        <trkpt lat="28.511617" lon="105.135874"><ele>664.29175</ele><time>2026-03-26T00:53:33.000Z</time></trkpt>
        <trkpt lat="28.511564" lon="105.135884"><ele>663.37286</ele><time>2026-03-26T00:53:37.000Z</time></trkpt>
        <trkpt lat="28.511514" lon="105.135901"><ele>662.0337</ele><time>2026-03-26T00:53:41.000Z</time></trkpt>
        <trkpt lat="28.511461" lon="105.135921"><ele>660.9567</ele><time>2026-03-26T00:53:45.000Z</time></trkpt>
        <trkpt lat="28.51142" lon="105.135941"><ele>660.2139</ele><time>2026-03-26T00:53:48.000Z</time></trkpt>
        <trkpt lat="28.511366" lon="105.135962"><ele>660.5803</ele><time>2026-03-26T00:53:52.000Z</time></trkpt>
        <trkpt lat="28.511317" lon="105.135974"><ele>660.9719</ele><time>2026-03-26T00:53:56.000Z</time></trkpt>
        <trkpt lat="28.511269" lon="105.135994"><ele>660.47656</ele><time>2026-03-26T00:54:01.000Z</time></trkpt>
        <trkpt lat="28.511231" lon="105.13602"><ele>659.94025</ele><time>2026-03-26T00:54:05.000Z</time></trkpt>
        <trkpt lat="28.511182" lon="105.136055"><ele>659.44507</ele><time>2026-03-26T00:54:10.000Z</time></trkpt>
        <trkpt lat="28.511146" lon="105.136081"><ele>660.20844</ele><time>2026-03-26T00:54:13.000Z</time></trkpt>
        <trkpt lat="28.511104" lon="105.136103"><ele>661.1906</ele><time>2026-03-26T00:54:16.000Z</time></trkpt>
        <trkpt lat="28.511061" lon="105.136126"><ele>662.3341</ele><time>2026-03-26T00:54:19.000Z</time></trkpt>
        <trkpt lat="28.511004" lon="105.13615"><ele>663.25793</ele><time>2026-03-26T00:54:23.000Z</time></trkpt>
        <trkpt lat="28.510946" lon="105.136168"><ele>663.7903</ele><time>2026-03-26T00:54:27.000Z</time></trkpt>
        <trkpt lat="28.51089" lon="105.136183"><ele>664.5255</ele><time>2026-03-26T00:54:31.000Z</time></trkpt>
        <trkpt lat="28.510846" lon="105.136192"><ele>664.25775</ele><time>2026-03-26T00:54:34.000Z</time></trkpt>
        <trkpt lat="28.510801" lon="105.136195"><ele>664.2632</ele><time>2026-03-26T00:54:37.000Z</time></trkpt>
        <trkpt lat="28.51074" lon="105.136194"><ele>664.31165</ele><time>2026-03-26T00:54:41.000Z</time></trkpt>
        <trkpt lat="28.51068" lon="105.136201"><ele>664.6946</ele><time>2026-03-26T00:54:45.000Z</time></trkpt>
        <trkpt lat="28.510618" lon="105.136202"><ele>665.06274</ele><time>2026-03-26T00:54:49.000Z</time></trkpt>
        <trkpt lat="28.510573" lon="105.136208"><ele>664.9015</ele><time>2026-03-26T00:54:52.000Z</time></trkpt>
        <trkpt lat="28.510527" lon="105.136223"><ele>665.09344</ele><time>2026-03-26T00:54:55.000Z</time></trkpt>
        <trkpt lat="28.510485" lon="105.136253"><ele>665.1306</ele><time>2026-03-26T00:54:58.000Z</time></trkpt>
        <trkpt lat="28.510448" lon="105.13629"><ele>665.5755</ele><time>2026-03-26T00:55:01.000Z</time></trkpt>
        <trkpt lat="28.510427" lon="105.136345"><ele>666.39703</ele><time>2026-03-26T00:55:04.000Z</time></trkpt>
        <trkpt lat="28.510418" lon="105.136408"><ele>667.2409</ele><time>2026-03-26T00:55:07.000Z</time></trkpt>
        <trkpt lat="28.510408" lon="105.136482"><ele>668.0483</ele><time>2026-03-26T00:55:11.000Z</time></trkpt>
        <trkpt lat="28.510399" lon="105.13655"><ele>668.6226</ele><time>2026-03-26T00:55:15.000Z</time></trkpt>
        <trkpt lat="28.510373" lon="105.136604"><ele>668.36096</ele><time>2026-03-26T00:55:19.000Z</time></trkpt>
        <trkpt lat="28.510332" lon="105.136644"><ele>668.3018</ele><time>2026-03-26T00:55:23.000Z</time></trkpt>
        <trkpt lat="28.51028" lon="105.136667"><ele>668.34814</ele><time>2026-03-26T00:55:27.000Z</time></trkpt>
        <trkpt lat="28.510224" lon="105.136685"><ele>667.8524</ele><time>2026-03-26T00:55:32.000Z</time></trkpt>
        <trkpt lat="28.510175" lon="105.13671"><ele>666.2839</ele><time>2026-03-26T00:55:41.000Z</time></trkpt>
        <trkpt lat="28.510149" lon="105.136744"><ele>665.5684</ele><time>2026-03-26T00:55:47.000Z</time></trkpt>
        <trkpt lat="28.510121" lon="105.136782"><ele>665.84515</ele><time>2026-03-26T00:55:52.000Z</time></trkpt>
        <trkpt lat="28.510106" lon="105.136841"><ele>664.5786</ele><time>2026-03-26T00:56:38.000Z</time></trkpt>
        <trkpt lat="28.510081" lon="105.136855"><ele>663.795</ele><time>2026-03-26T00:56:42.000Z</time></trkpt>
        <trkpt lat="28.510042" lon="105.136873"><ele>663.64575</ele><time>2026-03-26T00:56:45.000Z</time></trkpt>
        <trkpt lat="28.509996" lon="105.136938"><ele>662.4703</ele><time>2026-03-26T00:56:52.000Z</time></trkpt>
        <trkpt lat="28.509942" lon="105.136969"><ele>663.39026</ele><time>2026-03-26T00:57:00.000Z</time></trkpt>
        <trkpt lat="28.509906" lon="105.136998"><ele>665.16144</ele><time>2026-03-26T00:57:07.000Z</time></trkpt>
        <trkpt lat="28.509873" lon="105.137026"><ele>666.661</ele><time>2026-03-26T00:57:12.000Z</time></trkpt>
        <trkpt lat="28.509834" lon="105.137064"><ele>667.4645</ele><time>2026-03-26T00:57:19.000Z</time></trkpt>
        <trkpt lat="28.509788" lon="105.137087"><ele>668.0217</ele><time>2026-03-26T00:57:25.000Z</time></trkpt>
        <trkpt lat="28.509749" lon="105.137124"><ele>669.32794</ele><time>2026-03-26T00:57:32.000Z</time></trkpt>
        <trkpt lat="28.509714" lon="105.137162"><ele>671.15875</ele><time>2026-03-26T00:57:40.000Z</time></trkpt>
        <trkpt lat="28.509686" lon="105.137197"><ele>672.66205</ele><time>2026-03-26T00:57:45.000Z</time></trkpt>
        <trkpt lat="28.509659" lon="105.137244"><ele>673.8973</ele><time>2026-03-26T00:57:50.000Z</time></trkpt>
        <trkpt lat="28.509649" lon="105.137306"><ele>674.39545</ele><time>2026-03-26T00:57:56.000Z</time></trkpt>
        <trkpt lat="28.509654" lon="105.137371"><ele>674.6419</ele><time>2026-03-26T00:58:01.000Z</time></trkpt>
        <trkpt lat="28.509661" lon="105.137428"><ele>675.8223</ele><time>2026-03-26T00:58:05.000Z</time></trkpt>
        <trkpt lat="28.509664" lon="105.137486"><ele>676.5885</ele><time>2026-03-26T00:58:09.000Z</time></trkpt>
        <trkpt lat="28.50966" lon="105.137542"><ele>677.2351</ele><time>2026-03-26T00:58:13.000Z</time></trkpt>
        <trkpt lat="28.509639" lon="105.1376"><ele>676.159</ele><time>2026-03-26T00:58:19.000Z</time></trkpt>
        <trkpt lat="28.509616" lon="105.137649"><ele>674.1362</ele><time>2026-03-26T00:58:38.000Z</time></trkpt>
        <trkpt lat="28.509617" lon="105.137709"><ele>673.5884</ele><time>2026-03-26T00:59:22.000Z</time></trkpt>
        <trkpt lat="28.509608" lon="105.137755"><ele>672.4021</ele><time>2026-03-26T00:59:28.000Z</time></trkpt>
        <trkpt lat="28.509591" lon="105.137807"><ele>671.16327</ele><time>2026-03-26T00:59:34.000Z</time></trkpt>
        <trkpt lat="28.509566" lon="105.137863"><ele>670.08203</ele><time>2026-03-26T00:59:41.000Z</time></trkpt>
        <trkpt lat="28.509526" lon="105.137899"><ele>667.60114</ele><time>2026-03-26T00:59:47.000Z</time></trkpt>
        <trkpt lat="28.509486" lon="105.137902"><ele>666.1358</ele><time>2026-03-26T00:59:50.000Z</time></trkpt>
        <trkpt lat="28.509437" lon="105.137872"><ele>664.33057</ele><time>2026-03-26T00:59:55.000Z</time></trkpt>
        <trkpt lat="28.509408" lon="105.137894"><ele>663.4269</ele><time>2026-03-26T01:00:03.000Z</time></trkpt>
        <trkpt lat="28.509407" lon="105.137935"><ele>663.7698</ele><time>2026-03-26T01:00:06.000Z</time></trkpt>
        <trkpt lat="28.509456" lon="105.137937"><ele>663.44476</ele><time>2026-03-26T01:00:45.000Z</time></trkpt>
        <trkpt lat="28.509497" lon="105.137965"><ele>665.50696</ele><time>2026-03-26T01:03:36.000Z</time></trkpt>
        <trkpt lat="28.509458" lon="105.13794"><ele>664.2166</ele><time>2026-03-26T01:03:55.000Z</time></trkpt>
        <trkpt lat="28.509439" lon="105.13789"><ele>663.84656</ele><time>2026-03-26T01:04:02.000Z</time></trkpt>
        <trkpt lat="28.50942" lon="105.137935"><ele>666.7245</ele><time>2026-03-26T01:05:46.000Z</time></trkpt>
        <trkpt lat="28.509455" lon="105.137971"><ele>668.7461</ele><time>2026-03-26T01:06:28.000Z</time></trkpt>
        <trkpt lat="28.50949" lon="105.137962"><ele>668.00415</ele><time>2026-03-26T01:06:34.000Z</time></trkpt>
        <trkpt lat="28.509448" lon="105.137968"><ele>668.9985</ele><time>2026-03-26T01:07:26.000Z</time></trkpt>
        <trkpt lat="28.509409" lon="105.137962"><ele>668.53723</ele><time>2026-03-26T01:07:30.000Z</time></trkpt>
        <trkpt lat="28.509348" lon="105.137963"><ele>667.77075</ele><time>2026-03-26T01:07:38.000Z</time></trkpt>
        <trkpt lat="28.509302" lon="105.137977"><ele>667.06683</ele><time>2026-03-26T01:07:42.000Z</time></trkpt>
        <trkpt lat="28.509256" lon="105.137998"><ele>666.40576</ele><time>2026-03-26T01:07:46.000Z</time></trkpt>
        <trkpt lat="28.509214" lon="105.138026"><ele>665.532</ele><time>2026-03-26T01:07:50.000Z</time></trkpt>
        <trkpt lat="28.509178" lon="105.138066"><ele>663.9383</ele><time>2026-03-26T01:07:54.000Z</time></trkpt>
        <trkpt lat="28.509141" lon="105.138111"><ele>662.59265</ele><time>2026-03-26T01:07:58.000Z</time></trkpt>
        <trkpt lat="28.509103" lon="105.138163"><ele>661.10406</ele><time>2026-03-26T01:08:02.000Z</time></trkpt>
        <trkpt lat="28.509069" lon="105.138217"><ele>659.29987</ele><time>2026-03-26T01:08:06.000Z</time></trkpt>
        <trkpt lat="28.509035" lon="105.138271"><ele>658.88086</ele><time>2026-03-26T01:08:10.000Z</time></trkpt>
        <trkpt lat="28.509003" lon="105.138322"><ele>657.91327</ele><time>2026-03-26T01:08:14.000Z</time></trkpt>
        <trkpt lat="28.508977" lon="105.138373"><ele>656.8783</ele><time>2026-03-26T01:08:18.000Z</time></trkpt>
        <trkpt lat="28.508954" lon="105.138429"><ele>656.18445</ele><time>2026-03-26T01:08:22.000Z</time></trkpt>
        <trkpt lat="28.508927" lon="105.138482"><ele>656.11035</ele><time>2026-03-26T01:08:26.000Z</time></trkpt>
        <trkpt lat="28.508894" lon="105.138531"><ele>655.70105</ele><time>2026-03-26T01:08:30.000Z</time></trkpt>
        <trkpt lat="28.508863" lon="105.138579"><ele>655.74615</ele><time>2026-03-26T01:08:34.000Z</time></trkpt>
        <trkpt lat="28.508832" lon="105.138621"><ele>658.425</ele><time>2026-03-26T01:08:38.000Z</time></trkpt>
        <trkpt lat="28.508856" lon="105.138586"><ele>658.6639</ele><time>2026-03-26T01:08:56.000Z</time></trkpt>
        <trkpt lat="28.508848" lon="105.138632"><ele>660.5837</ele><time>2026-03-26T01:09:22.000Z</time></trkpt>
        <trkpt lat="28.508843" lon="105.138579"><ele>662.4128</ele><time>2026-03-26T01:10:40.000Z</time></trkpt>
        <trkpt lat="28.508893" lon="105.138586"><ele>661.3114</ele><time>2026-03-26T01:12:36.000Z</time></trkpt>
        <trkpt lat="28.508848" lon="105.138614"><ele>661.10803</ele><time>2026-03-26T01:12:56.000Z</time></trkpt>
        <trkpt lat="28.508832" lon="105.138641"><ele>662.0251</ele><time>2026-03-26T01:13:00.000Z</time></trkpt>
        <trkpt lat="28.508863" lon="105.138649"><ele>659.5399</ele><time>2026-03-26T01:13:05.000Z</time></trkpt>
        <trkpt lat="28.508911" lon="105.138641"><ele>657.30865</ele><time>2026-03-26T01:13:09.000Z</time></trkpt>
        <trkpt lat="28.508984" lon="105.138637"><ele>654.2821</ele><time>2026-03-26T01:13:30.000Z</time></trkpt>
        <trkpt lat="28.509013" lon="105.138626"><ele>654.0875</ele><time>2026-03-26T01:13:33.000Z</time></trkpt>
        <trkpt lat="28.509056" lon="105.138613"><ele>653.8842</ele><time>2026-03-26T01:13:36.000Z</time></trkpt>
        <trkpt lat="28.509111" lon="105.138587"><ele>653.569</ele><time>2026-03-26T01:13:40.000Z</time></trkpt>
        <trkpt lat="28.509165" lon="105.138554"><ele>653.44183</ele><time>2026-03-26T01:13:44.000Z</time></trkpt>
        <trkpt lat="28.509225" lon="105.138531"><ele>653.1431</ele><time>2026-03-26T01:13:48.000Z</time></trkpt>
        <trkpt lat="28.509277" lon="105.138504"><ele>652.24176</ele><time>2026-03-26T01:13:52.000Z</time></trkpt>
        <trkpt lat="28.509332" lon="105.138488"><ele>651.6129</ele><time>2026-03-26T01:13:56.000Z</time></trkpt>
        <trkpt lat="28.509388" lon="105.138482"><ele>651.082</ele><time>2026-03-26T01:14:00.000Z</time></trkpt>
        <trkpt lat="28.50945" lon="105.13848"><ele>648.4569</ele><time>2026-03-26T01:14:09.000Z</time></trkpt>
        <trkpt lat="28.509493" lon="105.138491"><ele>644.9554</ele><time>2026-03-26T01:16:52.000Z</time></trkpt>
        <trkpt lat="28.509495" lon="105.138439"><ele>642.58887</ele><time>2026-03-26T01:18:54.000Z</time></trkpt>
        <trkpt lat="28.509515" lon="105.138398"><ele>640.3096</ele><time>2026-03-26T01:19:01.000Z</time></trkpt>
        <trkpt lat="28.50954" lon="105.138423"><ele>637.93115</ele><time>2026-03-26T01:19:10.000Z</time></trkpt>
        <trkpt lat="28.509552" lon="105.138472"><ele>636.45264</ele><time>2026-03-26T01:19:15.000Z</time></trkpt>
        <trkpt lat="28.509565" lon="105.13853"><ele>635.1911</ele><time>2026-03-26T01:19:21.000Z</time></trkpt>
        <trkpt lat="28.509561" lon="105.138585"><ele>633.82184</ele><time>2026-03-26T01:19:26.000Z</time></trkpt>
        <trkpt lat="28.509522" lon="105.13862"><ele>631.58936</ele><time>2026-03-26T01:19:33.000Z</time></trkpt>
        <trkpt lat="28.509529" lon="105.138662"><ele>631.7437</ele><time>2026-03-26T01:19:42.000Z</time></trkpt>
        <trkpt lat="28.509573" lon="105.138686"><ele>630.5311</ele><time>2026-03-26T01:19:47.000Z</time></trkpt>
        <trkpt lat="28.509619" lon="105.138698"><ele>628.612</ele><time>2026-03-26T01:19:51.000Z</time></trkpt>
        <trkpt lat="28.509676" lon="105.138696"><ele>627.15436</ele><time>2026-03-26T01:19:55.000Z</time></trkpt>
        <trkpt lat="28.509728" lon="105.138666"><ele>625.63696</ele><time>2026-03-26T01:19:59.000Z</time></trkpt>
        <trkpt lat="28.509768" lon="105.138614"><ele>623.87195</ele><time>2026-03-26T01:20:03.000Z</time></trkpt>
        <trkpt lat="28.509782" lon="105.138539"><ele>621.28</ele><time>2026-03-26T01:20:09.000Z</time></trkpt>
        <trkpt lat="28.509787" lon="105.138573"><ele>616.68414</ele><time>2026-03-26T01:20:19.000Z</time></trkpt>
        <trkpt lat="28.509786" lon="105.138625"><ele>614.92395</ele><time>2026-03-26T01:20:23.000Z</time></trkpt>
        <trkpt lat="28.509777" lon="105.138684"><ele>614.08496</ele><time>2026-03-26T01:20:27.000Z</time></trkpt>
        <trkpt lat="28.509768" lon="105.138734"><ele>613.8712</ele><time>2026-03-26T01:20:30.000Z</time></trkpt>
        <trkpt lat="28.50975" lon="105.138796"><ele>613.4935</ele><time>2026-03-26T01:20:34.000Z</time></trkpt>
        <trkpt lat="28.509736" lon="105.138862"><ele>612.6094</ele><time>2026-03-26T01:20:38.000Z</time></trkpt>
        <trkpt lat="28.509712" lon="105.138922"><ele>611.63245</ele><time>2026-03-26T01:20:42.000Z</time></trkpt>
        <trkpt lat="28.509664" lon="105.138954"><ele>609.97095</ele><time>2026-03-26T01:20:47.000Z</time></trkpt>
        <trkpt lat="28.509621" lon="105.138962"><ele>609.3241</ele><time>2026-03-26T01:20:50.000Z</time></trkpt>
        <trkpt lat="28.509561" lon="105.138957"><ele>608.4715</ele><time>2026-03-26T01:20:57.000Z</time></trkpt>
        <trkpt lat="28.509523" lon="105.138985"><ele>608.35254</ele><time>2026-03-26T01:21:06.000Z</time></trkpt>
        <trkpt lat="28.509487" lon="105.139002"><ele>608.26904</ele><time>2026-03-26T01:21:10.000Z</time></trkpt>
        <trkpt lat="28.509461" lon="105.139041"><ele>607.5527</ele><time>2026-03-26T01:21:14.000Z</time></trkpt>
        <trkpt lat="28.509482" lon="105.139059"><ele>605.8006</ele><time>2026-03-26T01:21:18.000Z</time></trkpt>
        <trkpt lat="28.509532" lon="105.139065"><ele>603.7019</ele><time>2026-03-26T01:21:22.000Z</time></trkpt>
        <trkpt lat="28.509592" lon="105.139079"><ele>601.6447</ele><time>2026-03-26T01:21:26.000Z</time></trkpt>
        <trkpt lat="28.509638" lon="105.139101"><ele>600.0599</ele><time>2026-03-26T01:21:29.000Z</time></trkpt>
        <trkpt lat="28.509692" lon="105.139132"><ele>597.8741</ele><time>2026-03-26T01:21:33.000Z</time></trkpt>
        <trkpt lat="28.509735" lon="105.139152"><ele>596.7782</ele><time>2026-03-26T01:21:36.000Z</time></trkpt>
        <trkpt lat="28.509779" lon="105.139186"><ele>595.37506</ele><time>2026-03-26T01:21:40.000Z</time></trkpt>
        <trkpt lat="28.509815" lon="105.139239"><ele>592.76605</ele><time>2026-03-26T01:21:47.000Z</time></trkpt>
        <trkpt lat="28.509841" lon="105.139278"><ele>589.5687</ele><time>2026-03-26T01:21:55.000Z</time></trkpt>
        <trkpt lat="28.509868" lon="105.139314"><ele>587.7443</ele><time>2026-03-26T01:22:01.000Z</time></trkpt>
        <trkpt lat="28.509897" lon="105.13935"><ele>586.9904</ele><time>2026-03-26T01:22:06.000Z</time></trkpt>
        <trkpt lat="28.509933" lon="105.13939"><ele>584.5501</ele><time>2026-03-26T01:22:13.000Z</time></trkpt>
        <trkpt lat="28.509981" lon="105.139412"><ele>581.67633</ele><time>2026-03-26T01:22:21.000Z</time></trkpt>
        <trkpt lat="28.510033" lon="105.139406"><ele>579.6427</ele><time>2026-03-26T01:22:27.000Z</time></trkpt>
        <trkpt lat="28.510065" lon="105.13937"><ele>578.4669</ele><time>2026-03-26T01:22:32.000Z</time></trkpt>
        <trkpt lat="28.510085" lon="105.139321"><ele>577.0561</ele><time>2026-03-26T01:22:37.000Z</time></trkpt>
        <trkpt lat="28.510096" lon="105.139268"><ele>576.06177</ele><time>2026-03-26T01:22:42.000Z</time></trkpt>
        <trkpt lat="28.510114" lon="105.139288"><ele>573.9632</ele><time>2026-03-26T01:22:49.000Z</time></trkpt>
        <trkpt lat="28.510127" lon="105.139337"><ele>572.62885</ele><time>2026-03-26T01:22:53.000Z</time></trkpt>
        <trkpt lat="28.51015" lon="105.139403"><ele>570.6584</ele><time>2026-03-26T01:22:58.000Z</time></trkpt>
        <trkpt lat="28.510173" lon="105.139459"><ele>568.5358</ele><time>2026-03-26T01:23:04.000Z</time></trkpt>
        <trkpt lat="28.510208" lon="105.139509"><ele>567.24255</ele><time>2026-03-26T01:23:11.000Z</time></trkpt>
        <trkpt lat="28.510239" lon="105.139551"><ele>565.21344</ele><time>2026-03-26T01:23:19.000Z</time></trkpt>
        <trkpt lat="28.510262" lon="105.139585"><ele>563.4905</ele><time>2026-03-26T01:23:23.000Z</time></trkpt>
        <trkpt lat="28.510293" lon="105.139633"><ele>560.31226</ele><time>2026-03-26T01:23:29.000Z</time></trkpt>
        <trkpt lat="28.510311" lon="105.139684"><ele>557.8435</ele><time>2026-03-26T01:23:35.000Z</time></trkpt>
        <trkpt lat="28.510316" lon="105.139746"><ele>555.5664</ele><time>2026-03-26T01:23:42.000Z</time></trkpt>
        <trkpt lat="28.510343" lon="105.139782"><ele>554.38495</ele><time>2026-03-26T01:23:48.000Z</time></trkpt>
        <trkpt lat="28.510397" lon="105.139792"><ele>552.31775</ele><time>2026-03-26T01:23:55.000Z</time></trkpt>
        <trkpt lat="28.510444" lon="105.139772"><ele>549.8683</ele><time>2026-03-26T01:24:00.000Z</time></trkpt>
        <trkpt lat="28.510493" lon="105.139764"><ele>547.83264</ele><time>2026-03-26T01:24:05.000Z</time></trkpt>
        <trkpt lat="28.510525" lon="105.139791"><ele>546.9173</ele><time>2026-03-26T01:24:09.000Z</time></trkpt>
        <trkpt lat="28.510541" lon="105.139841"><ele>546.4054</ele><time>2026-03-26T01:24:13.000Z</time></trkpt>
        <trkpt lat="28.510538" lon="105.139902"><ele>545.7623</ele><time>2026-03-26T01:24:17.000Z</time></trkpt>
        <trkpt lat="28.510523" lon="105.139964"><ele>544.8942</ele><time>2026-03-26T01:24:21.000Z</time></trkpt>
        <trkpt lat="28.510524" lon="105.140022"><ele>543.58014</ele><time>2026-03-26T01:24:25.000Z</time></trkpt>
        <trkpt lat="28.510557" lon="105.140056"><ele>541.94727</ele><time>2026-03-26T01:24:29.000Z</time></trkpt>
        <trkpt lat="28.510607" lon="105.140062"><ele>540.66016</ele><time>2026-03-26T01:24:33.000Z</time></trkpt>
        <trkpt lat="28.510666" lon="105.140048"><ele>539.1592</ele><time>2026-03-26T01:24:38.000Z</time></trkpt>
        <trkpt lat="28.510726" lon="105.140033"><ele>538.016</ele><time>2026-03-26T01:24:44.000Z</time></trkpt>
        <trkpt lat="28.510703" lon="105.140043"><ele>539.4508</ele><time>2026-03-26T01:24:48.000Z</time></trkpt>
        <trkpt lat="28.510717" lon="105.140033"><ele>533.556</ele><time>2026-03-26T01:25:30.000Z</time></trkpt>
        <trkpt lat="28.510756" lon="105.140004"><ele>531.3432</ele><time>2026-03-26T01:25:43.000Z</time></trkpt>
        <trkpt lat="28.510771" lon="105.139955"><ele>530.9653</ele><time>2026-03-26T01:25:49.000Z</time></trkpt>
        <trkpt lat="28.510754" lon="105.139975"><ele>530.99884</ele><time>2026-03-26T01:25:54.000Z</time></trkpt>
        <trkpt lat="28.510714" lon="105.140011"><ele>531.1752</ele><time>2026-03-26T01:25:59.000Z</time></trkpt>
        <trkpt lat="28.51066" lon="105.140033"><ele>532.7112</ele><time>2026-03-26T01:26:04.000Z</time></trkpt>
        <trkpt lat="28.51069" lon="105.140028"><ele>532.1124</ele><time>2026-03-26T01:26:19.000Z</time></trkpt>
        <trkpt lat="28.510742" lon="105.139995"><ele>530.8499</ele><time>2026-03-26T01:26:25.000Z</time></trkpt>
        <trkpt lat="28.510753" lon="105.139939"><ele>530.1186</ele><time>2026-03-26T01:26:29.000Z</time></trkpt>
        <trkpt lat="28.510748" lon="105.139886"><ele>529.7845</ele><time>2026-03-26T01:26:32.000Z</time></trkpt>
        <trkpt lat="28.510738" lon="105.13982"><ele>529.72766</ele><time>2026-03-26T01:26:36.000Z</time></trkpt>
        <trkpt lat="28.510713" lon="105.139758"><ele>529.8113</ele><time>2026-03-26T01:26:40.000Z</time></trkpt>
        <trkpt lat="28.51068" lon="105.139701"><ele>529.7023</ele><time>2026-03-26T01:26:44.000Z</time></trkpt>
        <trkpt lat="28.510638" lon="105.139642"><ele>530.4472</ele><time>2026-03-26T01:26:48.000Z</time></trkpt>
        <trkpt lat="28.510606" lon="105.139595"><ele>530.9205</ele><time>2026-03-26T01:26:51.000Z</time></trkpt>
        <trkpt lat="28.510575" lon="105.139544"><ele>531.49207</ele><time>2026-03-26T01:26:54.000Z</time></trkpt>
        <trkpt lat="28.510545" lon="105.139493"><ele>532.399</ele><time>2026-03-26T01:26:57.000Z</time></trkpt>
        <trkpt lat="28.510523" lon="105.139441"><ele>532.3839</ele><time>2026-03-26T01:27:00.000Z</time></trkpt>
        <trkpt lat="28.510512" lon="105.139388"><ele>532.4318</ele><time>2026-03-26T01:27:03.000Z</time></trkpt>
        <trkpt lat="28.510506" lon="105.139323"><ele>533.17096</ele><time>2026-03-26T01:27:07.000Z</time></trkpt>
        <trkpt lat="28.510509" lon="105.139271"><ele>534.1023</ele><time>2026-03-26T01:27:09.000Z</time></trkpt>
        <trkpt lat="28.510518" lon="105.139217"><ele>534.7928</ele><time>2026-03-26T01:27:12.000Z</time></trkpt>
        <trkpt lat="28.510549" lon="105.139165"><ele>535.6587</ele><time>2026-03-26T01:27:15.000Z</time></trkpt>
        <trkpt lat="28.510598" lon="105.139119"><ele>537.1252</ele><time>2026-03-26T01:27:18.000Z</time></trkpt>
        <trkpt lat="28.510652" lon="105.139096"><ele>537.2726</ele><time>2026-03-26T01:27:21.000Z</time></trkpt>
        <trkpt lat="28.510697" lon="105.139094"><ele>537.48413</ele><time>2026-03-26T01:27:23.000Z</time></trkpt>
        <trkpt lat="28.510758" lon="105.139112"><ele>538.15796</ele><time>2026-03-26T01:27:26.000Z</time></trkpt>
        <trkpt lat="28.51081" lon="105.139147"><ele>538.7858</ele><time>2026-03-26T01:27:29.000Z</time></trkpt>
        <trkpt lat="28.510858" lon="105.139185"><ele>538.4765</ele><time>2026-03-26T01:27:32.000Z</time></trkpt>
        <trkpt lat="28.510914" lon="105.139227"><ele>537.5622</ele><time>2026-03-26T01:27:36.000Z</time></trkpt>
        <trkpt lat="28.510959" lon="105.139264"><ele>536.49835</ele><time>2026-03-26T01:27:41.000Z</time></trkpt>
        <trkpt lat="28.510994" lon="105.13929"><ele>535.3605</ele><time>2026-03-26T01:27:44.000Z</time></trkpt>
        <trkpt lat="28.511035" lon="105.139312"><ele>534.5643</ele><time>2026-03-26T01:27:47.000Z</time></trkpt>
        <trkpt lat="28.511077" lon="105.139331"><ele>533.7768</ele><time>2026-03-26T01:27:50.000Z</time></trkpt>
        <trkpt lat="28.511123" lon="105.139349"><ele>533.1857</ele><time>2026-03-26T01:27:53.000Z</time></trkpt>
        <trkpt lat="28.511176" lon="105.139377"><ele>532.4944</ele><time>2026-03-26T01:27:57.000Z</time></trkpt>
        <trkpt lat="28.51122" lon="105.139398"><ele>532.1447</ele><time>2026-03-26T01:28:00.000Z</time></trkpt>
        <trkpt lat="28.511266" lon="105.139413"><ele>532.14417</ele><time>2026-03-26T01:28:03.000Z</time></trkpt>
        <trkpt lat="28.511312" lon="105.139427"><ele>532.2993</ele><time>2026-03-26T01:28:06.000Z</time></trkpt>
        <trkpt lat="28.51136" lon="105.139436"><ele>532.0458</ele><time>2026-03-26T01:28:09.000Z</time></trkpt>
        <trkpt lat="28.511408" lon="105.139433"><ele>531.8318</ele><time>2026-03-26T01:28:12.000Z</time></trkpt>
        <trkpt lat="28.511453" lon="105.139417"><ele>531.7927</ele><time>2026-03-26T01:28:15.000Z</time></trkpt>
        <trkpt lat="28.511495" lon="105.13939"><ele>531.9574</ele><time>2026-03-26T01:28:18.000Z</time></trkpt>
        <trkpt lat="28.511533" lon="105.13935"><ele>532.0365</ele><time>2026-03-26T01:28:21.000Z</time></trkpt>
        <trkpt lat="28.511563" lon="105.139303"><ele>531.31647</ele><time>2026-03-26T01:28:24.000Z</time></trkpt>
        <trkpt lat="28.511572" lon="105.139234"><ele>529.55597</ele><time>2026-03-26T01:28:28.000Z</time></trkpt>
        <trkpt lat="28.511554" lon="105.139177"><ele>529.0251</ele><time>2026-03-26T01:28:31.000Z</time></trkpt>
        <trkpt lat="28.511527" lon="105.139122"><ele>528.73553</ele><time>2026-03-26T01:28:34.000Z</time></trkpt>
        <trkpt lat="28.511499" lon="105.13907"><ele>528.58923</ele><time>2026-03-26T01:28:37.000Z</time></trkpt>
        <trkpt lat="28.511465" lon="105.139023"><ele>528.83563</ele><time>2026-03-26T01:28:40.000Z</time></trkpt>
        <trkpt lat="28.511429" lon="105.138977"><ele>529.5919</ele><time>2026-03-26T01:28:43.000Z</time></trkpt>
        <trkpt lat="28.511396" lon="105.138933"><ele>530.1426</ele><time>2026-03-26T01:28:46.000Z</time></trkpt>
        <trkpt lat="28.511366" lon="105.138888"><ele>530.6484</ele><time>2026-03-26T01:28:49.000Z</time></trkpt>
        <trkpt lat="28.511337" lon="105.138844"><ele>531.47485</ele><time>2026-03-26T01:28:52.000Z</time></trkpt>
        <trkpt lat="28.511301" lon="105.138786"><ele>531.7343</ele><time>2026-03-26T01:28:56.000Z</time></trkpt>
        <trkpt lat="28.511264" lon="105.138732"><ele>531.76764</ele><time>2026-03-26T01:29:00.000Z</time></trkpt>
        <trkpt lat="28.511243" lon="105.138685"><ele>531.3594</ele><time>2026-03-26T01:29:03.000Z</time></trkpt>
        <trkpt lat="28.511231" lon="105.138634"><ele>531.43024</ele><time>2026-03-26T01:29:06.000Z</time></trkpt>
        <trkpt lat="28.511213" lon="105.138565"><ele>532.5306</ele><time>2026-03-26T01:29:13.000Z</time></trkpt>
        <trkpt lat="28.511201" lon="105.138522"><ele>533.7354</ele><time>2026-03-26T01:29:17.000Z</time></trkpt>
        <trkpt lat="28.511192" lon="105.138472"><ele>534.73254</ele><time>2026-03-26T01:29:21.000Z</time></trkpt>
        <trkpt lat="28.511199" lon="105.138421"><ele>535.5207</ele><time>2026-03-26T01:29:24.000Z</time></trkpt>
        <trkpt lat="28.511224" lon="105.138361"><ele>536.8149</ele><time>2026-03-26T01:29:27.000Z</time></trkpt>
        <trkpt lat="28.511273" lon="105.138314"><ele>537.24884</ele><time>2026-03-26T01:29:30.000Z</time></trkpt>
        <trkpt lat="28.511327" lon="105.138277"><ele>537.3165</ele><time>2026-03-26T01:29:34.000Z</time></trkpt>
        <trkpt lat="28.51138" lon="105.138269"><ele>537.24396</ele><time>2026-03-26T01:29:37.000Z</time></trkpt>
        <trkpt lat="28.511429" lon="105.138287"><ele>536.4618</ele><time>2026-03-26T01:29:40.000Z</time></trkpt>
        <trkpt lat="28.511488" lon="105.13832"><ele>535.1676</ele><time>2026-03-26T01:29:44.000Z</time></trkpt>
        <trkpt lat="28.511533" lon="105.138347"><ele>534.60724</ele><time>2026-03-26T01:29:47.000Z</time></trkpt>
        <trkpt lat="28.511584" lon="105.138356"><ele>533.4956</ele><time>2026-03-26T01:29:50.000Z</time></trkpt>
        <trkpt lat="28.511636" lon="105.138365"><ele>533.019</ele><time>2026-03-26T01:29:53.000Z</time></trkpt>
        <trkpt lat="28.511694" lon="105.138382"><ele>533.55914</ele><time>2026-03-26T01:29:57.000Z</time></trkpt>
        <trkpt lat="28.511753" lon="105.138391"><ele>535.0975</ele><time>2026-03-26T01:30:03.000Z</time></trkpt>
        <trkpt lat="28.511797" lon="105.138382"><ele>535.4115</ele><time>2026-03-26T01:30:07.000Z</time></trkpt>
        <trkpt lat="28.511842" lon="105.138384"><ele>535.5513</ele><time>2026-03-26T01:30:11.000Z</time></trkpt>
        <trkpt lat="28.511899" lon="105.138369"><ele>535.6332</ele><time>2026-03-26T01:30:16.000Z</time></trkpt>
        <trkpt lat="28.51194" lon="105.138352"><ele>535.82495</ele><time>2026-03-26T01:30:19.000Z</time></trkpt>
        <trkpt lat="28.511977" lon="105.13831"><ele>535.57495</ele><time>2026-03-26T01:30:23.000Z</time></trkpt>
        <trkpt lat="28.511998" lon="105.138255"><ele>535.036</ele><time>2026-03-26T01:30:27.000Z</time></trkpt>
        <trkpt lat="28.512005" lon="105.138191"><ele>534.2758</ele><time>2026-03-26T01:30:31.000Z</time></trkpt>
        <trkpt lat="28.511999" lon="105.138127"><ele>533.87195</ele><time>2026-03-26T01:30:35.000Z</time></trkpt>
        <trkpt lat="28.511995" lon="105.138067"><ele>533.5681</ele><time>2026-03-26T01:30:39.000Z</time></trkpt>
        <trkpt lat="28.511988" lon="105.138005"><ele>533.04114</ele><time>2026-03-26T01:30:43.000Z</time></trkpt>
        <trkpt lat="28.511996" lon="105.137948"><ele>533.31836</ele><time>2026-03-26T01:30:47.000Z</time></trkpt>
        <trkpt lat="28.512027" lon="105.137897"><ele>533.288</ele><time>2026-03-26T01:30:51.000Z</time></trkpt>
        <trkpt lat="28.512071" lon="105.137864"><ele>533.6037</ele><time>2026-03-26T01:30:55.000Z</time></trkpt>
        <trkpt lat="28.512123" lon="105.13785"><ele>533.63635</ele><time>2026-03-26T01:30:59.000Z</time></trkpt>
        <trkpt lat="28.512172" lon="105.137841"><ele>533.4017</ele><time>2026-03-26T01:31:02.000Z</time></trkpt>
        <trkpt lat="28.512229" lon="105.137814"><ele>532.9821</ele><time>2026-03-26T01:31:06.000Z</time></trkpt>
        <trkpt lat="28.512269" lon="105.137771"><ele>532.46234</ele><time>2026-03-26T01:31:10.000Z</time></trkpt>
        <trkpt lat="28.512289" lon="105.137722"><ele>532.1328</ele><time>2026-03-26T01:31:13.000Z</time></trkpt>
        <trkpt lat="28.512312" lon="105.137664"><ele>532.2856</ele><time>2026-03-26T01:31:17.000Z</time></trkpt>
        <trkpt lat="28.512345" lon="105.137625"><ele>533.2451</ele><time>2026-03-26T01:31:19.000Z</time></trkpt>
        <trkpt lat="28.512397" lon="105.13761"><ele>534.07294</ele><time>2026-03-26T01:31:22.000Z</time></trkpt>
        <trkpt lat="28.512465" lon="105.137618"><ele>535.7156</ele><time>2026-03-26T01:31:26.000Z</time></trkpt>
        <trkpt lat="28.512525" lon="105.137642"><ele>536.78015</ele><time>2026-03-26T01:31:29.000Z</time></trkpt>
        <trkpt lat="28.512593" lon="105.13768"><ele>537.417</ele><time>2026-03-26T01:31:34.000Z</time></trkpt>
        <trkpt lat="28.512646" lon="105.137701"><ele>537.4661</ele><time>2026-03-26T01:31:37.000Z</time></trkpt>
        <trkpt lat="28.512699" lon="105.137712"><ele>537.21466</ele><time>2026-03-26T01:31:40.000Z</time></trkpt>
        <trkpt lat="28.512749" lon="105.137717"><ele>536.99994</ele><time>2026-03-26T01:31:43.000Z</time></trkpt>
        <trkpt lat="28.512811" lon="105.137712"><ele>537.47723</ele><time>2026-03-26T01:31:47.000Z</time></trkpt>
        <trkpt lat="28.512861" lon="105.137705"><ele>537.33484</ele><time>2026-03-26T01:31:50.000Z</time></trkpt>
        <trkpt lat="28.512911" lon="105.13769"><ele>537.74896</ele><time>2026-03-26T01:31:53.000Z</time></trkpt>
        <trkpt lat="28.512951" lon="105.13766"><ele>538.022</ele><time>2026-03-26T01:31:56.000Z</time></trkpt>
        <trkpt lat="28.512981" lon="105.137614"><ele>537.8709</ele><time>2026-03-26T01:31:59.000Z</time></trkpt>
        <trkpt lat="28.513004" lon="105.137561"><ele>538.1411</ele><time>2026-03-26T01:32:02.000Z</time></trkpt>
        <trkpt lat="28.513027" lon="105.137508"><ele>537.99054</ele><time>2026-03-26T01:32:05.000Z</time></trkpt>
        <trkpt lat="28.513054" lon="105.137453"><ele>538.83826</ele><time>2026-03-26T01:32:08.000Z</time></trkpt>
        <trkpt lat="28.513087" lon="105.137388"><ele>539.0149</ele><time>2026-03-26T01:32:12.000Z</time></trkpt>
        <trkpt lat="28.513109" lon="105.137334"><ele>539.0898</ele><time>2026-03-26T01:32:15.000Z</time></trkpt>
        <trkpt lat="28.513136" lon="105.137267"><ele>538.6999</ele><time>2026-03-26T01:32:19.000Z</time></trkpt>
        <trkpt lat="28.513157" lon="105.137214"><ele>538.50494</ele><time>2026-03-26T01:32:22.000Z</time></trkpt>
        <trkpt lat="28.51317" lon="105.137157"><ele>538.59235</ele><time>2026-03-26T01:32:25.000Z</time></trkpt>
        <trkpt lat="28.513182" lon="105.137102"><ele>538.70685</ele><time>2026-03-26T01:32:28.000Z</time></trkpt>
        <trkpt lat="28.513188" lon="105.137047"><ele>538.86017</ele><time>2026-03-26T01:32:31.000Z</time></trkpt>
        <trkpt lat="28.513197" lon="105.136994"><ele>539.24774</ele><time>2026-03-26T01:32:34.000Z</time></trkpt>
        <trkpt lat="28.513205" lon="105.136937"><ele>539.87787</ele><time>2026-03-26T01:32:37.000Z</time></trkpt>
        <trkpt lat="28.513228" lon="105.136891"><ele>540.14716</ele><time>2026-03-26T01:32:40.000Z</time></trkpt>
        <trkpt lat="28.513268" lon="105.136857"><ele>539.8482</ele><time>2026-03-26T01:32:43.000Z</time></trkpt>
        <trkpt lat="28.513315" lon="105.136829"><ele>539.5289</ele><time>2026-03-26T01:32:46.000Z</time></trkpt>
        <trkpt lat="28.51336" lon="105.136803"><ele>539.3892</ele><time>2026-03-26T01:32:49.000Z</time></trkpt>
        <trkpt lat="28.513397" lon="105.136769"><ele>539.09076</ele><time>2026-03-26T01:32:52.000Z</time></trkpt>
        <trkpt lat="28.513431" lon="105.136727"><ele>539.13464</ele><time>2026-03-26T01:32:55.000Z</time></trkpt>
        <trkpt lat="28.513462" lon="105.136666"><ele>539.92114</ele><time>2026-03-26T01:32:59.000Z</time></trkpt>
        <trkpt lat="28.513493" lon="105.136624"><ele>540.64825</ele><time>2026-03-26T01:33:02.000Z</time></trkpt>
        <trkpt lat="28.513528" lon="105.136585"><ele>540.3538</ele><time>2026-03-26T01:33:05.000Z</time></trkpt>
        <trkpt lat="28.513568" lon="105.136558"><ele>540.9183</ele><time>2026-03-26T01:33:08.000Z</time></trkpt>
        <trkpt lat="28.513619" lon="105.136552"><ele>541.5722</ele><time>2026-03-26T01:33:11.000Z</time></trkpt>
        <trkpt lat="28.513657" lon="105.136582"><ele>541.67456</ele><time>2026-03-26T01:33:14.000Z</time></trkpt>
        <trkpt lat="28.513681" lon="105.136634"><ele>541.0228</ele><time>2026-03-26T01:33:17.000Z</time></trkpt>
        <trkpt lat="28.513693" lon="105.136704"><ele>541.20087</ele><time>2026-03-26T01:33:20.000Z</time></trkpt>
        <trkpt lat="28.513696" lon="105.136782"><ele>541.5059</ele><time>2026-03-26T01:33:23.000Z</time></trkpt>
        <trkpt lat="28.513705" lon="105.13686"><ele>542.07733</ele><time>2026-03-26T01:33:26.000Z</time></trkpt>
        <trkpt lat="28.513709" lon="105.136932"><ele>542.8256</ele><time>2026-03-26T01:33:29.000Z</time></trkpt>
        <trkpt lat="28.513717" lon="105.137004"><ele>542.2644</ele><time>2026-03-26T01:33:33.000Z</time></trkpt>
        <trkpt lat="28.513719" lon="105.137057"><ele>542.65094</ele><time>2026-03-26T01:33:36.000Z</time></trkpt>
        <trkpt lat="28.513729" lon="105.137107"><ele>542.3073</ele><time>2026-03-26T01:33:39.000Z</time></trkpt>
        <trkpt lat="28.513736" lon="105.13716"><ele>542.6735</ele><time>2026-03-26T01:33:42.000Z</time></trkpt>
        <trkpt lat="28.513745" lon="105.137212"><ele>543.259</ele><time>2026-03-26T01:33:45.000Z</time></trkpt>
        <trkpt lat="28.513756" lon="105.13728"><ele>544.1278</ele><time>2026-03-26T01:33:49.000Z</time></trkpt>
        <trkpt lat="28.513771" lon="105.137348"><ele>543.2047</ele><time>2026-03-26T01:33:54.000Z</time></trkpt>
        <trkpt lat="28.513783" lon="105.137404"><ele>542.7652</ele><time>2026-03-26T01:33:58.000Z</time></trkpt>
        <trkpt lat="28.513803" lon="105.137447"><ele>542.20264</ele><time>2026-03-26T01:34:01.000Z</time></trkpt>
        <trkpt lat="28.513826" lon="105.137491"><ele>542.0665</ele><time>2026-03-26T01:34:04.000Z</time></trkpt>
        <trkpt lat="28.513852" lon="105.137539"><ele>541.88995</ele><time>2026-03-26T01:34:07.000Z</time></trkpt>
        <trkpt lat="28.513892" lon="105.137589"><ele>541.77313</ele><time>2026-03-26T01:34:11.000Z</time></trkpt>
        <trkpt lat="28.513926" lon="105.137625"><ele>541.7032</ele><time>2026-03-26T01:34:14.000Z</time></trkpt>
        <trkpt lat="28.513966" lon="105.137654"><ele>541.50745</ele><time>2026-03-26T01:34:17.000Z</time></trkpt>
        <trkpt lat="28.514009" lon="105.13768"><ele>541.3828</ele><time>2026-03-26T01:34:20.000Z</time></trkpt>
        <trkpt lat="28.514056" lon="105.137701"><ele>541.6693</ele><time>2026-03-26T01:34:23.000Z</time></trkpt>
        <trkpt lat="28.51412" lon="105.137716"><ele>541.3203</ele><time>2026-03-26T01:34:27.000Z</time></trkpt>
        <trkpt lat="28.51417" lon="105.137717"><ele>541.11346</ele><time>2026-03-26T01:34:30.000Z</time></trkpt>
        <trkpt lat="28.514218" lon="105.137722"><ele>541.06226</ele><time>2026-03-26T01:34:33.000Z</time></trkpt>
        <trkpt lat="28.514265" lon="105.137712"><ele>541.2462</ele><time>2026-03-26T01:34:36.000Z</time></trkpt>
        <trkpt lat="28.514321" lon="105.137689"><ele>541.2547</ele><time>2026-03-26T01:34:40.000Z</time></trkpt>
        <trkpt lat="28.514359" lon="105.13766"><ele>541.4562</ele><time>2026-03-26T01:34:43.000Z</time></trkpt>
        <trkpt lat="28.514402" lon="105.137622"><ele>541.515</ele><time>2026-03-26T01:34:47.000Z</time></trkpt>
        <trkpt lat="28.514448" lon="105.137576"><ele>540.90106</ele><time>2026-03-26T01:34:53.000Z</time></trkpt>
        <trkpt lat="28.51448" lon="105.137532"><ele>540.88226</ele><time>2026-03-26T01:34:58.000Z</time></trkpt>
        <trkpt lat="28.514461" lon="105.137556"><ele>541.34076</ele><time>2026-03-26T01:35:06.000Z</time></trkpt>
        <trkpt lat="28.514424" lon="105.137586"><ele>541.8542</ele><time>2026-03-26T01:35:09.000Z</time></trkpt>
        <trkpt lat="28.514451" lon="105.137581"><ele>540.74347</ele><time>2026-03-26T01:35:24.000Z</time></trkpt>
        <trkpt lat="28.514487" lon="105.137552"><ele>540.5301</ele><time>2026-03-26T01:35:28.000Z</time></trkpt>
        <trkpt lat="28.514521" lon="105.137511"><ele>541.1713</ele><time>2026-03-26T01:35:31.000Z</time></trkpt>
        <trkpt lat="28.514554" lon="105.137467"><ele>541.802</ele><time>2026-03-26T01:35:35.000Z</time></trkpt>
        <trkpt lat="28.514576" lon="105.137424"><ele>542.58093</ele><time>2026-03-26T01:35:38.000Z</time></trkpt>
        <trkpt lat="28.514603" lon="105.137368"><ele>543.3898</ele><time>2026-03-26T01:35:42.000Z</time></trkpt>
        <trkpt lat="28.514636" lon="105.137315"><ele>543.90314</ele><time>2026-03-26T01:35:46.000Z</time></trkpt>
        <trkpt lat="28.514679" lon="105.137267"><ele>544.3477</ele><time>2026-03-26T01:35:51.000Z</time></trkpt>
        <trkpt lat="28.514714" lon="105.137219"><ele>544.6724</ele><time>2026-03-26T01:35:55.000Z</time></trkpt>
        <trkpt lat="28.514742" lon="105.137181"><ele>544.7384</ele><time>2026-03-26T01:35:58.000Z</time></trkpt>
        <trkpt lat="28.51478" lon="105.137144"><ele>544.99493</ele><time>2026-03-26T01:36:01.000Z</time></trkpt>
        <trkpt lat="28.51484" lon="105.137121"><ele>545.1898</ele><time>2026-03-26T01:36:05.000Z</time></trkpt>
        <trkpt lat="28.514882" lon="105.137126"><ele>545.2002</ele><time>2026-03-26T01:36:07.000Z</time></trkpt>
        <trkpt lat="28.51493" lon="105.137157"><ele>545.4569</ele><time>2026-03-26T01:36:10.000Z</time></trkpt>
        <trkpt lat="28.51496" lon="105.137214"><ele>546.46344</ele><time>2026-03-26T01:36:13.000Z</time></trkpt>
        <trkpt lat="28.514975" lon="105.137282"><ele>547.01056</ele><time>2026-03-26T01:36:16.000Z</time></trkpt>
        <trkpt lat="28.51498" lon="105.137356"><ele>547.83435</ele><time>2026-03-26T01:36:19.000Z</time></trkpt>
        <trkpt lat="28.51498" lon="105.137426"><ele>548.2134</ele><time>2026-03-26T01:36:22.000Z</time></trkpt>
        <trkpt lat="28.514972" lon="105.137498"><ele>547.8949</ele><time>2026-03-26T01:36:26.000Z</time></trkpt>
        <trkpt lat="28.514962" lon="105.137549"><ele>547.3089</ele><time>2026-03-26T01:36:29.000Z</time></trkpt>
        <trkpt lat="28.514958" lon="105.137601"><ele>546.97485</ele><time>2026-03-26T01:36:32.000Z</time></trkpt>
        <trkpt lat="28.514962" lon="105.137665"><ele>546.05145</ele><time>2026-03-26T01:36:36.000Z</time></trkpt>
        <trkpt lat="28.514969" lon="105.137716"><ele>544.9377</ele><time>2026-03-26T01:36:39.000Z</time></trkpt>
        <trkpt lat="28.51498" lon="105.137771"><ele>543.9953</ele><time>2026-03-26T01:36:42.000Z</time></trkpt>
        <trkpt lat="28.514988" lon="105.137827"><ele>543.6003</ele><time>2026-03-26T01:36:45.000Z</time></trkpt>
        <trkpt lat="28.515002" lon="105.137884"><ele>543.9007</ele><time>2026-03-26T01:36:48.000Z</time></trkpt>
        <trkpt lat="28.515018" lon="105.137942"><ele>543.90454</ele><time>2026-03-26T01:36:51.000Z</time></trkpt>
        <trkpt lat="28.51503" lon="105.137999"><ele>544.3186</ele><time>2026-03-26T01:36:54.000Z</time></trkpt>
        <trkpt lat="28.515046" lon="105.138052"><ele>544.4058</ele><time>2026-03-26T01:36:57.000Z</time></trkpt>
        <trkpt lat="28.515074" lon="105.138114"><ele>544.1587</ele><time>2026-03-26T01:37:01.000Z</time></trkpt>
        <trkpt lat="28.515106" lon="105.138153"><ele>544.1071</ele><time>2026-03-26T01:37:04.000Z</time></trkpt>
        <trkpt lat="28.515144" lon="105.138192"><ele>544.2346</ele><time>2026-03-26T01:37:07.000Z</time></trkpt>
        <trkpt lat="28.515189" lon="105.13822"><ele>544.6864</ele><time>2026-03-26T01:37:10.000Z</time></trkpt>
        <trkpt lat="28.515245" lon="105.138244"><ele>545.0595</ele><time>2026-03-26T01:37:14.000Z</time></trkpt>
        <trkpt lat="28.51529" lon="105.138236"><ele>545.25726</ele><time>2026-03-26T01:37:17.000Z</time></trkpt>
        <trkpt lat="28.515337" lon="105.138221"><ele>545.31506</ele><time>2026-03-26T01:37:20.000Z</time></trkpt>
        <trkpt lat="28.515387" lon="105.138201"><ele>545.35144</ele><time>2026-03-26T01:37:23.000Z</time></trkpt>
        <trkpt lat="28.515436" lon="105.138175"><ele>544.50964</ele><time>2026-03-26T01:37:26.000Z</time></trkpt>
        <trkpt lat="28.515492" lon="105.138148"><ele>544.4186</ele><time>2026-03-26T01:37:29.000Z</time></trkpt>
        <trkpt lat="28.515556" lon="105.138117"><ele>544.18536</ele><time>2026-03-26T01:37:33.000Z</time></trkpt>
        <trkpt lat="28.515609" lon="105.138107"><ele>543.5531</ele><time>2026-03-26T01:37:36.000Z</time></trkpt>
        <trkpt lat="28.515642" lon="105.138126"><ele>543.91486</ele><time>2026-03-26T01:37:37.000Z</time></trkpt>
        <trkpt lat="28.515679" lon="105.138169"><ele>544.47406</ele><time>2026-03-26T01:37:40.000Z</time></trkpt>
        <trkpt lat="28.515692" lon="105.13823"><ele>545.3421</ele><time>2026-03-26T01:37:43.000Z</time></trkpt>
        <trkpt lat="28.515682" lon="105.138299"><ele>546.1498</ele><time>2026-03-26T01:37:46.000Z</time></trkpt>
        <trkpt lat="28.515661" lon="105.138362"><ele>546.6706</ele><time>2026-03-26T01:37:50.000Z</time></trkpt>
        <trkpt lat="28.515638" lon="105.138421"><ele>546.432</ele><time>2026-03-26T01:37:53.000Z</time></trkpt>
        <trkpt lat="28.515612" lon="105.138493"><ele>545.804</ele><time>2026-03-26T01:37:57.000Z</time></trkpt>
        <trkpt lat="28.515603" lon="105.138545"><ele>545.2468</ele><time>2026-03-26T01:38:00.000Z</time></trkpt>
        <trkpt lat="28.515611" lon="105.138603"><ele>546.0969</ele><time>2026-03-26T01:38:04.000Z</time></trkpt>
        <trkpt lat="28.515618" lon="105.138649"><ele>547.0461</ele><time>2026-03-26T01:38:07.000Z</time></trkpt>
        <trkpt lat="28.515628" lon="105.1387"><ele>546.9513</ele><time>2026-03-26T01:38:10.000Z</time></trkpt>
        <trkpt lat="28.515636" lon="105.138753"><ele>546.29346</ele><time>2026-03-26T01:38:13.000Z</time></trkpt>
        <trkpt lat="28.51565" lon="105.138827"><ele>545.29675</ele><time>2026-03-26T01:38:18.000Z</time></trkpt>
        <trkpt lat="28.515648" lon="105.138885"><ele>544.6939</ele><time>2026-03-26T01:38:22.000Z</time></trkpt>
        <trkpt lat="28.515657" lon="105.138938"><ele>544.326</ele><time>2026-03-26T01:38:26.000Z</time></trkpt>
        <trkpt lat="28.515681" lon="105.138985"><ele>544.3894</ele><time>2026-03-26T01:38:30.000Z</time></trkpt>
        <trkpt lat="28.515718" lon="105.13902"><ele>544.88336</ele><time>2026-03-26T01:38:34.000Z</time></trkpt>
        <trkpt lat="28.515769" lon="105.139044"><ele>545.5268</ele><time>2026-03-26T01:38:38.000Z</time></trkpt>
        <trkpt lat="28.515826" lon="105.139045"><ele>545.74176</ele><time>2026-03-26T01:38:42.000Z</time></trkpt>
        <trkpt lat="28.515878" lon="105.139023"><ele>545.3038</ele><time>2026-03-26T01:38:46.000Z</time></trkpt>
        <trkpt lat="28.515919" lon="105.138994"><ele>545.0427</ele><time>2026-03-26T01:38:49.000Z</time></trkpt>
        <trkpt lat="28.515964" lon="105.138953"><ele>545.29895</ele><time>2026-03-26T01:38:53.000Z</time></trkpt>
        <trkpt lat="28.516009" lon="105.138915"><ele>545.77515</ele><time>2026-03-26T01:38:57.000Z</time></trkpt>
        <trkpt lat="28.516055" lon="105.138879"><ele>546.0663</ele><time>2026-03-26T01:39:01.000Z</time></trkpt>
        <trkpt lat="28.516092" lon="105.138853"><ele>546.4612</ele><time>2026-03-26T01:39:04.000Z</time></trkpt>
        <trkpt lat="28.516143" lon="105.138821"><ele>546.9078</ele><time>2026-03-26T01:39:08.000Z</time></trkpt>
        <trkpt lat="28.516192" lon="105.138791"><ele>547.38763</ele><time>2026-03-26T01:39:12.000Z</time></trkpt>
        <trkpt lat="28.516239" lon="105.138754"><ele>547.7901</ele><time>2026-03-26T01:39:16.000Z</time></trkpt>
        <trkpt lat="28.516282" lon="105.13871"><ele>547.36346</ele><time>2026-03-26T01:39:20.000Z</time></trkpt>
        <trkpt lat="28.516321" lon="105.138661"><ele>547.5747</ele><time>2026-03-26T01:39:24.000Z</time></trkpt>
        <trkpt lat="28.516358" lon="105.13861"><ele>547.9103</ele><time>2026-03-26T01:39:28.000Z</time></trkpt>
        <trkpt lat="28.516404" lon="105.138567"><ele>547.6712</ele><time>2026-03-26T01:39:32.000Z</time></trkpt>
        <trkpt lat="28.516453" lon="105.138528"><ele>547.1342</ele><time>2026-03-26T01:39:36.000Z</time></trkpt>
        <trkpt lat="28.516496" lon="105.138512"><ele>546.55865</ele><time>2026-03-26T01:39:39.000Z</time></trkpt>
        <trkpt lat="28.51654" lon="105.138512"><ele>546.36383</ele><time>2026-03-26T01:39:42.000Z</time></trkpt>
        <trkpt lat="28.516578" lon="105.138539"><ele>546.52075</ele><time>2026-03-26T01:39:44.000Z</time></trkpt>
        <trkpt lat="28.516607" lon="105.138583"><ele>546.7639</ele><time>2026-03-26T01:39:47.000Z</time></trkpt>
        <trkpt lat="28.516634" lon="105.138647"><ele>546.15247</ele><time>2026-03-26T01:39:51.000Z</time></trkpt>
        <trkpt lat="28.516651" lon="105.138718"><ele>545.8862</ele><time>2026-03-26T01:39:55.000Z</time></trkpt>
        <trkpt lat="28.516667" lon="105.138784"><ele>545.68286</ele><time>2026-03-26T01:39:59.000Z</time></trkpt>
        <trkpt lat="28.516768" lon="105.13883"><ele>545.70544</ele><time>2026-03-26T01:40:03.000Z</time></trkpt>
        <trkpt lat="28.516753" lon="105.138844"><ele>545.5993</ele><time>2026-03-26T01:40:04.000Z</time></trkpt>
        <trkpt lat="28.516764" lon="105.138892"><ele>545.6729</ele><time>2026-03-26T01:40:08.000Z</time></trkpt>
        <trkpt lat="28.516787" lon="105.138924"><ele>545.9258</ele><time>2026-03-26T01:40:12.000Z</time></trkpt>
        <trkpt lat="28.51682" lon="105.138933"><ele>546.2223</ele><time>2026-03-26T01:40:15.000Z</time></trkpt>
        <trkpt lat="28.516875" lon="105.138925"><ele>546.26624</ele><time>2026-03-26T01:40:19.000Z</time></trkpt>
        <trkpt lat="28.516937" lon="105.138903"><ele>546.1269</ele><time>2026-03-26T01:40:23.000Z</time></trkpt>
        <trkpt lat="28.516995" lon="105.138875"><ele>545.7705</ele><time>2026-03-26T01:40:27.000Z</time></trkpt>
        <trkpt lat="28.517049" lon="105.138852"><ele>545.7612</ele><time>2026-03-26T01:40:31.000Z</time></trkpt>
        <trkpt lat="28.517096" lon="105.138853"><ele>546.5566</ele><time>2026-03-26T01:40:35.000Z</time></trkpt>
        <trkpt lat="28.517139" lon="105.138883"><ele>546.9551</ele><time>2026-03-26T01:40:40.000Z</time></trkpt>
        <trkpt lat="28.517162" lon="105.138941"><ele>547.3891</ele><time>2026-03-26T01:40:45.000Z</time></trkpt>
        <trkpt lat="28.517154" lon="105.138991"><ele>548.1985</ele><time>2026-03-26T01:40:48.000Z</time></trkpt>
        <trkpt lat="28.517138" lon="105.139053"><ele>549.261</ele><time>2026-03-26T01:40:52.000Z</time></trkpt>
        <trkpt lat="28.517119" lon="105.139114"><ele>550.293</ele><time>2026-03-26T01:40:56.000Z</time></trkpt>
        <trkpt lat="28.5171" lon="105.139174"><ele>550.0301</ele><time>2026-03-26T01:41:00.000Z</time></trkpt>
        <trkpt lat="28.51708" lon="105.139232"><ele>549.6406</ele><time>2026-03-26T01:41:04.000Z</time></trkpt>
        <trkpt lat="28.517062" lon="105.139289"><ele>549.0522</ele><time>2026-03-26T01:41:08.000Z</time></trkpt>
        <trkpt lat="28.517051" lon="105.13935"><ele>547.80945</ele><time>2026-03-26T01:41:12.000Z</time></trkpt>
        <trkpt lat="28.517045" lon="105.139412"><ele>546.5472</ele><time>2026-03-26T01:41:16.000Z</time></trkpt>
        <trkpt lat="28.517049" lon="105.139474"><ele>545.5358</ele><time>2026-03-26T01:41:20.000Z</time></trkpt>
        <trkpt lat="28.517057" lon="105.139535"><ele>544.66766</ele><time>2026-03-26T01:41:24.000Z</time></trkpt>
        <trkpt lat="28.517077" lon="105.139593"><ele>544.5589</ele><time>2026-03-26T01:41:28.000Z</time></trkpt>
        <trkpt lat="28.5171" lon="105.139649"><ele>544.8507</ele><time>2026-03-26T01:41:32.000Z</time></trkpt>
        <trkpt lat="28.51713" lon="105.139703"><ele>544.97705</ele><time>2026-03-26T01:41:36.000Z</time></trkpt>
        <trkpt lat="28.517171" lon="105.139747"><ele>544.9468</ele><time>2026-03-26T01:41:40.000Z</time></trkpt>
        <trkpt lat="28.517223" lon="105.139776"><ele>545.1413</ele><time>2026-03-26T01:41:44.000Z</time></trkpt>
        <trkpt lat="28.51728" lon="105.139793"><ele>545.6638</ele><time>2026-03-26T01:41:48.000Z</time></trkpt>
        <trkpt lat="28.517338" lon="105.139792"><ele>546.4334</ele><time>2026-03-26T01:41:51.000Z</time></trkpt>
        <trkpt lat="28.517393" lon="105.139783"><ele>547.3451</ele><time>2026-03-26T01:41:55.000Z</time></trkpt>
        <trkpt lat="28.517445" lon="105.139767"><ele>547.4155</ele><time>2026-03-26T01:41:59.000Z</time></trkpt>
        <trkpt lat="28.517497" lon="105.139755"><ele>548.1497</ele><time>2026-03-26T01:42:03.000Z</time></trkpt>
        <trkpt lat="28.517551" lon="105.139736"><ele>548.049</ele><time>2026-03-26T01:42:07.000Z</time></trkpt>
        <trkpt lat="28.51759" lon="105.139713"><ele>547.686</ele><time>2026-03-26T01:42:10.000Z</time></trkpt>
        <trkpt lat="28.517633" lon="105.139691"><ele>547.81</ele><time>2026-03-26T01:42:13.000Z</time></trkpt>
        <trkpt lat="28.517692" lon="105.139658"><ele>548.4949</ele><time>2026-03-26T01:42:17.000Z</time></trkpt>
        <trkpt lat="28.517746" lon="105.139627"><ele>549.33234</ele><time>2026-03-26T01:42:21.000Z</time></trkpt>
        <trkpt lat="28.517788" lon="105.139602"><ele>549.5324</ele><time>2026-03-26T01:42:24.000Z</time></trkpt>
        <trkpt lat="28.517832" lon="105.139584"><ele>549.51154</ele><time>2026-03-26T01:42:27.000Z</time></trkpt>
        <trkpt lat="28.51789" lon="105.139569"><ele>550.4247</ele><time>2026-03-26T01:42:31.000Z</time></trkpt>
        <trkpt lat="28.517942" lon="105.139574"><ele>551.40454</ele><time>2026-03-26T01:42:35.000Z</time></trkpt>
        <trkpt lat="28.517977" lon="105.139619"><ele>552.40765</ele><time>2026-03-26T01:42:39.000Z</time></trkpt>
        <trkpt lat="28.517984" lon="105.139674"><ele>552.98236</ele><time>2026-03-26T01:42:43.000Z</time></trkpt>
        <trkpt lat="28.517996" lon="105.139729"><ele>553.812</ele><time>2026-03-26T01:42:46.000Z</time></trkpt>
        <trkpt lat="28.518018" lon="105.139783"><ele>554.2916</ele><time>2026-03-26T01:42:49.000Z</time></trkpt>
        <trkpt lat="28.518051" lon="105.139823"><ele>555.0859</ele><time>2026-03-26T01:42:52.000Z</time></trkpt>
        <trkpt lat="28.518091" lon="105.13986"><ele>556.014</ele><time>2026-03-26T01:42:55.000Z</time></trkpt>
        <trkpt lat="28.518135" lon="105.139883"><ele>556.5781</ele><time>2026-03-26T01:42:58.000Z</time></trkpt>
        <trkpt lat="28.518196" lon="105.139894"><ele>555.6328</ele><time>2026-03-26T01:43:02.000Z</time></trkpt>
        <trkpt lat="28.518259" lon="105.13988"><ele>555.0768</ele><time>2026-03-26T01:43:06.000Z</time></trkpt>
        <trkpt lat="28.518311" lon="105.139865"><ele>554.73895</ele><time>2026-03-26T01:43:09.000Z</time></trkpt>
        <trkpt lat="28.518359" lon="105.139843"><ele>554.5695</ele><time>2026-03-26T01:43:12.000Z</time></trkpt>
        <trkpt lat="28.518407" lon="105.139828"><ele>554.65985</ele><time>2026-03-26T01:43:15.000Z</time></trkpt>
        <trkpt lat="28.518456" lon="105.139828"><ele>555.7236</ele><time>2026-03-26T01:43:18.000Z</time></trkpt>
        <trkpt lat="28.518506" lon="105.139833"><ele>556.7952</ele><time>2026-03-26T01:43:21.000Z</time></trkpt>
        <trkpt lat="28.518553" lon="105.139839"><ele>557.66345</ele><time>2026-03-26T01:43:24.000Z</time></trkpt>
        <trkpt lat="28.518601" lon="105.139844"><ele>558.30664</ele><time>2026-03-26T01:43:27.000Z</time></trkpt>
        <trkpt lat="28.518648" lon="105.139837"><ele>558.9015</ele><time>2026-03-26T01:43:30.000Z</time></trkpt>
        <trkpt lat="28.518694" lon="105.139828"><ele>559.94257</ele><time>2026-03-26T01:43:33.000Z</time></trkpt>
        <trkpt lat="28.518743" lon="105.139817"><ele>561.1332</ele><time>2026-03-26T01:43:36.000Z</time></trkpt>
        <trkpt lat="28.51879" lon="105.13981"><ele>562.6013</ele><time>2026-03-26T01:43:39.000Z</time></trkpt>
        <trkpt lat="28.518849" lon="105.139809"><ele>564.6717</ele><time>2026-03-26T01:43:43.000Z</time></trkpt>
        <trkpt lat="28.518882" lon="105.139851"><ele>566.21124</ele><time>2026-03-26T01:43:48.000Z</time></trkpt>
        <trkpt lat="28.518871" lon="105.139898"><ele>567.21027</ele><time>2026-03-26T01:43:51.000Z</time></trkpt>
        <trkpt lat="28.518849" lon="105.139947"><ele>567.73804</ele><time>2026-03-26T01:43:54.000Z</time></trkpt>
        <trkpt lat="28.518814" lon="105.140011"><ele>569.24817</ele><time>2026-03-26T01:43:58.000Z</time></trkpt>
        <trkpt lat="28.518771" lon="105.140067"><ele>569.91754</ele><time>2026-03-26T01:44:02.000Z</time></trkpt>
        <trkpt lat="28.518737" lon="105.140109"><ele>570.05817</ele><time>2026-03-26T01:44:05.000Z</time></trkpt>
        <trkpt lat="28.518707" lon="105.140153"><ele>570.17035</ele><time>2026-03-26T01:44:08.000Z</time></trkpt>
        <trkpt lat="28.518669" lon="105.14021"><ele>569.9567</ele><time>2026-03-26T01:44:12.000Z</time></trkpt>
        <trkpt lat="28.518649" lon="105.140259"><ele>569.6644</ele><time>2026-03-26T01:44:15.000Z</time></trkpt>
        <trkpt lat="28.518637" lon="105.140324"><ele>568.66174</ele><time>2026-03-26T01:44:19.000Z</time></trkpt>
        <trkpt lat="28.518645" lon="105.14039"><ele>567.40515</ele><time>2026-03-26T01:44:23.000Z</time></trkpt>
        <trkpt lat="28.518664" lon="105.140441"><ele>566.4372</ele><time>2026-03-26T01:44:26.000Z</time></trkpt>
        <trkpt lat="28.518684" lon="105.140494"><ele>565.0508</ele><time>2026-03-26T01:44:29.000Z</time></trkpt>
        <trkpt lat="28.518699" lon="105.140567"><ele>564.2696</ele><time>2026-03-26T01:44:34.000Z</time></trkpt>
        <trkpt lat="28.518697" lon="105.140626"><ele>564.26624</ele><time>2026-03-26T01:44:38.000Z</time></trkpt>
        <trkpt lat="28.518714" lon="105.140684"><ele>564.54016</ele><time>2026-03-26T01:44:44.000Z</time></trkpt>
        <trkpt lat="28.518752" lon="105.140695"><ele>565.8015</ele><time>2026-03-26T01:44:48.000Z</time></trkpt>
        <trkpt lat="28.518803" lon="105.140695"><ele>567.04846</ele><time>2026-03-26T01:44:53.000Z</time></trkpt>
        <trkpt lat="28.518845" lon="105.140723"><ele>570.3002</ele><time>2026-03-26T01:45:01.000Z</time></trkpt>
        <trkpt lat="28.518838" lon="105.140665"><ele>571.76904</ele><time>2026-03-26T01:45:13.000Z</time></trkpt>
        <trkpt lat="28.5188" lon="105.140645"><ele>571.9111</ele><time>2026-03-26T01:45:17.000Z</time></trkpt>
        <trkpt lat="28.518758" lon="105.140627"><ele>570.92346</ele><time>2026-03-26T01:45:20.000Z</time></trkpt>
        <trkpt lat="28.518717" lon="105.140617"><ele>569.9783</ele><time>2026-03-26T01:45:22.000Z</time></trkpt>
        <trkpt lat="28.518659" lon="105.140594"><ele>569.4246</ele><time>2026-03-26T01:45:25.000Z</time></trkpt>
        <trkpt lat="28.518589" lon="105.140577"><ele>568.40515</ele><time>2026-03-26T01:45:29.000Z</time></trkpt>
        <trkpt lat="28.518529" lon="105.140556"><ele>566.4111</ele><time>2026-03-26T01:45:33.000Z</time></trkpt>
        <trkpt lat="28.518484" lon="105.140539"><ele>565.8455</ele><time>2026-03-26T01:45:36.000Z</time></trkpt>
        <trkpt lat="28.518424" lon="105.140531"><ele>565.1433</ele><time>2026-03-26T01:45:40.000Z</time></trkpt>
        <trkpt lat="28.518369" lon="105.140547"><ele>564.1711</ele><time>2026-03-26T01:45:44.000Z</time></trkpt>
        <trkpt lat="28.518319" lon="105.14056"><ele>562.28986</ele><time>2026-03-26T01:45:48.000Z</time></trkpt>
        <trkpt lat="28.518272" lon="105.140571"><ele>561.7808</ele><time>2026-03-26T01:45:51.000Z</time></trkpt>
        <trkpt lat="28.518221" lon="105.140582"><ele>561.8321</ele><time>2026-03-26T01:45:54.000Z</time></trkpt>
        <trkpt lat="28.518174" lon="105.140599"><ele>561.82715</ele><time>2026-03-26T01:45:57.000Z</time></trkpt>
        <trkpt lat="28.518128" lon="105.140616"><ele>562.1746</ele><time>2026-03-26T01:46:00.000Z</time></trkpt>
        <trkpt lat="28.518084" lon="105.140639"><ele>561.8153</ele><time>2026-03-26T01:46:03.000Z</time></trkpt>
        <trkpt lat="28.518037" lon="105.140667"><ele>560.93463</ele><time>2026-03-26T01:46:07.000Z</time></trkpt>
        <trkpt lat="28.517999" lon="105.140693"><ele>560.121</ele><time>2026-03-26T01:46:10.000Z</time></trkpt>
        <trkpt lat="28.517961" lon="105.140724"><ele>559.3233</ele><time>2026-03-26T01:46:13.000Z</time></trkpt>
        <trkpt lat="28.517924" lon="105.140755"><ele>559.49384</ele><time>2026-03-26T01:46:16.000Z</time></trkpt>
        <trkpt lat="28.517896" lon="105.140786"><ele>559.85394</ele><time>2026-03-26T01:46:18.000Z</time></trkpt>
        <trkpt lat="28.517863" lon="105.140833"><ele>559.6264</ele><time>2026-03-26T01:46:21.000Z</time></trkpt>
        <trkpt lat="28.517839" lon="105.140887"><ele>559.1926</ele><time>2026-03-26T01:46:24.000Z</time></trkpt>
        <trkpt lat="28.517828" lon="105.140944"><ele>558.5221</ele><time>2026-03-26T01:46:27.000Z</time></trkpt>
        <trkpt lat="28.517827" lon="105.141001"><ele>557.7446</ele><time>2026-03-26T01:46:30.000Z</time></trkpt>
        <trkpt lat="28.517836" lon="105.141058"><ele>557.60706</ele><time>2026-03-26T01:46:33.000Z</time></trkpt>
        <trkpt lat="28.517853" lon="105.141114"><ele>557.6489</ele><time>2026-03-26T01:46:36.000Z</time></trkpt>
        <trkpt lat="28.517879" lon="105.141164"><ele>557.6977</ele><time>2026-03-26T01:46:39.000Z</time></trkpt>
        <trkpt lat="28.517907" lon="105.141215"><ele>558.2103</ele><time>2026-03-26T01:46:42.000Z</time></trkpt>
        <trkpt lat="28.517937" lon="105.141263"><ele>558.0099</ele><time>2026-03-26T01:46:45.000Z</time></trkpt>
        <trkpt lat="28.517961" lon="105.141318"><ele>558.55615</ele><time>2026-03-26T01:46:48.000Z</time></trkpt>
        <trkpt lat="28.51799" lon="105.141384"><ele>558.9743</ele><time>2026-03-26T01:46:52.000Z</time></trkpt>
        <trkpt lat="28.518014" lon="105.141446"><ele>559.11914</ele><time>2026-03-26T01:46:56.000Z</time></trkpt>
        <trkpt lat="28.518013" lon="105.141502"><ele>559.65625</ele><time>2026-03-26T01:47:00.000Z</time></trkpt>
        <trkpt lat="28.517989" lon="105.14154"><ele>560.75696</ele><time>2026-03-26T01:47:03.000Z</time></trkpt>
        <trkpt lat="28.517941" lon="105.141574"><ele>561.6143</ele><time>2026-03-26T01:47:07.000Z</time></trkpt>
        <trkpt lat="28.517877" lon="105.141586"><ele>561.77783</ele><time>2026-03-26T01:47:11.000Z</time></trkpt>
        <trkpt lat="28.517884" lon="105.141572"><ele>560.63275</ele><time>2026-03-26T01:47:20.000Z</time></trkpt>
        <trkpt lat="28.51793" lon="105.141561"><ele>560.29205</ele><time>2026-03-26T01:47:24.000Z</time></trkpt>
        <trkpt lat="28.517915" lon="105.141558"><ele>559.84973</ele><time>2026-03-26T01:47:29.000Z</time></trkpt>
        <trkpt lat="28.517872" lon="105.141564"><ele>559.7395</ele><time>2026-03-26T01:47:32.000Z</time></trkpt>
        <trkpt lat="28.517822" lon="105.141569"><ele>559.79584</ele><time>2026-03-26T01:47:35.000Z</time></trkpt>
        <trkpt lat="28.517758" lon="105.141568"><ele>561.07263</ele><time>2026-03-26T01:47:39.000Z</time></trkpt>
        <trkpt lat="28.517704" lon="105.14156"><ele>561.6222</ele><time>2026-03-26T01:47:42.000Z</time></trkpt>
        <trkpt lat="28.517652" lon="105.141552"><ele>561.4841</ele><time>2026-03-26T01:47:45.000Z</time></trkpt>
        <trkpt lat="28.517596" lon="105.141541"><ele>560.4278</ele><time>2026-03-26T01:47:49.000Z</time></trkpt>
        <trkpt lat="28.517552" lon="105.141523"><ele>558.9714</ele><time>2026-03-26T01:47:52.000Z</time></trkpt>
        <trkpt lat="28.517508" lon="105.141505"><ele>558.0127</ele><time>2026-03-26T01:47:55.000Z</time></trkpt>
        <trkpt lat="28.517465" lon="105.141489"><ele>557.2551</ele><time>2026-03-26T01:47:58.000Z</time></trkpt>
        <trkpt lat="28.51742" lon="105.141474"><ele>556.98145</ele><time>2026-03-26T01:48:01.000Z</time></trkpt>
        <trkpt lat="28.517373" lon="105.141465"><ele>557.0456</ele><time>2026-03-26T01:48:04.000Z</time></trkpt>
        <trkpt lat="28.517322" lon="105.141461"><ele>557.23553</ele><time>2026-03-26T01:48:07.000Z</time></trkpt>
        <trkpt lat="28.517272" lon="105.141467"><ele>557.29016</ele><time>2026-03-26T01:48:10.000Z</time></trkpt>
        <trkpt lat="28.517204" lon="105.141482"><ele>557.56244</ele><time>2026-03-26T01:48:14.000Z</time></trkpt>
        <trkpt lat="28.517155" lon="105.14151"><ele>557.3744</ele><time>2026-03-26T01:48:17.000Z</time></trkpt>
        <trkpt lat="28.517111" lon="105.141549"><ele>557.15424</ele><time>2026-03-26T01:48:20.000Z</time></trkpt>
        <trkpt lat="28.517079" lon="105.141595"><ele>556.75366</ele><time>2026-03-26T01:48:23.000Z</time></trkpt>
        <trkpt lat="28.517051" lon="105.141644"><ele>556.4865</ele><time>2026-03-26T01:48:26.000Z</time></trkpt>
        <trkpt lat="28.517037" lon="105.141705"><ele>555.01196</ele><time>2026-03-26T01:48:29.000Z</time></trkpt>
        <trkpt lat="28.517038" lon="105.14177"><ele>552.5545</ele><time>2026-03-26T01:48:32.000Z</time></trkpt>
        <trkpt lat="28.517051" lon="105.141831"><ele>550.1997</ele><time>2026-03-26T01:48:35.000Z</time></trkpt>
        <trkpt lat="28.517074" lon="105.141885"><ele>548.0835</ele><time>2026-03-26T01:48:38.000Z</time></trkpt>
        <trkpt lat="28.517104" lon="105.141939"><ele>547.17865</ele><time>2026-03-26T01:48:41.000Z</time></trkpt>
        <trkpt lat="28.517151" lon="105.141991"><ele>546.326</ele><time>2026-03-26T01:48:45.000Z</time></trkpt>
        <trkpt lat="28.517196" lon="105.142018"><ele>546.0779</ele><time>2026-03-26T01:48:48.000Z</time></trkpt>
        <trkpt lat="28.517241" lon="105.142038"><ele>546.1728</ele><time>2026-03-26T01:48:51.000Z</time></trkpt>
        <trkpt lat="28.517289" lon="105.142061"><ele>546.34106</ele><time>2026-03-26T01:48:54.000Z</time></trkpt>
        <trkpt lat="28.517335" lon="105.142085"><ele>546.57526</ele><time>2026-03-26T01:48:57.000Z</time></trkpt>
        <trkpt lat="28.517379" lon="105.142118"><ele>546.94226</ele><time>2026-03-26T01:49:00.000Z</time></trkpt>
        <trkpt lat="28.517421" lon="105.142149"><ele>547.36914</ele><time>2026-03-26T01:49:03.000Z</time></trkpt>
        <trkpt lat="28.517465" lon="105.142185"><ele>548.2523</ele><time>2026-03-26T01:49:06.000Z</time></trkpt>
        <trkpt lat="28.517505" lon="105.142222"><ele>549.3281</ele><time>2026-03-26T01:49:09.000Z</time></trkpt>
        <trkpt lat="28.51756" lon="105.142265"><ele>550.83496</ele><time>2026-03-26T01:49:13.000Z</time></trkpt>
        <trkpt lat="28.517605" lon="105.142296"><ele>552.1811</ele><time>2026-03-26T01:49:17.000Z</time></trkpt>
        <trkpt lat="28.517643" lon="105.142334"><ele>552.7974</ele><time>2026-03-26T01:49:21.000Z</time></trkpt>
        <trkpt lat="28.517662" lon="105.142394"><ele>554</ele><time>2026-03-26T01:49:25.000Z</time></trkpt>
        <trkpt lat="28.517661" lon="105.142459"><ele>554.72437</ele><time>2026-03-26T01:49:29.000Z</time></trkpt>
        <trkpt lat="28.517624" lon="105.142509"><ele>555.9243</ele><time>2026-03-26T01:49:34.000Z</time></trkpt>
        <trkpt lat="28.517581" lon="105.142542"><ele>556.6341</ele><time>2026-03-26T01:49:37.000Z</time></trkpt>
        <trkpt lat="28.517535" lon="105.142572"><ele>556.9664</ele><time>2026-03-26T01:49:40.000Z</time></trkpt>
        <trkpt lat="28.517466" lon="105.142569"><ele>561.5381</ele><time>2026-03-26T01:49:47.000Z</time></trkpt>
        <trkpt lat="28.517442" lon="105.142557"><ele>562.03204</ele><time>2026-03-26T01:49:50.000Z</time></trkpt>
        <trkpt lat="28.517402" lon="105.142561"><ele>562.9402</ele><time>2026-03-26T01:49:53.000Z</time></trkpt>
        <trkpt lat="28.51736" lon="105.142579"><ele>562.94916</ele><time>2026-03-26T01:49:56.000Z</time></trkpt>
        <trkpt lat="28.517323" lon="105.142612"><ele>561.72845</ele><time>2026-03-26T01:49:59.000Z</time></trkpt>
        <trkpt lat="28.517291" lon="105.142654"><ele>561.19794</ele><time>2026-03-26T01:50:02.000Z</time></trkpt>
        <trkpt lat="28.517261" lon="105.1427"><ele>561.7109</ele><time>2026-03-26T01:50:05.000Z</time></trkpt>
        <trkpt lat="28.517225" lon="105.142759"><ele>561.0429</ele><time>2026-03-26T01:50:09.000Z</time></trkpt>
        <trkpt lat="28.517204" lon="105.14282"><ele>557.87244</ele><time>2026-03-26T01:50:13.000Z</time></trkpt>
        <trkpt lat="28.517187" lon="105.142869"><ele>556.4517</ele><time>2026-03-26T01:50:16.000Z</time></trkpt>
        <trkpt lat="28.517166" lon="105.142924"><ele>554.92664</ele><time>2026-03-26T01:50:19.000Z</time></trkpt>
        <trkpt lat="28.517106" lon="105.142988"><ele>553.3952</ele><time>2026-03-26T01:50:21.000Z</time></trkpt>
        <trkpt lat="28.517061" lon="105.143067"><ele>551.5418</ele><time>2026-03-26T01:50:24.000Z</time></trkpt>
        <trkpt lat="28.51704" lon="105.143141"><ele>549.87946</ele><time>2026-03-26T01:50:27.000Z</time></trkpt>
        <trkpt lat="28.517041" lon="105.143205"><ele>548.7463</ele><time>2026-03-26T01:50:30.000Z</time></trkpt>
        <trkpt lat="28.517063" lon="105.143257"><ele>547.34985</ele><time>2026-03-26T01:50:33.000Z</time></trkpt>
        <trkpt lat="28.517098" lon="105.143302"><ele>546.79596</ele><time>2026-03-26T01:50:36.000Z</time></trkpt>
        <trkpt lat="28.517139" lon="105.143346"><ele>546.27936</ele><time>2026-03-26T01:50:39.000Z</time></trkpt>
        <trkpt lat="28.517184" lon="105.143382"><ele>545.9045</ele><time>2026-03-26T01:50:42.000Z</time></trkpt>
        <trkpt lat="28.517231" lon="105.143416"><ele>545.45386</ele><time>2026-03-26T01:50:45.000Z</time></trkpt>
        <trkpt lat="28.517276" lon="105.143453"><ele>545.1383</ele><time>2026-03-26T01:50:48.000Z</time></trkpt>
        <trkpt lat="28.517322" lon="105.143482"><ele>544.9382</ele><time>2026-03-26T01:50:51.000Z</time></trkpt>
        <trkpt lat="28.517366" lon="105.143506"><ele>544.7638</ele><time>2026-03-26T01:50:54.000Z</time></trkpt>
        <trkpt lat="28.517408" lon="105.143528"><ele>544.6528</ele><time>2026-03-26T01:50:57.000Z</time></trkpt>
        <trkpt lat="28.51745" lon="105.143549"><ele>544.60077</ele><time>2026-03-26T01:51:00.000Z</time></trkpt>
        <trkpt lat="28.517498" lon="105.143579"><ele>544.517</ele><time>2026-03-26T01:51:04.000Z</time></trkpt>
        <trkpt lat="28.517526" lon="105.143632"><ele>545.2877</ele><time>2026-03-26T01:51:15.000Z</time></trkpt>
        <trkpt lat="28.517508" lon="105.143665"><ele>544.7617</ele><time>2026-03-26T01:51:18.000Z</time></trkpt>
        <trkpt lat="28.517485" lon="105.143709"><ele>544.6735</ele><time>2026-03-26T01:51:21.000Z</time></trkpt>
        <trkpt lat="28.51743" lon="105.143741"><ele>545.28705</ele><time>2026-03-26T01:51:35.000Z</time></trkpt>
        <trkpt lat="28.517397" lon="105.143764"><ele>546.4552</ele><time>2026-03-26T01:51:38.000Z</time></trkpt>
        <trkpt lat="28.517356" lon="105.143797"><ele>546.7343</ele><time>2026-03-26T01:51:42.000Z</time></trkpt>
        <trkpt lat="28.517316" lon="105.143829"><ele>547.162</ele><time>2026-03-26T01:51:45.000Z</time></trkpt>
        <trkpt lat="28.517266" lon="105.143859"><ele>547.8082</ele><time>2026-03-26T01:51:48.000Z</time></trkpt>
        <trkpt lat="28.517219" lon="105.143889"><ele>548.61395</ele><time>2026-03-26T01:51:51.000Z</time></trkpt>
        <trkpt lat="28.517165" lon="105.143931"><ele>548.93146</ele><time>2026-03-26T01:51:55.000Z</time></trkpt>
        <trkpt lat="28.517121" lon="105.143972"><ele>548.8589</ele><time>2026-03-26T01:51:59.000Z</time></trkpt>
        <trkpt lat="28.517083" lon="105.144016"><ele>547.6668</ele><time>2026-03-26T01:52:03.000Z</time></trkpt>
        <trkpt lat="28.517041" lon="105.144068"><ele>546.29407</ele><time>2026-03-26T01:52:07.000Z</time></trkpt>
        <trkpt lat="28.517009" lon="105.144108"><ele>545.3237</ele><time>2026-03-26T01:52:10.000Z</time></trkpt>
        <trkpt lat="28.516976" lon="105.144147"><ele>543.971</ele><time>2026-03-26T01:52:13.000Z</time></trkpt>
        <trkpt lat="28.516939" lon="105.144184"><ele>542.3727</ele><time>2026-03-26T01:52:16.000Z</time></trkpt>
        <trkpt lat="28.516888" lon="105.14422"><ele>540.39526</ele><time>2026-03-26T01:52:20.000Z</time></trkpt>
        <trkpt lat="28.516842" lon="105.14423"><ele>539.0893</ele><time>2026-03-26T01:52:23.000Z</time></trkpt>
        <trkpt lat="28.516793" lon="105.14422"><ele>538.44415</ele><time>2026-03-26T01:52:26.000Z</time></trkpt>
        <trkpt lat="28.516743" lon="105.1442"><ele>538.15155</ele><time>2026-03-26T01:52:29.000Z</time></trkpt>
        <trkpt lat="28.516696" lon="105.14417"><ele>537.87067</ele><time>2026-03-26T01:52:32.000Z</time></trkpt>
        <trkpt lat="28.516644" lon="105.144151"><ele>537.4507</ele><time>2026-03-26T01:52:35.000Z</time></trkpt>
        <trkpt lat="28.516583" lon="105.14414"><ele>537.0884</ele><time>2026-03-26T01:52:39.000Z</time></trkpt>
        <trkpt lat="28.516536" lon="105.14414"><ele>536.4365</ele><time>2026-03-26T01:52:42.000Z</time></trkpt>
        <trkpt lat="28.516488" lon="105.144152"><ele>535.66455</ele><time>2026-03-26T01:52:45.000Z</time></trkpt>
        <trkpt lat="28.516442" lon="105.14417"><ele>535.18225</ele><time>2026-03-26T01:52:48.000Z</time></trkpt>
        <trkpt lat="28.516397" lon="105.144192"><ele>535.15564</ele><time>2026-03-26T01:52:51.000Z</time></trkpt>
        <trkpt lat="28.516356" lon="105.144222"><ele>534.7559</ele><time>2026-03-26T01:52:54.000Z</time></trkpt>
        <trkpt lat="28.516316" lon="105.144255"><ele>534.9796</ele><time>2026-03-26T01:52:57.000Z</time></trkpt>
        <trkpt lat="28.516275" lon="105.144289"><ele>534.6229</ele><time>2026-03-26T01:53:00.000Z</time></trkpt>
        <trkpt lat="28.51624" lon="105.144327"><ele>533.578</ele><time>2026-03-26T01:53:03.000Z</time></trkpt>
        <trkpt lat="28.516208" lon="105.144371"><ele>532.91394</ele><time>2026-03-26T01:53:06.000Z</time></trkpt>
        <trkpt lat="28.516183" lon="105.144434"><ele>532.236</ele><time>2026-03-26T01:53:12.000Z</time></trkpt>
        <trkpt lat="28.516183" lon="105.144496"><ele>531.583</ele><time>2026-03-26T01:53:18.000Z</time></trkpt>
        <trkpt lat="28.516234" lon="105.144481"><ele>531.6057</ele><time>2026-03-26T01:54:54.000Z</time></trkpt>
        <trkpt lat="28.516261" lon="105.144505"><ele>534.0458</ele><time>2026-03-26T01:55:03.000Z</time></trkpt>
        <trkpt lat="28.516284" lon="105.144552"><ele>534.13965</ele><time>2026-03-26T01:55:07.000Z</time></trkpt>
        <trkpt lat="28.516329" lon="105.144583"><ele>533.89734</ele><time>2026-03-26T01:55:12.000Z</time></trkpt>
        <trkpt lat="28.516384" lon="105.144553"><ele>536.1223</ele><time>2026-03-26T01:55:26.000Z</time></trkpt>
        <trkpt lat="28.516411" lon="105.144508"><ele>536.16974</ele><time>2026-03-26T01:55:31.000Z</time></trkpt>
        <trkpt lat="28.516461" lon="105.144468"><ele>538.7765</ele><time>2026-03-26T01:55:41.000Z</time></trkpt>
        <trkpt lat="28.51642" lon="105.144461"><ele>541.30414</ele><time>2026-03-26T01:55:59.000Z</time></trkpt>
        <trkpt lat="28.516396" lon="105.144509"><ele>538.0285</ele><time>2026-03-26T01:56:25.000Z</time></trkpt>
        <trkpt lat="28.51635" lon="105.144519"><ele>537.09937</ele><time>2026-03-26T01:56:53.000Z</time></trkpt>
        <trkpt lat="28.51639" lon="105.144542"><ele>538.5867</ele><time>2026-03-26T01:58:25.000Z</time></trkpt>
        <trkpt lat="28.516427" lon="105.144581"><ele>538.8722</ele><time>2026-03-26T01:58:34.000Z</time></trkpt>
        <trkpt lat="28.516447" lon="105.144623"><ele>538.50757</ele><time>2026-03-26T01:58:38.000Z</time></trkpt>
        <trkpt lat="28.516484" lon="105.14467"><ele>538.779</ele><time>2026-03-26T01:58:43.000Z</time></trkpt>
        <trkpt lat="28.516528" lon="105.144687"><ele>539.9681</ele><time>2026-03-26T01:58:47.000Z</time></trkpt>
        <trkpt lat="28.516584" lon="105.1447"><ele>539.9821</ele><time>2026-03-26T01:58:52.000Z</time></trkpt>
        <trkpt lat="28.516639" lon="105.144703"><ele>539.4047</ele><time>2026-03-26T01:58:57.000Z</time></trkpt>
        <trkpt lat="28.516689" lon="105.144719"><ele>539.7158</ele><time>2026-03-26T01:59:01.000Z</time></trkpt>
        <trkpt lat="28.516747" lon="105.144734"><ele>540.388</ele><time>2026-03-26T01:59:06.000Z</time></trkpt>
        <trkpt lat="28.516795" lon="105.144727"><ele>540.1681</ele><time>2026-03-26T01:59:10.000Z</time></trkpt>
        <trkpt lat="28.516846" lon="105.144727"><ele>539.81006</ele><time>2026-03-26T01:59:14.000Z</time></trkpt>
        <trkpt lat="28.516897" lon="105.144733"><ele>538.00824</ele><time>2026-03-26T01:59:18.000Z</time></trkpt>
        <trkpt lat="28.516941" lon="105.144749"><ele>536.9612</ele><time>2026-03-26T01:59:21.000Z</time></trkpt>
        <trkpt lat="28.516991" lon="105.144771"><ele>536.0814</ele><time>2026-03-26T01:59:24.000Z</time></trkpt>
        <trkpt lat="28.517041" lon="105.144802"><ele>535.1664</ele><time>2026-03-26T01:59:27.000Z</time></trkpt>
        <trkpt lat="28.517092" lon="105.144838"><ele>534.30597</ele><time>2026-03-26T01:59:30.000Z</time></trkpt>
        <trkpt lat="28.51712" lon="105.144887"><ele>533.3766</ele><time>2026-03-26T01:59:33.000Z</time></trkpt>
        <trkpt lat="28.517118" lon="105.144939"><ele>533.2496</ele><time>2026-03-26T01:59:36.000Z</time></trkpt>
        <trkpt lat="28.517064" lon="105.14501"><ele>535.2274</ele><time>2026-03-26T01:59:46.000Z</time></trkpt>
        <trkpt lat="28.517011" lon="105.145019"><ele>535.2986</ele><time>2026-03-26T01:59:49.000Z</time></trkpt>
        <trkpt lat="28.516961" lon="105.145021"><ele>536.34436</ele><time>2026-03-26T01:59:52.000Z</time></trkpt>
        <trkpt lat="28.516915" lon="105.145036"><ele>537.07544</ele><time>2026-03-26T01:59:55.000Z</time></trkpt>
        <trkpt lat="28.51687" lon="105.14507"><ele>537.4578</ele><time>2026-03-26T01:59:59.000Z</time></trkpt>
        <trkpt lat="28.51684" lon="105.145117"><ele>537.21545</ele><time>2026-03-26T02:00:03.000Z</time></trkpt>
        <trkpt lat="28.516814" lon="105.145171"><ele>536.02313</ele><time>2026-03-26T02:00:07.000Z</time></trkpt>
        <trkpt lat="28.516811" lon="105.145239"><ele>534.0657</ele><time>2026-03-26T02:00:24.000Z</time></trkpt>
        <trkpt lat="28.51685" lon="105.145203"><ele>529.4259</ele><time>2026-03-26T02:00:39.000Z</time></trkpt>
        <trkpt lat="28.516803" lon="105.145192"><ele>529.811</ele><time>2026-03-26T02:01:18.000Z</time></trkpt>
        <trkpt lat="28.516769" lon="105.145206"><ele>529.48444</ele><time>2026-03-26T02:01:22.000Z</time></trkpt>
        <trkpt lat="28.51673" lon="105.145213"><ele>528.81964</ele><time>2026-03-26T02:01:25.000Z</time></trkpt>
        <trkpt lat="28.516671" lon="105.145223"><ele>528.6105</ele><time>2026-03-26T02:01:29.000Z</time></trkpt>
        <trkpt lat="28.51661" lon="105.145229"><ele>528.765</ele><time>2026-03-26T02:01:33.000Z</time></trkpt>
        <trkpt lat="28.516561" lon="105.145241"><ele>529.2425</ele><time>2026-03-26T02:01:36.000Z</time></trkpt>
        <trkpt lat="28.516505" lon="105.145228"><ele>530.00146</ele><time>2026-03-26T02:01:54.000Z</time></trkpt>
        <trkpt lat="28.516477" lon="105.145232"><ele>530.18774</ele><time>2026-03-26T02:02:00.000Z</time></trkpt>
        <trkpt lat="28.516435" lon="105.145247"><ele>530.31757</ele><time>2026-03-26T02:02:04.000Z</time></trkpt>
        <trkpt lat="28.516382" lon="105.145265"><ele>529.7226</ele><time>2026-03-26T02:02:10.000Z</time></trkpt>
        <trkpt lat="28.516327" lon="105.145292"><ele>529.99835</ele><time>2026-03-26T02:02:17.000Z</time></trkpt>
        <trkpt lat="28.51629" lon="105.145312"><ele>529.191</ele><time>2026-03-26T02:02:21.000Z</time></trkpt>
        <trkpt lat="28.516248" lon="105.14533"><ele>528.41943</ele><time>2026-03-26T02:02:25.000Z</time></trkpt>
        <trkpt lat="28.516196" lon="105.145341"><ele>528.14734</ele><time>2026-03-26T02:02:29.000Z</time></trkpt>
        <trkpt lat="28.51615" lon="105.145359"><ele>527.8997</ele><time>2026-03-26T02:02:33.000Z</time></trkpt>
        <trkpt lat="28.516109" lon="105.145371"><ele>526.90265</ele><time>2026-03-26T02:02:36.000Z</time></trkpt>
        <trkpt lat="28.516065" lon="105.145386"><ele>526.0075</ele><time>2026-03-26T02:02:40.000Z</time></trkpt>
        <trkpt lat="28.516012" lon="105.145397"><ele>524.9346</ele><time>2026-03-26T02:02:43.000Z</time></trkpt>
        <trkpt lat="28.515953" lon="105.145405"><ele>524.25696</ele><time>2026-03-26T02:02:46.000Z</time></trkpt>
        <trkpt lat="28.515891" lon="105.14542"><ele>523.9262</ele><time>2026-03-26T02:02:49.000Z</time></trkpt>
        <trkpt lat="28.515832" lon="105.145438"><ele>524.01434</ele><time>2026-03-26T02:02:52.000Z</time></trkpt>
        <trkpt lat="28.515776" lon="105.145451"><ele>523.77637</ele><time>2026-03-26T02:02:55.000Z</time></trkpt>
        <trkpt lat="28.515723" lon="105.145468"><ele>523.62024</ele><time>2026-03-26T02:02:58.000Z</time></trkpt>
        <trkpt lat="28.515666" lon="105.145493"><ele>522.5741</ele><time>2026-03-26T02:03:02.000Z</time></trkpt>
        <trkpt lat="28.515618" lon="105.14551"><ele>521.9893</ele><time>2026-03-26T02:03:05.000Z</time></trkpt>
        <trkpt lat="28.51557" lon="105.145527"><ele>521.194</ele><time>2026-03-26T02:03:08.000Z</time></trkpt>
        <trkpt lat="28.515521" lon="105.145553"><ele>520.6698</ele><time>2026-03-26T02:03:11.000Z</time></trkpt>
        <trkpt lat="28.515462" lon="105.145582"><ele>519.54346</ele><time>2026-03-26T02:03:15.000Z</time></trkpt>
        <trkpt lat="28.515415" lon="105.1456"><ele>519.02014</ele><time>2026-03-26T02:03:18.000Z</time></trkpt>
        <trkpt lat="28.515364" lon="105.145611"><ele>518.4694</ele><time>2026-03-26T02:03:21.000Z</time></trkpt>
        <trkpt lat="28.515314" lon="105.145614"><ele>518.7221</ele><time>2026-03-26T02:03:24.000Z</time></trkpt>
        <trkpt lat="28.515261" lon="105.145631"><ele>519.51056</ele><time>2026-03-26T02:03:27.000Z</time></trkpt>
        <trkpt lat="28.515214" lon="105.145662"><ele>519.9075</ele><time>2026-03-26T02:03:30.000Z</time></trkpt>
        <trkpt lat="28.515184" lon="105.145709"><ele>519.81226</ele><time>2026-03-26T02:03:33.000Z</time></trkpt>
        <trkpt lat="28.515163" lon="105.145784"><ele>518.7294</ele><time>2026-03-26T02:03:37.000Z</time></trkpt>
        <trkpt lat="28.51515" lon="105.145849"><ele>517.81354</ele><time>2026-03-26T02:03:40.000Z</time></trkpt>
        <trkpt lat="28.515132" lon="105.145904"><ele>516.9337</ele><time>2026-03-26T02:03:43.000Z</time></trkpt>
        <trkpt lat="28.5151" lon="105.14595"><ele>516.05994</ele><time>2026-03-26T02:03:46.000Z</time></trkpt>
        <trkpt lat="28.515052" lon="105.145985"><ele>515.8892</ele><time>2026-03-26T02:03:49.000Z</time></trkpt>
        <trkpt lat="28.514996" lon="105.14601"><ele>515.4807</ele><time>2026-03-26T02:03:52.000Z</time></trkpt>
        <trkpt lat="28.514943" lon="105.146035"><ele>514.2829</ele><time>2026-03-26T02:03:55.000Z</time></trkpt>
        <trkpt lat="28.51489" lon="105.146065"><ele>512.7318</ele><time>2026-03-26T02:03:58.000Z</time></trkpt>
        <trkpt lat="28.514849" lon="105.146104"><ele>510.39044</ele><time>2026-03-26T02:04:01.000Z</time></trkpt>
        <trkpt lat="28.514827" lon="105.146163"><ele>507.73758</ele><time>2026-03-26T02:04:04.000Z</time></trkpt>
        <trkpt lat="28.514833" lon="105.146221"><ele>504.6328</ele><time>2026-03-26T02:04:07.000Z</time></trkpt>
        <trkpt lat="28.514865" lon="105.146273"><ele>502.2832</ele><time>2026-03-26T02:04:10.000Z</time></trkpt>
        <trkpt lat="28.51491" lon="105.146312"><ele>500.53363</ele><time>2026-03-26T02:04:13.000Z</time></trkpt>
        <trkpt lat="28.514963" lon="105.146346"><ele>499.47162</ele><time>2026-03-26T02:04:16.000Z</time></trkpt>
        <trkpt lat="28.515016" lon="105.146374"><ele>498.72684</ele><time>2026-03-26T02:04:19.000Z</time></trkpt>
        <trkpt lat="28.515068" lon="105.146401"><ele>497.9278</ele><time>2026-03-26T02:04:22.000Z</time></trkpt>
        <trkpt lat="28.515115" lon="105.146426"><ele>497.1659</ele><time>2026-03-26T02:04:25.000Z</time></trkpt>
        <trkpt lat="28.515161" lon="105.14645"><ele>496.43826</ele><time>2026-03-26T02:04:28.000Z</time></trkpt>
        <trkpt lat="28.515209" lon="105.146478"><ele>496.14297</ele><time>2026-03-26T02:04:31.000Z</time></trkpt>
        <trkpt lat="28.515253" lon="105.146508"><ele>495.4297</ele><time>2026-03-26T02:04:34.000Z</time></trkpt>
        <trkpt lat="28.515281" lon="105.146539"><ele>495.87866</ele><time>2026-03-26T02:04:36.000Z</time></trkpt>
        <trkpt lat="28.515308" lon="105.146598"><ele>497.1707</ele><time>2026-03-26T02:04:39.000Z</time></trkpt>
        <trkpt lat="28.515305" lon="105.146673"><ele>498.32574</ele><time>2026-03-26T02:04:43.000Z</time></trkpt>
        <trkpt lat="28.515271" lon="105.146725"><ele>499.37885</ele><time>2026-03-26T02:04:46.000Z</time></trkpt>
        <trkpt lat="28.51523" lon="105.146756"><ele>499.71225</ele><time>2026-03-26T02:04:48.000Z</time></trkpt>
        <trkpt lat="28.51518" lon="105.146798"><ele>499.94708</ele><time>2026-03-26T02:04:51.000Z</time></trkpt>
        <trkpt lat="28.515125" lon="105.146846"><ele>499.71564</ele><time>2026-03-26T02:04:55.000Z</time></trkpt>
        <trkpt lat="28.515102" lon="105.14688"><ele>499.10574</ele><time>2026-03-26T02:04:57.000Z</time></trkpt>
        <trkpt lat="28.515077" lon="105.146919"><ele>498.61685</ele><time>2026-03-26T02:04:59.000Z</time></trkpt>
        <trkpt lat="28.515056" lon="105.146977"><ele>497.45187</ele><time>2026-03-26T02:05:02.000Z</time></trkpt>
        <trkpt lat="28.515017" lon="105.147033"><ele>496.1932</ele><time>2026-03-26T02:05:06.000Z</time></trkpt>
        <trkpt lat="28.514975" lon="105.147065"><ele>495.50986</ele><time>2026-03-26T02:05:09.000Z</time></trkpt>
        <trkpt lat="28.514924" lon="105.147084"><ele>494.88937</ele><time>2026-03-26T02:05:12.000Z</time></trkpt>
        <trkpt lat="28.514869" lon="105.147086"><ele>494.1548</ele><time>2026-03-26T02:05:15.000Z</time></trkpt>
        <trkpt lat="28.514812" lon="105.14708"><ele>493.10684</ele><time>2026-03-26T02:05:18.000Z</time></trkpt>
        <trkpt lat="28.514756" lon="105.147081"><ele>492.06238</ele><time>2026-03-26T02:05:21.000Z</time></trkpt>
        <trkpt lat="28.514703" lon="105.147096"><ele>490.8016</ele><time>2026-03-26T02:05:24.000Z</time></trkpt>
        <trkpt lat="28.514653" lon="105.147133"><ele>489.50217</ele><time>2026-03-26T02:05:28.000Z</time></trkpt>
        <trkpt lat="28.514613" lon="105.147172"><ele>488.44437</ele><time>2026-03-26T02:05:31.000Z</time></trkpt>
        <trkpt lat="28.514574" lon="105.147214"><ele>486.87024</ele><time>2026-03-26T02:05:34.000Z</time></trkpt>
        <trkpt lat="28.514529" lon="105.147256"><ele>485.49463</ele><time>2026-03-26T02:05:37.000Z</time></trkpt>
        <trkpt lat="28.514483" lon="105.147309"><ele>483.72824</ele><time>2026-03-26T02:05:41.000Z</time></trkpt>
        <trkpt lat="28.514447" lon="105.147349"><ele>483.29727</ele><time>2026-03-26T02:05:44.000Z</time></trkpt>
        <trkpt lat="28.514411" lon="105.147396"><ele>482.5831</ele><time>2026-03-26T02:05:47.000Z</time></trkpt>
        <trkpt lat="28.514375" lon="105.147436"><ele>482.37564</ele><time>2026-03-26T02:05:50.000Z</time></trkpt>
        <trkpt lat="28.514351" lon="105.14747"><ele>482.47205</ele><time>2026-03-26T02:05:52.000Z</time></trkpt>
        <trkpt lat="28.514305" lon="105.147502"><ele>481.87772</ele><time>2026-03-26T02:05:55.000Z</time></trkpt>
        <trkpt lat="28.514255" lon="105.147532"><ele>481.11844</ele><time>2026-03-26T02:05:58.000Z</time></trkpt>
        <trkpt lat="28.514204" lon="105.147555"><ele>479.1882</ele><time>2026-03-26T02:06:01.000Z</time></trkpt>
        <trkpt lat="28.514165" lon="105.147594"><ele>475.94937</ele><time>2026-03-26T02:06:04.000Z</time></trkpt>
        <trkpt lat="28.514135" lon="105.147648"><ele>472.43915</ele><time>2026-03-26T02:06:07.000Z</time></trkpt>
        <trkpt lat="28.514133" lon="105.147711"><ele>469.5851</ele><time>2026-03-26T02:06:10.000Z</time></trkpt>
        <trkpt lat="28.514144" lon="105.147782"><ele>467.10895</ele><time>2026-03-26T02:06:13.000Z</time></trkpt>
        <trkpt lat="28.514168" lon="105.147842"><ele>464.83417</ele><time>2026-03-26T02:06:16.000Z</time></trkpt>
        <trkpt lat="28.514197" lon="105.1479"><ele>462.70117</ele><time>2026-03-26T02:06:19.000Z</time></trkpt>
        <trkpt lat="28.514227" lon="105.147936"><ele>461.50546</ele><time>2026-03-26T02:06:21.000Z</time></trkpt>
        <trkpt lat="28.514272" lon="105.147988"><ele>459.80914</ele><time>2026-03-26T02:06:24.000Z</time></trkpt>
        <trkpt lat="28.514316" lon="105.148017"><ele>459.29007</ele><time>2026-03-26T02:06:26.000Z</time></trkpt>
        <trkpt lat="28.514365" lon="105.14804"><ele>459.0439</ele><time>2026-03-26T02:06:28.000Z</time></trkpt>
        <trkpt lat="28.51441" lon="105.148068"><ele>459.05182</ele><time>2026-03-26T02:06:30.000Z</time></trkpt>
        <trkpt lat="28.514449" lon="105.148109"><ele>459.47495</ele><time>2026-03-26T02:06:32.000Z</time></trkpt>
        <trkpt lat="28.514466" lon="105.148158"><ele>459.80746</ele><time>2026-03-26T02:06:34.000Z</time></trkpt>
        <trkpt lat="28.514465" lon="105.148218"><ele>460.37823</ele><time>2026-03-26T02:06:37.000Z</time></trkpt>
        <trkpt lat="28.514442" lon="105.14828"><ele>460.80783</ele><time>2026-03-26T02:06:40.000Z</time></trkpt>
        <trkpt lat="28.514405" lon="105.148333"><ele>461.25497</ele><time>2026-03-26T02:06:43.000Z</time></trkpt>
        <trkpt lat="28.51436" lon="105.148378"><ele>462.07663</ele><time>2026-03-26T02:06:46.000Z</time></trkpt>
        <trkpt lat="28.514318" lon="105.148432"><ele>462.68283</ele><time>2026-03-26T02:06:49.000Z</time></trkpt>
        <trkpt lat="28.51427" lon="105.148492"><ele>463.07056</ele><time>2026-03-26T02:06:53.000Z</time></trkpt>
        <trkpt lat="28.514223" lon="105.148512"><ele>463.3636</ele><time>2026-03-26T02:06:56.000Z</time></trkpt>
        <trkpt lat="28.514173" lon="105.148517"><ele>463.24304</ele><time>2026-03-26T02:06:59.000Z</time></trkpt>
        <trkpt lat="28.514122" lon="105.148514"><ele>462.14413</ele><time>2026-03-26T02:07:02.000Z</time></trkpt>
        <trkpt lat="28.514072" lon="105.148517"><ele>461.13516</ele><time>2026-03-26T02:07:05.000Z</time></trkpt>
        <trkpt lat="28.514018" lon="105.148526"><ele>459.91455</ele><time>2026-03-26T02:07:08.000Z</time></trkpt>
        <trkpt lat="28.513963" lon="105.148534"><ele>458.72983</ele><time>2026-03-26T02:07:11.000Z</time></trkpt>
        <trkpt lat="28.5139" lon="105.148549"><ele>457.14633</ele><time>2026-03-26T02:07:15.000Z</time></trkpt>
        <trkpt lat="28.513852" lon="105.14856"><ele>456.28766</ele><time>2026-03-26T02:07:18.000Z</time></trkpt>
        <trkpt lat="28.513807" lon="105.148573"><ele>455.17422</ele><time>2026-03-26T02:07:21.000Z</time></trkpt>
        <trkpt lat="28.513766" lon="105.148598"><ele>454.2586</ele><time>2026-03-26T02:07:24.000Z</time></trkpt>
        <trkpt lat="28.513725" lon="105.148637"><ele>453.30063</ele><time>2026-03-26T02:07:27.000Z</time></trkpt>
        <trkpt lat="28.513692" lon="105.14869"><ele>451.89017</ele><time>2026-03-26T02:07:30.000Z</time></trkpt>
        <trkpt lat="28.513666" lon="105.148743"><ele>450.27124</ele><time>2026-03-26T02:07:33.000Z</time></trkpt>
        <trkpt lat="28.513653" lon="105.148802"><ele>448.64163</ele><time>2026-03-26T02:07:36.000Z</time></trkpt>
        <trkpt lat="28.51365" lon="105.148862"><ele>447.35156</ele><time>2026-03-26T02:07:39.000Z</time></trkpt>
        <trkpt lat="28.513651" lon="105.148936"><ele>445.72375</ele><time>2026-03-26T02:07:43.000Z</time></trkpt>
        <trkpt lat="28.513656" lon="105.149006"><ele>444.01047</ele><time>2026-03-26T02:07:47.000Z</time></trkpt>
        <trkpt lat="28.513653" lon="105.149057"><ele>442.547</ele><time>2026-03-26T02:07:50.000Z</time></trkpt>
        <trkpt lat="28.513643" lon="105.149117"><ele>440.5797</ele><time>2026-03-26T02:07:54.000Z</time></trkpt>
        <trkpt lat="28.513631" lon="105.14917"><ele>439.22607</ele><time>2026-03-26T02:07:57.000Z</time></trkpt>
        <trkpt lat="28.513609" lon="105.149218"><ele>438.19507</ele><time>2026-03-26T02:08:00.000Z</time></trkpt>
        <trkpt lat="28.513579" lon="105.149265"><ele>437.5653</ele><time>2026-03-26T02:08:03.000Z</time></trkpt>
        <trkpt lat="28.513545" lon="105.149306"><ele>437.23047</ele><time>2026-03-26T02:08:06.000Z</time></trkpt>
        <trkpt lat="28.513512" lon="105.149353"><ele>437.07062</ele><time>2026-03-26T02:08:09.000Z</time></trkpt>
        <trkpt lat="28.513478" lon="105.149399"><ele>436.85568</ele><time>2026-03-26T02:08:12.000Z</time></trkpt>
        <trkpt lat="28.513445" lon="105.149443"><ele>436.11926</ele><time>2026-03-26T02:08:15.000Z</time></trkpt>
        <trkpt lat="28.513406" lon="105.149486"><ele>435.9729</ele><time>2026-03-26T02:08:18.000Z</time></trkpt>
        <trkpt lat="28.51337" lon="105.149528"><ele>435.93585</ele><time>2026-03-26T02:08:21.000Z</time></trkpt>
        <trkpt lat="28.51333" lon="105.149565"><ele>435.37985</ele><time>2026-03-26T02:08:24.000Z</time></trkpt>
        <trkpt lat="28.513287" lon="105.149602"><ele>434.73544</ele><time>2026-03-26T02:08:27.000Z</time></trkpt>
        <trkpt lat="28.513245" lon="105.149642"><ele>433.82166</ele><time>2026-03-26T02:08:30.000Z</time></trkpt>
        <trkpt lat="28.513203" lon="105.149683"><ele>432.84082</ele><time>2026-03-26T02:08:33.000Z</time></trkpt>
        <trkpt lat="28.513169" lon="105.149728"><ele>431.72806</ele><time>2026-03-26T02:08:36.000Z</time></trkpt>
        <trkpt lat="28.51314" lon="105.14978"><ele>430.55835</ele><time>2026-03-26T02:08:39.000Z</time></trkpt>
        <trkpt lat="28.513127" lon="105.149824"><ele>429.8927</ele><time>2026-03-26T02:08:41.000Z</time></trkpt>
        <trkpt lat="28.513108" lon="105.149887"><ele>428.70526</ele><time>2026-03-26T02:08:44.000Z</time></trkpt>
        <trkpt lat="28.513093" lon="105.149952"><ele>428.05826</ele><time>2026-03-26T02:08:47.000Z</time></trkpt>
        <trkpt lat="28.513076" lon="105.150016"><ele>428.01358</ele><time>2026-03-26T02:08:50.000Z</time></trkpt>
        <trkpt lat="28.513052" lon="105.150072"><ele>427.57193</ele><time>2026-03-26T02:08:53.000Z</time></trkpt>
        <trkpt lat="28.513004" lon="105.15011"><ele>427.06122</ele><time>2026-03-26T02:08:57.000Z</time></trkpt>
        <trkpt lat="28.512958" lon="105.150109"><ele>426.4471</ele><time>2026-03-26T02:09:00.000Z</time></trkpt>
        <trkpt lat="28.51291" lon="105.150081"><ele>426.13715</ele><time>2026-03-26T02:09:03.000Z</time></trkpt>
        <trkpt lat="28.512858" lon="105.150042"><ele>426.23843</ele><time>2026-03-26T02:09:06.000Z</time></trkpt>
        <trkpt lat="28.512808" lon="105.149998"><ele>426.38254</ele><time>2026-03-26T02:09:09.000Z</time></trkpt>
        <trkpt lat="28.512762" lon="105.149956"><ele>426.76746</ele><time>2026-03-26T02:09:12.000Z</time></trkpt>
        <trkpt lat="28.512715" lon="105.149929"><ele>427.2166</ele><time>2026-03-26T02:09:15.000Z</time></trkpt>
        <trkpt lat="28.512666" lon="105.149923"><ele>427.07266</ele><time>2026-03-26T02:09:18.000Z</time></trkpt>
        <trkpt lat="28.512618" lon="105.149943"><ele>426.40665</ele><time>2026-03-26T02:09:21.000Z</time></trkpt>
        <trkpt lat="28.512566" lon="105.14999"><ele>425.157</ele><time>2026-03-26T02:09:25.000Z</time></trkpt>
        <trkpt lat="28.512521" lon="105.150048"><ele>424.1616</ele><time>2026-03-26T02:09:29.000Z</time></trkpt>
        <trkpt lat="28.512484" lon="105.150092"><ele>423.49384</ele><time>2026-03-26T02:09:32.000Z</time></trkpt>
        <trkpt lat="28.512443" lon="105.150126"><ele>422.88943</ele><time>2026-03-26T02:09:35.000Z</time></trkpt>
        <trkpt lat="28.5124" lon="105.15015"><ele>422.09235</ele><time>2026-03-26T02:09:38.000Z</time></trkpt>
        <trkpt lat="28.512355" lon="105.150171"><ele>421.1589</ele><time>2026-03-26T02:09:41.000Z</time></trkpt>
        <trkpt lat="28.512307" lon="105.150173"><ele>421.02045</ele><time>2026-03-26T02:09:44.000Z</time></trkpt>
        <trkpt lat="28.512255" lon="105.150177"><ele>421.13245</ele><time>2026-03-26T02:09:47.000Z</time></trkpt>
        <trkpt lat="28.512201" lon="105.15018"><ele>421.38724</ele><time>2026-03-26T02:09:50.000Z</time></trkpt>
        <trkpt lat="28.512153" lon="105.150203"><ele>422.13553</ele><time>2026-03-26T02:09:53.000Z</time></trkpt>
        <trkpt lat="28.512113" lon="105.150239"><ele>422.51056</ele><time>2026-03-26T02:09:56.000Z</time></trkpt>
        <trkpt lat="28.51208" lon="105.150283"><ele>422.86743</ele><time>2026-03-26T02:09:59.000Z</time></trkpt>
        <trkpt lat="28.512047" lon="105.150344"><ele>422.40286</ele><time>2026-03-26T02:10:03.000Z</time></trkpt>
        <trkpt lat="28.512026" lon="105.150395"><ele>422.0649</ele><time>2026-03-26T02:10:06.000Z</time></trkpt>
        <trkpt lat="28.511997" lon="105.150444"><ele>422.1846</ele><time>2026-03-26T02:10:09.000Z</time></trkpt>
        <trkpt lat="28.511947" lon="105.150498"><ele>422.58295</ele><time>2026-03-26T02:10:13.000Z</time></trkpt>
        <trkpt lat="28.511891" lon="105.150537"><ele>422.47055</ele><time>2026-03-26T02:10:17.000Z</time></trkpt>
        <trkpt lat="28.51185" lon="105.150565"><ele>422.0724</ele><time>2026-03-26T02:10:20.000Z</time></trkpt>
        <trkpt lat="28.511812" lon="105.150605"><ele>421.43497</ele><time>2026-03-26T02:10:23.000Z</time></trkpt>
        <trkpt lat="28.511789" lon="105.150654"><ele>419.67322</ele><time>2026-03-26T02:10:26.000Z</time></trkpt>
        <trkpt lat="28.511772" lon="105.150704"><ele>417.60675</ele><time>2026-03-26T02:10:29.000Z</time></trkpt>
        <trkpt lat="28.51175" lon="105.150768"><ele>415.7948</ele><time>2026-03-26T02:10:33.000Z</time></trkpt>
        <trkpt lat="28.511726" lon="105.15083"><ele>413.93994</ele><time>2026-03-26T02:10:37.000Z</time></trkpt>
        <trkpt lat="28.511696" lon="105.150875"><ele>411.4044</ele><time>2026-03-26T02:10:41.000Z</time></trkpt>
        <trkpt lat="28.511675" lon="105.150916"><ele>409.66794</ele><time>2026-03-26T02:10:44.000Z</time></trkpt>
        <trkpt lat="28.511649" lon="105.150964"><ele>408.61758</ele><time>2026-03-26T02:10:47.000Z</time></trkpt>
        <trkpt lat="28.51163" lon="105.151014"><ele>407.90387</ele><time>2026-03-26T02:10:50.000Z</time></trkpt>
        <trkpt lat="28.511617" lon="105.15107"><ele>407.55737</ele><time>2026-03-26T02:10:53.000Z</time></trkpt>
        <trkpt lat="28.511625" lon="105.151126"><ele>407.7868</ele><time>2026-03-26T02:10:56.000Z</time></trkpt>
        <trkpt lat="28.511651" lon="105.151171"><ele>407.63986</ele><time>2026-03-26T02:10:59.000Z</time></trkpt>
        <trkpt lat="28.511689" lon="105.151212"><ele>407.56046</ele><time>2026-03-26T02:11:02.000Z</time></trkpt>
        <trkpt lat="28.511734" lon="105.151252"><ele>408.0433</ele><time>2026-03-26T02:11:05.000Z</time></trkpt>
        <trkpt lat="28.511784" lon="105.151286"><ele>408.06046</ele><time>2026-03-26T02:11:08.000Z</time></trkpt>
        <trkpt lat="28.511832" lon="105.151321"><ele>407.229</ele><time>2026-03-26T02:11:11.000Z</time></trkpt>
        <trkpt lat="28.511891" lon="105.151363"><ele>405.83575</ele><time>2026-03-26T02:11:15.000Z</time></trkpt>
        <trkpt lat="28.511941" lon="105.151391"><ele>404.6524</ele><time>2026-03-26T02:11:18.000Z</time></trkpt>
        <trkpt lat="28.511996" lon="105.151414"><ele>403.49225</ele><time>2026-03-26T02:11:21.000Z</time></trkpt>
        <trkpt lat="28.51206" lon="105.151429"><ele>401.66986</ele><time>2026-03-26T02:11:25.000Z</time></trkpt>
        <trkpt lat="28.512097" lon="105.151424"><ele>401.00244</ele><time>2026-03-26T02:11:27.000Z</time></trkpt>
        <trkpt lat="28.512148" lon="105.151403"><ele>400.12286</ele><time>2026-03-26T02:11:30.000Z</time></trkpt>
        <trkpt lat="28.512193" lon="105.15137"><ele>399.29654</ele><time>2026-03-26T02:11:33.000Z</time></trkpt>
        <trkpt lat="28.512234" lon="105.151336"><ele>399.12</ele><time>2026-03-26T02:11:36.000Z</time></trkpt>
        <trkpt lat="28.512275" lon="105.151329"><ele>398.7241</ele><time>2026-03-26T02:11:39.000Z</time></trkpt>
        <trkpt lat="28.512303" lon="105.151355"><ele>398.1103</ele><time>2026-03-26T02:11:42.000Z</time></trkpt>
        <trkpt lat="28.512301" lon="105.151411"><ele>396.98795</ele><time>2026-03-26T02:11:45.000Z</time></trkpt>
        <trkpt lat="28.512266" lon="105.151465"><ele>395.60468</ele><time>2026-03-26T02:11:48.000Z</time></trkpt>
        <trkpt lat="28.512215" lon="105.15151"><ele>394.6209</ele><time>2026-03-26T02:11:51.000Z</time></trkpt>
        <trkpt lat="28.512148" lon="105.151544"><ele>393.9831</ele><time>2026-03-26T02:11:55.000Z</time></trkpt>
        <trkpt lat="28.512093" lon="105.15156"><ele>393.47745</ele><time>2026-03-26T02:11:58.000Z</time></trkpt>
        <trkpt lat="28.512039" lon="105.151574"><ele>393.2398</ele><time>2026-03-26T02:12:01.000Z</time></trkpt>
        <trkpt lat="28.511982" lon="105.151595"><ele>392.70966</ele><time>2026-03-26T02:12:05.000Z</time></trkpt>
        <trkpt lat="28.511932" lon="105.151619"><ele>391.96906</ele><time>2026-03-26T02:12:09.000Z</time></trkpt>
        <trkpt lat="28.511894" lon="105.151648"><ele>391.9532</ele><time>2026-03-26T02:12:12.000Z</time></trkpt>
        <trkpt lat="28.511858" lon="105.151685"><ele>392.1607</ele><time>2026-03-26T02:12:15.000Z</time></trkpt>
        <trkpt lat="28.511816" lon="105.151728"><ele>392.35757</ele><time>2026-03-26T02:12:18.000Z</time></trkpt>
        <trkpt lat="28.511786" lon="105.151778"><ele>392.2292</ele><time>2026-03-26T02:12:21.000Z</time></trkpt>
        <trkpt lat="28.511764" lon="105.151839"><ele>392.3543</ele><time>2026-03-26T02:12:25.000Z</time></trkpt>
        <trkpt lat="28.511734" lon="105.151869"><ele>392.74194</ele><time>2026-03-26T02:12:28.000Z</time></trkpt>
        <trkpt lat="28.511684" lon="105.151912"><ele>394.0062</ele><time>2026-03-26T02:12:33.000Z</time></trkpt>
        <trkpt lat="28.511631" lon="105.151926"><ele>391.4376</ele><time>2026-03-26T02:12:52.000Z</time></trkpt>
        <trkpt lat="28.511601" lon="105.15192"><ele>390.8291</ele><time>2026-03-26T02:12:57.000Z</time></trkpt>
        <trkpt lat="28.511548" lon="105.151912"><ele>389.43875</ele><time>2026-03-26T02:13:05.000Z</time></trkpt>
        <trkpt lat="28.511501" lon="105.151902"><ele>388.52847</ele><time>2026-03-26T02:13:10.000Z</time></trkpt>
        <trkpt lat="28.51145" lon="105.151888"><ele>387.54025</ele><time>2026-03-26T02:13:15.000Z</time></trkpt>
        <trkpt lat="28.511406" lon="105.151874"><ele>386.977</ele><time>2026-03-26T02:13:19.000Z</time></trkpt>
        <trkpt lat="28.51136" lon="105.151867"><ele>386.7072</ele><time>2026-03-26T02:13:23.000Z</time></trkpt>
        <trkpt lat="28.511308" lon="105.151858"><ele>387.07492</ele><time>2026-03-26T02:13:27.000Z</time></trkpt>
        <trkpt lat="28.511254" lon="105.151843"><ele>386.8745</ele><time>2026-03-26T02:13:31.000Z</time></trkpt>
        <trkpt lat="28.511199" lon="105.151823"><ele>386.82925</ele><time>2026-03-26T02:13:35.000Z</time></trkpt>
        <trkpt lat="28.511155" lon="105.151812"><ele>386.86475</ele><time>2026-03-26T02:13:38.000Z</time></trkpt>
        <trkpt lat="28.511109" lon="105.151802"><ele>386.7518</ele><time>2026-03-26T02:13:41.000Z</time></trkpt>
        <trkpt lat="28.511062" lon="105.151791"><ele>386.81436</ele><time>2026-03-26T02:13:44.000Z</time></trkpt>
        <trkpt lat="28.511003" lon="105.151779"><ele>386.6744</ele><time>2026-03-26T02:13:48.000Z</time></trkpt>
        <trkpt lat="28.510945" lon="105.151777"><ele>386.5211</ele><time>2026-03-26T02:13:52.000Z</time></trkpt>
        <trkpt lat="28.510888" lon="105.151781"><ele>386.232</ele><time>2026-03-26T02:13:56.000Z</time></trkpt>
        <trkpt lat="28.510831" lon="105.151777"><ele>385.8661</ele><time>2026-03-26T02:14:00.000Z</time></trkpt>
        <trkpt lat="28.510772" lon="105.151781"><ele>385.68237</ele><time>2026-03-26T02:14:04.000Z</time></trkpt>
        <trkpt lat="28.510726" lon="105.151785"><ele>385.32352</ele><time>2026-03-26T02:14:07.000Z</time></trkpt>
        <trkpt lat="28.510677" lon="105.151786"><ele>384.84845</ele><time>2026-03-26T02:14:10.000Z</time></trkpt>
        <trkpt lat="28.510629" lon="105.151788"><ele>384.52356</ele><time>2026-03-26T02:14:13.000Z</time></trkpt>
        <trkpt lat="28.51058" lon="105.151783"><ele>384.10162</ele><time>2026-03-26T02:14:16.000Z</time></trkpt>
        <trkpt lat="28.510534" lon="105.151769"><ele>383.62625</ele><time>2026-03-26T02:14:19.000Z</time></trkpt>
        <trkpt lat="28.510491" lon="105.151738"><ele>382.80255</ele><time>2026-03-26T02:14:22.000Z</time></trkpt>
        <trkpt lat="28.510466" lon="105.15169"><ele>382.2728</ele><time>2026-03-26T02:14:25.000Z</time></trkpt>
        <trkpt lat="28.510455" lon="105.151633"><ele>381.74866</ele><time>2026-03-26T02:14:28.000Z</time></trkpt>
        <trkpt lat="28.510451" lon="105.15157"><ele>381.42352</ele><time>2026-03-26T02:14:31.000Z</time></trkpt>
        <trkpt lat="28.510436" lon="105.151511"><ele>381.808</ele><time>2026-03-26T02:14:34.000Z</time></trkpt>
        <trkpt lat="28.510409" lon="105.15146"><ele>382.64508</ele><time>2026-03-26T02:14:37.000Z</time></trkpt>
        <trkpt lat="28.510369" lon="105.151427"><ele>383.8191</ele><time>2026-03-26T02:14:40.000Z</time></trkpt>
        <trkpt lat="28.510312" lon="105.151425"><ele>385.10367</ele><time>2026-03-26T02:14:45.000Z</time></trkpt>
        <trkpt lat="28.510258" lon="105.15143"><ele>387.80505</ele><time>2026-03-26T02:15:23.000Z</time></trkpt>
        <trkpt lat="28.510236" lon="105.151443"><ele>387.74295</ele><time>2026-03-26T02:15:26.000Z</time></trkpt>
        <trkpt lat="28.510198" lon="105.151443"><ele>387.9643</ele><time>2026-03-26T02:15:29.000Z</time></trkpt>
        <trkpt lat="28.510136" lon="105.151438"><ele>388.36908</ele><time>2026-03-26T02:15:33.000Z</time></trkpt>
        <trkpt lat="28.510079" lon="105.151431"><ele>388.93118</ele><time>2026-03-26T02:15:36.000Z</time></trkpt>
        <trkpt lat="28.510012" lon="105.151435"><ele>389.183</ele><time>2026-03-26T02:15:40.000Z</time></trkpt>
        <trkpt lat="28.509956" lon="105.151432"><ele>389.4675</ele><time>2026-03-26T02:15:43.000Z</time></trkpt>
        <trkpt lat="28.509906" lon="105.15144"><ele>389.03464</ele><time>2026-03-26T02:15:46.000Z</time></trkpt>
        <trkpt lat="28.509846" lon="105.151455"><ele>388.43622</ele><time>2026-03-26T02:15:50.000Z</time></trkpt>
        <trkpt lat="28.509791" lon="105.151475"><ele>387.07764</ele><time>2026-03-26T02:15:54.000Z</time></trkpt>
        <trkpt lat="28.509747" lon="105.151478"><ele>387.08844</ele><time>2026-03-26T02:15:57.000Z</time></trkpt>
        <trkpt lat="28.509688" lon="105.151479"><ele>387.91364</ele><time>2026-03-26T02:16:01.000Z</time></trkpt>
        <trkpt lat="28.509641" lon="105.151487"><ele>389.2074</ele><time>2026-03-26T02:16:04.000Z</time></trkpt>
        <trkpt lat="28.509583" lon="105.151507"><ele>389.86972</ele><time>2026-03-26T02:16:08.000Z</time></trkpt>
        <trkpt lat="28.509529" lon="105.151515"><ele>390.29544</ele><time>2026-03-26T02:16:12.000Z</time></trkpt>
        <trkpt lat="28.509481" lon="105.151535"><ele>391.04022</ele><time>2026-03-26T02:16:16.000Z</time></trkpt>
        <trkpt lat="28.509432" lon="105.151527"><ele>392.00595</ele><time>2026-03-26T02:16:20.000Z</time></trkpt>
        <trkpt lat="28.509392" lon="105.151525"><ele>392.27966</ele><time>2026-03-26T02:16:23.000Z</time></trkpt>
        <trkpt lat="28.509338" lon="105.151529"><ele>391.6099</ele><time>2026-03-26T02:16:27.000Z</time></trkpt>
        <trkpt lat="28.509283" lon="105.151545"><ele>391.3675</ele><time>2026-03-26T02:16:31.000Z</time></trkpt>
        <trkpt lat="28.509231" lon="105.151562"><ele>391.13757</ele><time>2026-03-26T02:16:35.000Z</time></trkpt>
        <trkpt lat="28.509175" lon="105.151577"><ele>390.48535</ele><time>2026-03-26T02:16:39.000Z</time></trkpt>
        <trkpt lat="28.50913" lon="105.151588"><ele>390.13336</ele><time>2026-03-26T02:16:42.000Z</time></trkpt>
        <trkpt lat="28.509085" lon="105.151602"><ele>389.81503</ele><time>2026-03-26T02:16:45.000Z</time></trkpt>
        <trkpt lat="28.509038" lon="105.151612"><ele>389.87326</ele><time>2026-03-26T02:16:48.000Z</time></trkpt>
        <trkpt lat="28.508979" lon="105.151622"><ele>390.24734</ele><time>2026-03-26T02:16:52.000Z</time></trkpt>
        <trkpt lat="28.508926" lon="105.15163"><ele>390.27957</ele><time>2026-03-26T02:16:56.000Z</time></trkpt>
        <trkpt lat="28.508887" lon="105.151648"><ele>390.17166</ele><time>2026-03-26T02:16:59.000Z</time></trkpt>
        <trkpt lat="28.508837" lon="105.151687"><ele>390.20187</ele><time>2026-03-26T02:17:03.000Z</time></trkpt>
        <trkpt lat="28.50879" lon="105.151734"><ele>390.84656</ele><time>2026-03-26T02:17:07.000Z</time></trkpt>
        <trkpt lat="28.508752" lon="105.151773"><ele>391.54016</ele><time>2026-03-26T02:17:10.000Z</time></trkpt>
        <trkpt lat="28.508715" lon="105.151809"><ele>392.10733</ele><time>2026-03-26T02:17:13.000Z</time></trkpt>
        <trkpt lat="28.508676" lon="105.151844"><ele>392.4538</ele><time>2026-03-26T02:17:16.000Z</time></trkpt>
        <trkpt lat="28.508617" lon="105.151871"><ele>393.12958</ele><time>2026-03-26T02:17:21.000Z</time></trkpt>
        <trkpt lat="28.508566" lon="105.151872"><ele>393.26428</ele><time>2026-03-26T02:17:27.000Z</time></trkpt>
        <trkpt lat="28.508525" lon="105.151867"><ele>393.1741</ele><time>2026-03-26T02:17:31.000Z</time></trkpt>
        <trkpt lat="28.508485" lon="105.151865"><ele>392.7401</ele><time>2026-03-26T02:17:34.000Z</time></trkpt>
        <trkpt lat="28.508442" lon="105.151853"><ele>392.56332</ele><time>2026-03-26T02:17:37.000Z</time></trkpt>
        <trkpt lat="28.508396" lon="105.151824"><ele>392.02905</ele><time>2026-03-26T02:17:41.000Z</time></trkpt>
        <trkpt lat="28.508362" lon="105.151789"><ele>391.94342</ele><time>2026-03-26T02:17:44.000Z</time></trkpt>
        <trkpt lat="28.508326" lon="105.151734"><ele>391.32422</ele><time>2026-03-26T02:17:48.000Z</time></trkpt>
        <trkpt lat="28.508293" lon="105.151674"><ele>390.89615</ele><time>2026-03-26T02:17:52.000Z</time></trkpt>
        <trkpt lat="28.508274" lon="105.151619"><ele>391.66</ele><time>2026-03-26T02:17:55.000Z</time></trkpt>
        <trkpt lat="28.50825" lon="105.151554"><ele>392.6805</ele><time>2026-03-26T02:17:59.000Z</time></trkpt>
        <trkpt lat="28.508229" lon="105.151498"><ele>393.2999</ele><time>2026-03-26T02:18:03.000Z</time></trkpt>
        <trkpt lat="28.508214" lon="105.151446"><ele>394.17847</ele><time>2026-03-26T02:18:07.000Z</time></trkpt>
        <trkpt lat="28.508188" lon="105.151394"><ele>395.21146</ele><time>2026-03-26T02:18:12.000Z</time></trkpt>
        <trkpt lat="28.508195" lon="105.151342"><ele>396.3429</ele><time>2026-03-26T02:18:19.000Z</time></trkpt>
        <trkpt lat="28.508241" lon="105.151392"><ele>399.80106</ele><time>2026-03-26T02:20:41.000Z</time></trkpt>
        <trkpt lat="28.508275" lon="105.151424"><ele>399.9764</ele><time>2026-03-26T02:20:46.000Z</time></trkpt>
        <trkpt lat="28.508323" lon="105.151454"><ele>400.3459</ele><time>2026-03-26T02:20:51.000Z</time></trkpt>
        <trkpt lat="28.508376" lon="105.151461"><ele>400.0531</ele><time>2026-03-26T02:20:55.000Z</time></trkpt>
        <trkpt lat="28.508432" lon="105.151473"><ele>399.6071</ele><time>2026-03-26T02:21:00.000Z</time></trkpt>
      </trkseg>
  </trk>
</gpx>